GFSSW_sfc_dewp_000.txt.gz
Dewpoint
57 57 57 57 58 58 58 58 58 59 58 58 58 57 57 57 58 53 33 42 43 71 69 46 50 49 41 36 35 41 43 53 49 48 40 40 33 38 46 56 56 53 60 63 65
57 57 57 57 57 57 58 58 58 58 57 57 57 57 56 57 51 41 59 68 69 68 40 35 42 40 34 31 32 36 49 47 46 42 34 31 34 34 51 55 56 48 52 64 64
56 56 56 56 57 57 57 57 58 58 57 57 57 57 56 56 47 38 67 68 68 61 29 32 37 34 27 28 32 38 47 51 49 38 33 31 30 36 49 51 53 54 52 62 63
56 56 56 56 56 56 57 57 57 57 56 56 56 56 56 53 32 51 66 67 66 35 39 36 31 25 22 25 31 34 35 45 36 36 33 32 32 30 32 48 52 51 57 61 61
55 56 56 56 56 56 56 56 56 57 56 56 56 56 55 48 35 55 66 62 37 32 37 29 26 23 20 22 30 32 34 33 35 36 34 32 29 32 42 47 50 53 58 60 60
55 55 55 55 56 56 56 56 56 56 57 57 57 56 52 40 39 40 32 33 25 38 33 27 23 22 21 25 27 28 33 35 33 34 32 31 36 37 39 41 51 57 58 58 59
55 55 55 55 56 56 56 55 55 57 58 57 56 53 46 37 36 40 30 32 32 38 27 25 24 24 23 28 29 26 27 34 34 32 31 28 40 40 42 38 47 53 55 57 60
55 55 55 55 55 55 55 54 55 58 57 56 57 53 41 36 37 36 37 36 35 33 27 27 28 31 33 31 32 33 31 31 32 30 31 29 36 45 38 41 48 49 53 55 58
54 54 54 55 55 55 55 54 55 59 58 58 56 52 34 46 33 32 37 33 31 28 28 30 37 35 33 31 30 30 28 27 42 48 28 28 38 46 44 47 48 49 52 53 57
54 54 54 54 55 54 53 55 56 58 58 55 51 44 40 33 31 31 33 34 31 26 27 32 32 33 30 29 29 24 27 37 45 44 28 26 26 44 40 39 43 48 51 53 55
53 54 54 54 54 53 49 42 48 51 48 37 34 21 28 35 34 33 31 31 31 27 24 26 26 24 25 28 27 27 27 26 45 40 28 28 28 31 39 42 37 49 53 54 55
53 53 53 53 53 52 49 39 30 27 26 24 22 20 18 33 34 31 29 27 29 28 25 21 20 22 24 23 22 25 25 26 27 28 29 29 27 34 48 51 49 46 49 52 53
52 53 53 53 52 47 35 29 29 29 27 21 18 16 14 19 27 30 29 27 28 28 26 22 17 18 16 16 17 20 23 24 24 24 28 29 29 30 48 47 48 43 48 48 51
52 52 52 51 44 37 27 33 27 31 24 16 15 15 13 16 15 18 29 28 28 27 27 25 23 17 14 13 13 15 20 21 21 22 21 26 24 37 44 44 42 45 43 45 50
52 52 51 50 41 32 31 30 27 30 18 12 13 14 13 13 11 14 31 29 28 28 25 24 21 17 15 13 11 11 18 22 23 22 23 22 19 39 42 42 42 44 46 45 51
51 51 50 42 46 39 30 27 28 24 16 13 16 16 14 12 9 12 24 31 30 28 26 22 19 15 14 14 15 14 16 23 24 17 17 23 20 34 43 44 44 44 42 49 62
51 50 48 42 34 32 31 27 20 18 13 8 12 12 12 12 11 11 14 26 27 27 26 26 20 19 19 16 18 17 21 20 21 18 19 28 20 37 39 44 43 44 46 57 63
49 49 47 40 31 32 31 24 23 18 15 9 7 7 10 10 13 11 16 21 27 26 24 24 22 19 19 17 17 19 22 21 24 21 26 42 34 40 43 43 41 43 48 59 61
48 38 38 38 40 35 29 21 20 22 18 9 6 9 8 6 9 12 18 19 24 26 29 22 21 21 19 20 17 19 20 21 23 22 24 38 36 37 38 42 46 46 46 56 60
42 37 33 34 35 32 26 24 16 13 14 11 10 8 8 6 9 13 19 20 21 23 26 27 24 20 18 22 22 19 20 21 19 24 25 26 30 36 47 48 48 47 47 56 62
43 36 29 31 33 28 21 18 16 15 14 11 13 11 9 6 12 12 13 19 18 19 23 23 26 23 20 20 19 19 16 21 22 23 21 24 37 49 49 50 51 50 51 55 61
37 29 34 33 26 24 22 20 24 12 13 12 13 13 12 11 14 17 15 15 18 17 20 23 23 24 22 20 21 20 22 24 25 33 27 28 40 45 53 53 53 52 54 57 60
37 30 35 34 25 19 21 16 16 13 15 13 11 12 14 16 19 19 20 16 18 18 24 25 25 22 26 23 23 21 20 23 31 38 35 27 29 45 50 54 52 52 56 60 63
39 26 28 31 29 25 24 22 18 15 13 17 13 13 12 17 19 21 22 18 22 21 56 42 35 31 20 27 31 25 22 20 26 28 26 23 42 46 50 53 56 56 57 62 64
39 31 32 26 23 25 26 28 25 18 19 19 19 14 15 20 18 19 21 26 19 42 32 35 41 33 25 26 27 28 25 21 19 25 23 29 34 48 53 54 51 56 63 63 64
37 36 37 35 37 36 33 24 27 26 21 20 17 16 18 25 24 24 22 28 28 28 34 36 39 37 31 27 25 26 26 23 18 18 21 22 46 50 51 52 50 56 62 62 62
40 39 37 36 33 31 31 31 25 28 28 20 24 20 20 23 23 24 23 35 34 34 38 40 39 42 33 29 27 27 26 28 23 23 23 35 48 51 51 54 54 63 60 60 61

GFSSW_sfc_dewp_003.txt.gz
Dewpoint
57 57 57 58 58 58 58 58 58 59 57 58 58 58 57 57 57 55 41 40 44 72 70 44 43 46 47 40 36 34 46 48 49 47 44 43 43 50 48 52 53 58 60 62 67
57 57 57 57 57 58 58 58 58 58 58 57 58 57 57 57 53 42 52 68 69 69 32 43 42 45 40 34 33 34 44 44 46 44 44 44 42 46 47 48 52 53 66 66 66
56 57 57 57 57 57 58 58 57 58 57 57 57 57 57 57 51 41 68 69 69 65 28 33 32 36 32 27 27 33 46 45 42 44 45 44 42 46 48 49 51 52 64 65 64
56 56 56 56 57 57 57 57 57 57 56 56 56 56 57 54 39 49 67 69 69 43 26 31 34 32 25 21 24 26 36 44 45 47 44 34 35 49 45 48 52 53 64 64 63
55 56 56 56 56 57 57 56 56 57 57 57 56 57 55 52 45 58 67 65 47 36 29 39 33 27 21 20 21 26 32 35 43 39 36 35 36 43 46 47 52 51 61 63 63
55 55 56 56 56 56 56 56 55 56 57 57 57 56 54 46 43 52 43 37 26 28 35 36 27 25 21 21 23 30 28 29 39 35 35 35 37 35 47 50 49 53 61 61 62
55 55 55 55 55 56 55 55 55 55 57 57 57 54 50 44 37 39 28 29 24 30 36 30 27 24 25 28 27 30 30 27 34 38 35 38 39 35 42 53 55 58 61 62 61
55 55 55 55 55 55 55 55 55 55 58 57 57 55 47 42 41 34 29 32 29 37 38 29 28 28 30 34 35 28 30 31 39 40 41 39 30 42 44 44 46 59 60 61 61
54 54 54 54 55 55 55 54 55 55 59 58 57 54 43 46 35 36 35 35 35 33 30 27 32 35 37 34 29 30 30 39 40 38 39 39 36 46 45 48 49 55 56 59 59
54 54 54 54 55 54 54 55 56 57 58 57 54 46 46 37 33 33 34 36 31 29 27 34 32 33 33 30 26 28 36 41 40 41 36 35 39 45 48 49 54 58 58 58 58
54 54 54 54 54 53 50 47 47 52 52 47 42 32 27 36 33 32 29 34 31 28 25 30 28 27 28 28 27 25 25 37 41 41 37 38 38 44 45 48 50 58 56 58 58
53 53 54 54 53 52 51 41 31 29 27 27 25 26 28 32 33 32 30 30 31 28 27 25 22 24 26 24 23 21 19 23 28 39 38 35 33 46 47 47 43 53 55 59 59
52 53 53 52 52 50 39 35 31 30 28 26 23 21 23 21 32 33 30 27 28 28 27 23 21 21 19 17 14 14 16 19 23 24 29 32 34 46 47 46 43 53 54 55 55
53 52 52 51 45 38 36 34 30 30 29 23 19 18 18 17 17 29 29 26 26 26 28 27 25 22 21 15 13 10 15 12 19 21 20 27 23 44 46 43 44 48 51 54 56
52 52 51 50 43 38 36 31 28 32 24 21 14 18 15 14 18 17 28 25 24 25 28 28 27 25 22 18 14 12 12 13 26 23 23 24 23 41 45 43 44 47 53 51 53
51 51 50 45 46 44 41 35 32 28 23 17 14 12 12 14 14 16 25 28 28 27 27 27 25 23 18 16 15 17 17 22 25 21 19 21 25 37 42 43 45 47 51 48 53
50 49 48 43 37 34 32 34 25 23 21 10 15 14 15 12 12 12 25 29 29 27 28 28 24 23 21 21 21 19 29 21 23 23 22 38 34 37 41 44 46 46 49 59 65
48 49 48 43 35 34 37 31 26 21 16 14 13 14 14 14 14 11 16 27 30 28 27 26 24 26 20 21 19 22 21 23 21 25 27 38 35 47 48 44 48 59 62 59 59
48 42 43 42 43 40 37 27 24 24 20 15 13 14 13 10 11 13 11 14 15 26 25 27 27 28 23 19 19 19 25 24 22 23 22 35 39 42 49 46 46 60 60 57 56
45 41 36 38 40 38 34 29 22 18 14 15 15 17 15 12 8 9 17 16 17 20 27 25 26 27 24 20 22 18 23 19 24 21 21 33 40 43 47 43 50 54 59 57 60
46 41 40 36 37 34 26 23 19 18 16 18 16 16 16 16 13 9 15 17 20 20 25 25 28 25 27 26 25 25 22 22 24 25 19 30 38 47 47 53 52 52 59 60 59
41 35 34 34 33 31 25 24 27 18 18 17 19 17 16 16 16 17 17 17 16 20 20 25 31 27 25 24 23 20 22 23 25 25 33 34 38 46 50 49 53 56 56 62 62
39 39 37 34 30 26 25 19 19 18 18 16 17 19 17 17 22 26 24 22 20 23 28 39 25 23 23 27 26 21 22 26 32 35 27 31 39 49 54 54 51 48 57 62 61
39 37 36 37 35 32 30 26 21 19 16 16 17 21 20 18 22 26 20 21 21 36 55 41 36 25 21 30 32 31 28 23 27 28 25 26 43 48 49 48 53 52 53 59 61
41 39 40 34 33 36 35 27 23 25 27 19 25 23 21 22 20 23 22 19 19 42 30 34 34 37 35 32 25 28 27 27 27 25 28 28 41 45 52 51 53 61 59 62 63
39 38 38 36 39 36 37 37 30 23 28 27 24 20 20 25 29 26 24 29 33 33 29 33 37 39 37 35 33 30 30 32 28 24 22 35 45 51 50 54 58 55 56 54 63
41 42 39 36 33 30 32 31 28 29 23 27 27 22 20 20 36 35 30 32 37 46 39 40 36 40 34 37 36 31 37 37 37 37 32 36 43 50 48 53 60 59 58 62 62

GFSSW_sfc_dewp_006.txt.gz
Dewpoint
57 57 57 58 58 58 58 58 58 58 58 58 57 58 57 58 58 55 39 38 43 70 68 43 49 41 45 46 38 38 46 48 48 48 47 51 51 53 52 54 56 57 58 61 66
57 57 57 57 57 57 58 58 58 58 57 57 56 57 57 58 54 45 54 65 67 71 33 43 44 46 45 38 35 35 42 46 48 48 45 45 48 48 47 51 54 59 66 65 67
56 56 57 57 57 57 58 57 57 57 56 57 56 57 58 57 52 46 68 69 70 64 29 39 38 39 38 33 29 35 40 44 42 45 44 43 43 46 46 46 50 61 65 65 67
56 56 57 57 57 57 57 57 57 56 56 57 57 58 57 55 40 50 70 70 70 43 31 28 33 34 28 23 25 23 34 37 40 43 47 46 44 46 47 45 50 65 66 65 66
56 56 56 56 56 57 57 57 56 56 56 57 57 58 55 49 44 57 68 67 47 34 25 28 39 34 25 21 22 22 24 29 36 43 42 43 45 47 48 51 54 66 65 65 67
55 55 55 56 56 56 56 56 56 56 56 57 58 57 53 42 49 58 47 42 31 30 31 36 35 30 25 23 24 23 27 31 38 40 41 36 43 44 50 52 60 64 64 63 66
55 55 55 55 55 55 56 56 55 55 56 57 57 55 51 30 43 50 32 28 26 27 33 37 36 26 28 27 34 34 31 31 38 41 39 38 37 34 51 50 60 62 63 63 64
54 54 55 55 55 55 55 55 55 55 55 57 57 55 34 44 40 32 28 31 27 24 35 39 37 26 29 35 36 34 34 33 35 39 40 37 34 43 53 54 58 57 56 59 62
54 54 54 55 55 55 54 54 56 55 56 57 55 54 43 48 36 33 29 33 30 27 35 33 31 31 36 34 31 29 27 36 34 38 40 37 38 44 50 57 53 54 55 56 61
54 54 54 54 54 54 53 55 57 57 57 57 55 41 38 40 34 35 33 34 33 31 28 32 32 32 32 31 26 28 37 37 37 37 38 39 35 38 49 55 55 54 59 59 62
54 54 54 53 53 53 51 44 35 35 52 46 36 38 34 38 34 33 35 35 34 28 25 29 28 26 28 30 31 29 27 33 37 39 40 36 40 43 55 56 55 54 56 56 57
53 53 53 53 52 52 49 38 30 27 25 30 33 32 35 33 29 31 29 30 31 27 30 25 24 26 29 28 28 26 21 24 31 39 39 37 37 47 51 54 52 51 53 55 58
53 53 52 52 51 47 39 35 35 32 27 28 25 23 22 25 25 33 27 30 30 29 28 24 22 25 24 23 20 15 13 15 16 25 39 35 34 43 46 50 49 52 55 58 59
52 52 52 51 41 40 35 35 35 31 26 25 25 21 21 22 20 37 29 30 27 27 29 27 28 26 24 21 18 12 15 16 14 22 18 29 21 40 44 43 50 51 54 56 59
51 51 51 50 42 39 36 34 37 31 5 22 18 21 19 18 19 23 32 27 25 25 27 28 29 28 27 25 20 14 15 14 20 24 22 23 20 26 43 39 41 51 54 56 59
50 50 50 45 44 44 39 32 29 23 11 22 14 15 14 16 16 20 29 28 28 26 26 26 28 28 25 24 21 21 22 22 26 22 18 21 20 25 42 40 44 47 50 47 59
49 49 48 44 29 35 34 30 20 22 22 16 13 12 12 12 14 15 27 26 26 25 25 27 26 28 27 21 20 19 18 17 18 19 19 26 33 33 45 45 45 46 48 49 51
48 49 47 45 42 37 35 24 20 20 19 17 14 14 13 14 13 15 27 26 29 30 28 27 26 26 27 21 18 17 17 19 17 20 25 31 32 39 49 49 50 46 52 64 65
48 43 43 44 45 38 31 23 19 24 21 16 15 16 13 15 15 14 21 25 26 29 26 25 26 29 28 24 19 19 19 20 18 23 21 26 38 43 46 47 60 61 61 61 61
44 42 38 41 40 36 30 28 24 22 18 17 19 17 14 14 12 13 14 18 25 30 26 24 22 21 24 26 22 16 18 16 20 18 16 26 39 37 44 49 59 61 58 58 61
43 38 40 40 34 30 24 25 21 18 19 18 17 16 16 19 16 14 12 16 15 16 27 24 24 22 28 25 20 21 19 19 20 22 18 25 35 44 46 51 53 57 60 60 61
40 33 35 35 30 28 24 25 28 19 21 20 18 17 14 18 16 15 16 21 20 14 23 25 25 23 23 26 26 23 20 19 19 14 29 32 37 47 48 54 56 58 62 63 63
36 38 39 32 25 25 24 22 20 18 19 19 17 21 16 17 12 20 21 22 21 31 20 25 25 22 20 21 25 23 20 22 25 27 24 24 34 49 51 51 55 57 56 63 64
38 37 36 35 32 30 29 28 27 27 23 19 17 17 17 17 16 13 15 17 19 22 53 41 27 20 18 19 30 28 28 27 26 25 21 25 41 48 50 47 54 55 55 61 63
40 38 36 34 34 35 36 35 29 26 25 28 24 18 18 16 17 14 14 18 21 40 29 31 25 31 30 34 35 35 31 34 30 25 22 25 42 46 50 50 53 55 56 59 55
39 38 39 35 35 30 34 33 33 31 29 25 25 23 17 17 19 18 19 21 26 36 34 33 23 42 32 35 35 35 34 39 33 32 27 42 45 50 51 54 55 54 56 57 58
40 40 39 37 28 27 28 36 35 39 39 39 37 25 23 19 20 31 30 28 29 41 37 42 31 34 32 37 36 32 34 36 37 37 34 36 43 52 53 55 56 55 54 52 57

GFSSW_sfc_dewp_009.txt.gz
Dewpoint
57 57 57 57 58 58 58 58 58 58 57 56 57 56 58 58 58 55 37 36 39 70 68 56 57 42 45 46 42 46 41 45 48 47 47 52 52 53 53 54 56 55 59 62 67
57 57 57 57 57 57 57 57 57 57 57 56 56 56 58 58 54 46 54 65 67 72 37 41 44 46 45 43 36 34 38 42 47 49 48 51 51 51 50 53 56 61 65 64 68
56 57 57 57 57 57 57 57 57 57 57 57 57 57 58 57 52 46 65 68 69 68 28 42 41 45 42 35 32 37 34 42 41 47 47 49 50 52 49 49 51 61 63 64 67
56 56 56 56 57 57 57 57 57 57 56 57 58 57 58 55 42 50 69 69 70 50 28 28 32 32 32 27 25 25 34 34 34 33 45 44 44 45 47 45 50 64 64 66 66
55 55 56 56 56 56 56 56 56 56 56 57 58 58 54 44 38 61 70 69 48 33 24 28 36 35 28 22 22 21 24 29 30 38 44 46 45 45 46 54 64 64 65 66 66
55 55 55 55 55 55 56 56 56 56 56 57 58 57 53 31 51 57 50 36 31 28 28 33 37 32 28 26 26 25 28 34 33 38 43 42 43 45 52 64 65 64 65 65 66
54 54 54 54 55 55 55 55 55 55 56 56 57 55 49 19 49 47 37 33 28 30 32 36 37 30 28 25 32 34 32 32 34 38 37 40 42 38 51 64 64 64 64 64 65
54 54 54 54 54 54 55 55 54 56 55 56 57 54 38 40 48 36 29 27 28 24 32 38 39 34 28 33 34 33 35 33 34 39 40 36 36 50 55 62 62 62 62 63 64
53 54 54 54 54 54 54 54 57 56 56 57 54 53 39 48 34 33 29 31 28 25 27 34 34 31 36 33 31 30 25 32 35 39 40 37 37 51 57 59 58 58 59 61 62
54 54 54 54 54 53 53 53 57 57 57 57 55 37 27 40 36 30 29 36 34 33 30 31 32 31 32 32 17 27 33 31 33 38 38 36 41 51 57 55 56 55 57 57 58
53 53 53 53 53 52 51 43 32 31 50 35 28 31 33 37 37 33 34 36 36 27 23 28 26 24 28 31 32 31 29 28 30 32 37 36 40 46 52 53 52 53 58 56 59
52 53 52 52 52 52 48 37 33 29 25 28 34 37 37 36 27 32 33 32 32 28 28 24 22 26 28 28 29 28 27 22 23 30 37 36 44 52 55 54 53 51 55 58 59
52 52 52 52 51 43 35 35 36 38 28 26 27 25 22 27 26 27 30 30 31 28 27 24 22 27 26 25 23 21 17 14 14 21 36 37 39 45 48 53 52 51 52 56 57
51 51 51 50 37 39 35 38 32 33 21 19 25 23 21 24 24 30 29 30 31 28 29 27 28 27 29 25 22 18 19 16 14 19 14 29 20 40 43 48 48 48 53 55 58
51 51 50 50 42 36 36 37 32 28 4 17 20 22 21 21 23 34 30 28 27 26 27 26 30 29 28 27 22 21 22 16 22 23 22 23 18 22 42 41 48 49 52 55 56
50 50 49 44 42 40 40 33 28 12 5 16 18 17 16 17 17 29 29 28 29 26 26 26 29 28 27 27 26 25 20 21 26 21 16 19 20 25 42 41 42 47 51 54 55
49 49 48 44 23 35 35 26 16 14 15 16 14 13 14 14 15 23 28 26 25 21 23 26 25 27 28 28 26 19 17 15 15 16 13 29 30 32 40 45 44 45 49 52 59
48 49 48 46 43 37 31 22 13 11 19 18 15 15 12 14 16 19 27 27 27 28 28 25 23 28 30 26 24 17 15 16 12 17 18 28 27 37 47 48 50 47 49 55 58
48 42 42 44 45 37 27 16 10 19 21 17 15 14 13 14 15 14 24 24 25 29 25 26 25 30 28 25 22 24 19 18 18 21 19 24 35 43 46 56 58 56 63 63 63
43 42 40 42 41 34 26 23 21 24 18 17 17 16 13 13 12 14 17 21 25 28 28 27 23 21 24 26 27 21 21 18 19 18 19 21 37 37 43 54 60 59 60 62 62
41 36 37 42 34 29 24 25 25 20 21 19 20 17 16 15 15 14 12 17 25 23 28 26 22 20 25 25 22 20 19 20 20 20 17 19 31 42 45 49 59 60 60 61 57
37 31 37 34 23 28 23 24 29 21 18 18 21 18 17 16 13 14 14 19 20 23 28 27 24 23 20 25 26 21 18 20 20 16 26 29 29 47 46 49 55 60 60 61 61
34 37 40 32 23 24 25 23 22 18 21 20 19 20 19 16 11 14 20 20 18 20 20 24 22 18 16 21 24 24 23 22 24 21 26 23 23 51 51 54 58 60 61 62 62
37 35 36 36 33 32 32 32 29 29 25 22 19 20 20 17 14 15 18 14 16 19 54 36 23 17 14 20 27 30 32 25 23 23 22 23 23 48 49 50 56 56 60 63 63
40 37 37 33 33 35 36 35 33 30 29 28 26 25 24 17 18 16 19 18 21 38 36 28 26 26 26 25 33 33 33 32 27 24 23 25 31 38 48 51 54 54 58 62 61
38 37 37 35 35 28 32 33 34 37 34 30 35 38 33 19 18 15 20 22 21 30 36 39 21 40 31 34 36 34 34 37 35 34 31 33 35 45 50 52 53 53 55 58 58
39 39 38 35 32 29 30 36 36 39 40 40 39 38 30 33 36 25 21 29 29 39 36 42 31 30 28 37 34 26 33 36 38 39 36 35 37 50 50 50 52 53 55 57 58

GFSSW_sfc_dewp_012.txt.gz
Dewpoint
57 57 57 57 57 58 58 58 58 58 57 57 56 56 56 58 58 54 26 33 41 66 68 58 52 43 46 45 43 47 37 46 47 46 44 52 51 53 53 53 56 55 62 64 70
57 57 57 57 57 57 57 57 58 57 57 57 57 56 57 58 54 46 51 60 63 71 37 46 42 46 45 43 36 34 35 41 47 49 46 51 51 51 51 53 56 59 64 68 72
56 56 56 56 57 57 57 57 57 57 57 57 58 57 58 57 51 44 64 63 67 68 30 44 39 45 38 35 33 38 31 41 43 49 48 50 51 51 50 49 53 57 63 67 71
55 55 56 56 56 56 56 56 56 56 57 57 58 58 58 55 42 50 68 69 67 59 28 32 31 32 32 27 26 25 30 33 30 43 47 47 49 50 51 48 52 61 64 67 69
55 55 55 55 55 55 56 56 56 56 56 56 58 58 53 41 35 62 69 70 55 36 24 30 35 35 27 23 24 24 22 26 30 32 40 46 45 49 47 53 58 64 64 66 67
55 55 55 55 55 55 55 56 56 55 56 56 57 57 51 19 52 62 55 38 34 26 25 37 37 35 28 27 26 26 29 31 33 34 43 44 44 46 55 63 63 64 64 65 66
54 54 54 54 54 55 55 55 55 55 56 56 57 55 44 12 50 47 34 32 30 26 29 34 39 31 28 24 31 35 32 33 34 38 38 41 41 42 58 63 63 63 65 66 67
53 53 54 54 54 54 54 54 54 58 56 56 57 53 28 41 50 40 33 25 27 27 31 37 39 35 28 31 33 31 32 32 32 38 39 36 35 45 62 63 63 64 65 65 66
53 53 53 54 54 54 53 53 56 56 57 57 53 50 23 47 35 34 28 25 25 23 26 30 33 32 35 31 26 28 26 30 32 38 39 37 34 51 59 63 63 64 64 64 65
53 53 53 53 53 53 53 53 57 56 56 57 55 27 26 39 36 30 27 32 32 30 30 31 31 30 32 30 9 23 30 30 31 31 38 35 36 53 57 60 60 60 62 62 61
53 53 53 53 53 52 50 40 31 32 41 29 29 24 30 36 37 31 32 33 31 26 23 27 24 23 26 32 32 32 30 28 28 29 36 36 42 50 56 55 57 58 59 59 58
51 52 52 52 52 52 45 33 33 33 28 27 30 37 38 34 27 33 35 33 33 28 26 24 22 24 27 28 29 30 28 24 22 24 36 39 41 50 54 54 55 56 55 56 61
51 52 52 51 51 42 37 34 36 32 27 24 27 28 26 27 24 28 33 32 30 28 25 23 23 27 26 26 25 23 21 19 15 18 33 39 35 46 49 54 54 54 53 55 58
51 51 51 50 34 39 35 39 34 32 15 12 22 22 22 24 23 31 32 30 30 28 28 27 28 28 29 27 23 23 22 20 16 19 9 28 19 26 44 45 50 52 51 55 59
51 51 50 50 40 28 36 35 32 24 4 16 21 22 22 22 24 29 31 30 27 27 27 21 29 28 30 27 23 24 23 19 22 22 22 22 17 23 42 41 42 49 50 55 57
50 49 49 44 40 37 37 34 23 2 1 15 19 17 18 18 19 31 28 28 30 26 29 25 29 28 26 28 26 28 21 20 24 20 15 20 20 25 35 40 42 48 50 54 55
49 49 48 45 20 36 36 24 7 3 12 16 14 14 14 15 17 30 27 25 26 23 23 25 25 25 26 26 28 20 18 15 15 14 13 27 29 28 37 43 46 46 49 53 58
48 49 47 46 42 38 27 18 2 4 14 19 16 15 14 13 15 24 28 27 29 25 26 23 20 27 29 24 23 20 19 17 11 14 17 29 26 31 44 48 51 49 51 60 61
48 41 41 42 46 37 23 10 -2 12 22 17 16 13 12 14 14 17 24 27 28 28 23 25 25 29 28 24 24 24 18 18 19 22 18 21 30 39 47 57 49 54 55 60 62
42 41 39 43 42 32 21 19 15 23 19 18 17 16 13 13 12 13 19 20 22 29 26 24 22 24 26 26 27 23 23 18 19 15 14 21 33 34 41 53 58 60 59 61 62
39 33 36 42 34 29 20 22 24 24 17 16 19 17 16 15 14 12 13 17 25 25 28 25 23 21 22 23 23 20 19 20 20 20 17 19 25 40 42 51 57 58 61 62 61
35 32 39 32 25 28 24 25 28 21 16 17 22 21 20 16 13 15 13 16 20 22 26 26 23 23 20 23 28 23 21 20 20 18 26 24 24 46 46 50 59 60 61 62 58
35 37 40 33 19 22 24 23 24 21 22 21 20 22 20 19 16 17 20 20 17 17 20 26 24 21 19 17 26 25 23 23 23 25 29 25 24 47 50 51 57 60 61 61 62
38 33 35 35 32 32 33 32 31 31 26 24 21 22 21 18 18 16 15 17 19 21 55 34 22 23 15 16 25 30 30 26 23 22 22 22 24 37 48 51 57 60 61 62 62
39 36 37 32 33 33 33 34 33 35 36 30 28 31 35 26 18 16 19 17 21 40 35 28 26 24 22 22 30 33 33 27 27 27 29 31 26 32 46 50 55 58 62 62 62
38 36 36 34 34 28 34 35 35 36 37 33 37 39 39 23 23 24 19 19 22 28 37 38 23 37 30 35 34 34 35 34 35 31 30 33 32 41 47 53 54 56 61 61 62
38 37 37 32 33 28 31 35 36 38 38 39 40 40 37 31 41 41 34 25 24 34 33 40 32 28 26 35 32 24 32 35 37 38 36 36 37 50 50 51 53 54 59 58 60

GFSSW_sfc_dewp_015.txt.gz
Dewpoint
57 57 57 57 57 57 58 58 58 58 58 57 58 57 56 58 58 52 24 32 41 62 65 53 42 41 46 45 41 45 43 46 44 43 38 48 47 52 52 52 53 57 59 63 70
56 56 57 57 57 57 57 57 57 57 57 57 57 58 57 58 52 42 51 59 61 68 44 39 38 46 43 39 36 34 40 42 44 46 38 44 48 50 50 51 53 55 63 67 71
56 56 56 56 56 56 57 57 57 57 57 57 57 59 58 57 50 44 66 63 64 66 29 44 39 41 37 35 32 35 35 39 36 44 45 39 46 50 49 49 52 54 62 69 70
55 55 55 55 56 56 56 56 57 56 56 57 57 58 58 55 37 49 66 67 70 53 27 36 32 33 30 27 24 27 28 34 26 33 42 40 46 48 50 47 50 54 63 68 69
55 55 55 55 55 55 56 56 56 56 56 56 57 58 55 34 24 60 69 67 55 37 23 33 32 34 26 24 24 22 23 27 28 31 33 37 42 45 49 50 51 57 64 67 68
54 54 54 54 55 55 56 56 56 55 56 56 57 58 51 17 49 60 54 42 37 27 22 35 36 34 28 25 25 27 31 32 33 35 40 41 43 45 49 53 56 61 63 65 66
53 53 53 54 54 54 55 55 54 55 57 56 57 55 42 15 49 48 36 32 32 23 24 31 37 32 29 25 32 34 29 31 35 37 37 41 40 43 52 59 59 61 64 65 66
53 53 53 53 53 54 54 54 55 57 56 56 57 55 26 42 47 40 30 30 27 28 32 36 37 34 29 33 30 29 30 26 31 37 39 37 32 42 60 59 59 61 63 64 67
52 52 53 53 54 54 53 54 56 57 57 57 56 52 18 48 40 39 30 21 23 22 23 28 33 34 34 28 20 28 21 28 31 35 33 37 33 50 61 61 60 62 64 64 66
52 52 53 53 53 53 53 53 58 57 57 56 54 36 29 35 36 31 28 27 27 24 28 30 33 31 34 25 7 17 25 29 30 29 28 30 34 44 59 61 61 62 65 65 64
52 52 53 53 53 52 50 44 34 31 36 30 29 20 25 33 35 29 27 32 30 29 27 29 23 21 24 32 29 31 27 27 28 28 30 33 37 46 55 59 60 62 64 64 62
51 52 52 52 52 52 46 32 32 33 28 29 28 30 34 34 28 32 33 34 32 28 26 26 22 24 26 31 29 27 25 24 25 22 33 35 36 45 52 55 57 59 62 62 62
51 52 52 52 51 42 38 35 35 34 28 24 26 27 25 29 24 31 33 34 33 30 27 26 23 26 26 26 26 25 24 24 21 21 33 37 32 41 47 53 55 55 57 59 60
51 51 51 50 37 37 36 38 33 33 21 13 19 22 25 25 21 30 34 32 31 30 30 28 28 25 27 26 25 26 25 23 22 21 15 28 16 35 38 44 48 53 55 54 57
50 50 50 50 39 27 34 34 32 29 11 13 21 23 22 21 25 29 33 30 30 30 30 22 27 28 28 27 27 27 24 24 22 20 25 23 19 26 38 38 42 50 54 54 58
50 49 49 44 40 34 35 33 28 11 9 15 18 17 18 19 23 29 31 30 31 29 28 26 28 27 25 28 26 26 23 24 26 23 17 24 21 24 31 39 43 46 52 54 56
49 49 48 44 24 37 36 28 11 5 13 16 14 15 15 15 20 29 29 29 27 29 29 27 25 26 26 25 27 25 26 24 17 17 16 31 28 30 35 41 45 47 50 53 56
48 48 47 45 43 40 30 21 14 4 9 17 15 15 13 14 17 28 29 28 28 27 26 21 14 26 28 25 23 26 28 22 18 16 18 31 25 29 43 48 50 51 50 51 53
48 42 40 40 44 41 29 13 8 9 20 16 16 15 14 14 14 21 28 26 28 30 26 25 23 28 28 27 25 25 25 23 26 27 21 23 28 36 48 51 49 49 50 52 57
44 41 39 43 43 34 27 22 13 17 19 18 16 17 15 14 15 17 24 22 24 29 32 29 21 23 23 26 26 26 26 24 25 25 21 23 30 28 42 47 50 50 50 57 64
39 35 39 41 36 32 20 21 22 23 16 14 18 17 16 16 14 15 18 18 23 26 30 28 27 19 24 24 23 24 24 25 25 25 20 21 23 42 44 48 52 53 54 59 62
36 32 40 36 28 30 25 26 29 19 16 16 20 20 18 18 15 15 13 17 17 25 26 30 29 25 21 24 26 25 27 30 23 30 29 27 22 36 47 48 56 55 58 61 63
38 37 41 36 20 27 25 21 22 22 22 20 20 20 21 20 22 17 16 18 16 22 30 32 30 23 23 22 27 26 26 28 34 35 35 25 23 39 50 51 57 57 60 61 61
40 33 36 37 35 32 33 30 23 32 27 26 25 26 27 24 23 22 17 16 18 24 54 40 35 33 15 20 26 30 26 27 30 28 30 25 28 35 41 50 57 61 62 61 61
40 37 38 29 33 33 34 35 33 33 37 36 28 37 36 29 23 22 19 21 19 44 37 36 36 32 28 24 21 25 32 26 31 34 28 34 32 39 43 49 54 60 64 62 60
38 37 35 35 34 30 36 37 35 35 36 34 36 38 39 33 26 28 35 30 25 31 39 41 36 37 32 34 24 22 25 32 31 30 31 33 36 40 49 54 56 60 62 63 62
39 40 38 32 33 30 34 36 35 38 37 39 38 40 38 36 40 41 42 41 39 37 36 43 41 36 28 35 34 32 31 34 35 37 35 35 41 47 49 52 57 61 62 62 62

GFSSW_sfc_dewp_021.txt.gz
Dewpoint
57 57 57 57 58 58 58 58 58 58 58 58 58 58 59 59 59 51 30 37 39 65 62 32 28 21 29 43 40 40 37 35 31 30 32 33 35 39 44 47 49 50 52 56 62
57 57 57 57 58 58 58 58 58 58 58 58 58 58 59 59 52 38 51 62 62 63 41 25 15 18 34 40 38 36 37 32 31 30 30 32 32 35 40 45 50 52 57 60 62
56 56 56 56 56 57 58 58 58 58 58 57 58 58 59 58 48 40 62 61 61 58 34 26 23 26 33 38 36 35 31 29 27 28 27 30 32 36 36 39 46 52 58 61 62
55 55 55 55 56 56 57 57 57 57 57 57 58 58 60 53 35 46 65 64 65 48 28 28 25 22 28 35 34 32 30 29 26 26 26 28 30 33 36 41 46 50 58 61 61
55 55 55 55 55 56 56 56 57 57 57 57 58 58 53 39 37 50 67 60 43 25 25 26 21 22 26 31 32 33 29 30 30 30 31 30 30 32 34 40 48 51 57 60 60
54 54 54 55 55 56 56 56 56 57 57 58 58 58 47 24 42 42 35 37 28 23 27 26 24 26 26 28 30 31 31 31 30 30 30 30 31 34 41 45 46 52 56 57 59
53 54 54 54 54 55 55 55 55 57 59 59 57 52 34 23 42 40 32 29 24 19 26 31 28 22 25 27 29 29 30 30 28 29 27 28 29 34 38 47 46 51 55 56 60
53 53 53 54 54 54 55 55 55 58 57 57 58 49 26 31 39 38 33 28 25 20 30 32 30 24 24 26 26 28 27 23 28 26 28 24 30 33 41 45 47 52 54 56 60
52 53 53 53 54 54 54 54 57 59 58 58 55 41 25 45 31 36 32 26 21 24 31 31 28 23 19 14 12 16 16 21 19 25 24 22 25 34 42 46 48 54 55 58 62
52 53 53 53 54 54 53 54 57 58 57 51 46 37 26 15 23 34 33 22 17 21 26 28 23 18 12 10 7 10 9 8 15 21 23 20 22 23 36 42 48 54 58 60 62
52 53 53 53 53 53 49 46 45 44 43 26 27 17 18 30 31 30 31 23 23 20 22 25 17 10 12 15 18 18 13 12 13 17 22 21 23 23 31 36 46 54 60 60 62
51 52 53 52 52 52 47 33 30 30 24 21 19 22 25 30 24 25 27 23 22 20 22 22 13 15 17 15 15 14 15 15 16 21 22 20 22 23 27 36 42 51 59 59 61
51 52 52 52 51 46 34 31 30 30 25 17 18 15 17 27 24 25 24 24 24 21 21 18 19 20 16 14 15 14 14 15 18 21 19 20 23 23 26 36 44 46 54 58 61
51 51 51 51 43 26 30 34 30 32 22 17 14 13 13 22 22 28 25 26 27 24 21 19 17 17 16 15 16 17 19 18 17 19 16 22 13 28 26 32 42 45 49 54 61
51 51 51 50 40 22 35 29 30 32 16 15 13 19 14 17 18 24 28 28 29 25 26 20 19 20 18 16 17 20 25 20 21 20 19 18 15 22 27 23 33 37 48 51 59
50 50 50 44 40 26 24 29 33 22 12 13 15 13 13 14 18 23 30 30 29 27 26 24 22 21 19 20 22 22 23 22 22 18 15 19 18 16 24 33 30 39 46 51 56
49 49 48 40 26 26 26 30 21 15 13 13 13 11 12 13 14 26 28 30 27 28 27 23 22 20 21 21 23 22 22 18 18 17 16 25 19 22 25 29 33 37 46 51 54
48 49 47 35 33 30 30 26 23 11 10 16 13 11 10 11 15 22 27 27 26 24 21 22 18 20 22 21 21 23 23 18 21 15 22 25 20 29 30 32 38 43 47 51 53
48 42 34 33 33 31 28 21 19 16 9 12 14 14 13 10 13 22 24 24 24 25 27 19 18 19 20 18 19 21 21 19 20 20 16 17 20 25 29 32 38 43 46 50 52
41 31 31 37 35 28 24 23 16 10 13 13 15 15 16 15 13 20 22 22 22 23 26 24 23 20 20 20 20 22 23 21 19 24 21 20 24 24 34 35 42 43 46 49 52
42 29 34 28 28 23 15 19 17 13 14 12 12 17 18 16 14 15 18 19 19 22 23 21 25 20 20 22 19 23 22 23 18 23 24 25 30 35 33 35 42 43 47 50 53
37 24 31 30 19 17 14 16 26 12 14 11 17 15 17 18 18 18 16 20 17 18 20 22 24 23 20 18 17 18 24 26 22 29 24 24 26 32 31 36 35 43 48 55 58
36 28 30 29 14 13 17 15 16 12 13 9 10 18 20 20 23 18 18 16 15 19 24 26 24 23 25 19 21 20 18 22 29 33 34 30 26 35 37 36 41 44 49 59 59
39 23 25 23 23 28 22 23 17 12 11 12 12 17 21 21 26 23 18 16 15 17 54 41 28 29 16 26 28 25 20 20 25 27 26 21 27 36 35 37 49 49 53 60 62
36 32 33 19 20 24 24 21 16 19 20 21 19 18 17 22 22 23 19 17 16 37 29 32 34 29 26 19 17 20 19 20 22 25 26 28 37 42 42 43 48 52 59 60 62
37 35 27 30 35 28 31 27 21 16 24 20 20 16 15 23 23 22 22 25 23 24 27 33 35 33 28 22 17 17 17 18 20 23 26 27 34 48 46 49 46 54 59 60 61
34 38 37 35 28 27 25 25 25 22 27 30 25 21 25 27 28 34 36 39 39 37 34 37 35 33 30 24 20 23 22 19 21 25 26 27 33 40 40 49 50 54 59 59 59

GFSSW_sfc_dewp_024.txt.gz
Dewpoint
57 57 57 58 59 59 59 59 59 58 58 58 59 59 60 60 59 53 36 38 42 66 60 38 27 23 20 22 38 39 45 43 28 30 30 33 37 36 38 44 47 48 51 57 61
56 57 57 57 58 58 58 58 58 58 58 58 58 59 60 60 54 40 44 65 63 62 25 28 16 14 19 33 38 44 49 44 28 28 28 30 30 33 41 48 54 52 57 59 61
56 56 56 56 56 57 58 58 58 58 58 58 58 59 59 58 51 41 59 63 61 54 39 26 20 20 26 34 36 43 46 43 27 26 25 27 31 33 38 47 55 54 57 59 60
55 55 56 56 56 56 57 57 57 57 57 58 58 59 59 54 39 39 63 63 65 44 36 26 23 22 27 32 34 37 38 27 24 25 26 27 27 29 34 44 53 55 58 59 59
55 55 55 55 56 56 56 56 57 57 57 58 59 59 52 45 40 41 65 57 41 38 23 24 21 21 22 30 30 31 26 25 27 27 28 29 28 31 31 45 46 55 59 59 59
54 54 55 55 55 56 56 56 56 57 58 59 60 58 50 30 43 35 36 33 38 22 23 24 22 24 26 27 28 31 30 28 28 29 29 27 34 32 38 39 47 54 58 59 59
54 54 55 54 54 55 56 56 56 57 59 59 59 51 37 25 39 38 33 29 24 19 23 27 28 24 22 26 28 29 25 27 29 27 23 33 35 34 36 43 46 50 54 58 61
53 53 54 54 54 54 55 55 55 57 60 59 59 50 34 27 34 36 32 27 23 17 26 29 28 24 21 26 23 22 25 23 23 28 25 21 36 32 35 40 43 48 52 55 60
53 53 54 54 54 54 54 54 55 59 61 60 54 46 26 43 22 33 30 25 21 19 27 27 25 23 19 15 15 18 17 19 26 24 21 20 21 32 34 39 44 50 52 55 60
53 53 53 54 54 54 53 53 56 56 58 53 47 36 30 23 17 29 30 26 19 19 23 25 23 19 14 11 7 12 10 8 21 17 23 20 19 21 32 34 45 52 54 57 60
53 53 53 53 53 53 48 36 43 45 39 27 26 14 19 25 23 28 30 24 18 16 18 22 16 12 9 12 16 15 16 12 13 13 18 21 21 22 25 29 35 56 57 59 61
52 52 53 53 52 52 48 35 29 27 25 25 25 23 19 26 23 22 27 21 21 17 17 21 14 13 16 16 12 11 10 12 14 14 22 20 19 21 21 31 36 51 58 57 60
52 52 52 52 52 45 31 31 29 25 22 15 13 14 17 20 23 18 25 20 20 17 17 17 14 18 16 9 9 10 11 13 16 19 20 21 21 26 23 33 35 34 57 56 60
51 52 51 51 44 33 22 33 25 27 20 12 13 13 10 15 17 22 23 20 22 19 18 18 15 17 16 10 12 15 17 14 14 16 16 20 18 33 29 33 37 41 47 54 61
51 51 51 50 40 28 33 27 26 29 16 6 13 10 8 14 14 21 24 21 23 22 24 20 16 16 13 12 13 14 23 23 17 18 19 16 14 34 39 28 36 38 46 51 60
50 50 50 43 45 31 23 24 28 22 12 12 13 13 8 11 12 18 25 23 27 27 24 23 22 17 16 14 15 17 21 20 19 17 17 23 14 22 34 39 32 37 47 56 58
50 49 48 42 29 25 23 25 20 16 9 11 12 11 8 9 11 20 25 25 26 27 27 22 20 18 18 18 21 19 21 18 17 17 20 35 25 33 27 32 32 39 47 53 57
48 49 47 36 27 28 26 24 22 13 11 7 10 8 7 7 9 16 23 24 26 25 20 21 17 19 19 19 19 22 22 19 23 16 27 32 32 32 30 33 36 36 48 52 54
48 41 36 35 34 30 25 21 21 20 9 9 10 11 9 7 9 12 23 22 23 25 26 20 21 18 19 20 18 19 19 17 21 20 14 15 29 33 31 30 38 39 48 51 54
43 35 29 29 32 28 22 23 18 13 11 10 12 13 13 9 10 13 21 21 21 22 24 26 23 18 19 19 19 20 19 19 23 25 23 17 33 42 45 47 40 43 48 53 56
43 32 35 30 29 24 17 18 19 15 13 12 12 15 12 12 11 11 18 20 20 21 23 22 25 22 21 22 20 19 22 21 16 23 20 23 37 50 48 50 44 45 47 51 53
42 29 33 24 20 17 15 15 24 14 14 13 15 17 18 18 17 15 14 18 17 19 22 24 23 24 20 20 19 18 20 24 23 31 26 28 29 40 45 43 44 41 45 50 53
42 32 31 24 13 12 16 11 12 15 15 13 10 15 17 23 21 19 19 17 17 18 31 30 24 21 24 22 20 19 19 20 25 37 36 33 42 46 40 39 37 43 48 58 59
42 24 25 23 22 24 24 16 14 15 12 14 13 13 19 21 24 29 18 16 16 16 52 40 33 29 18 25 30 27 23 23 23 26 26 23 38 41 48 50 54 49 56 60 62
40 33 32 17 13 20 26 23 18 18 14 16 16 15 19 23 23 25 22 19 16 39 26 30 35 30 23 20 21 21 23 20 21 23 23 25 33 44 50 50 54 56 62 61 63
32 36 37 29 32 25 27 25 20 19 19 19 21 17 18 22 24 23 21 25 21 21 29 33 36 32 28 25 22 19 16 17 17 18 22 22 29 45 52 50 52 54 59 63 64
34 35 35 36 27 29 25 23 23 25 19 23 24 21 19 22 27 34 35 38 39 38 38 41 36 37 30 27 25 25 20 18 20 20 20 24 38 51 53 56 55 57 60 60 62

GFSSW_sfc_dewp_030.txt.gz
Dewpoint
57 57 57 57 58 57 58 57 58 58 58 58 59 59 60 60 59 56 36 46 47 62 57 15 31 31 31 23 30 50 40 43 39 41 42 43 46 50 52 55 58 58 60 61 68
56 56 56 56 57 57 58 58 58 58 58 58 59 60 60 60 56 50 57 59 61 59 10 25 36 32 20 17 39 46 45 41 43 42 39 44 46 43 48 57 59 59 61 62 67
55 55 56 55 56 56 57 57 57 57 58 58 59 60 60 59 54 49 62 60 59 52 23 27 36 31 24 26 40 45 45 42 44 44 41 43 44 46 45 53 59 58 60 62 64
55 55 55 55 55 55 56 57 57 57 57 57 59 61 60 56 42 39 63 60 61 44 39 38 35 28 26 25 33 35 35 35 34 30 29 39 44 45 44 44 59 60 61 61 62
54 54 54 55 55 55 55 56 56 57 57 57 60 60 53 42 44 50 62 59 42 39 39 39 28 29 26 25 37 37 34 36 35 34 31 34 36 44 47 48 60 61 61 61 62
54 54 54 54 54 55 55 56 56 56 56 57 60 60 50 38 40 44 30 36 34 38 36 29 26 29 26 24 28 30 31 30 29 31 36 34 39 46 50 56 58 60 61 61 62
53 53 53 54 54 54 55 55 55 55 56 57 61 55 46 17 35 34 34 30 33 36 21 20 29 26 26 23 25 24 29 26 26 28 31 32 33 42 49 56 57 58 59 61 62
53 53 53 53 54 54 55 55 55 55 57 57 62 53 31 41 36 37 39 37 33 28 23 19 28 27 29 25 20 18 20 22 25 32 30 23 21 39 51 54 56 58 59 60 64
52 52 52 53 54 54 54 54 55 56 57 59 55 49 37 45 27 35 36 33 29 24 21 18 24 25 23 21 18 16 13 17 21 32 29 23 25 36 51 53 56 57 59 60 63
52 52 53 53 53 53 53 53 53 55 55 52 52 32 35 31 25 23 34 33 29 23 21 29 25 22 21 18 14 14 15 17 29 28 28 24 23 27 41 54 56 57 60 61 61
52 52 53 53 53 53 51 38 30 30 38 36 31 28 26 30 24 21 29 32 28 23 17 21 20 18 17 18 17 15 15 16 20 26 24 19 21 24 37 47 51 58 60 60 60
51 52 52 53 52 52 49 32 33 27 23 25 30 32 33 34 24 26 30 26 29 22 24 18 15 19 21 21 16 17 16 9 16 22 21 21 21 23 31 50 53 59 59 59 61
51 52 52 52 51 48 35 29 31 33 23 24 22 20 21 28 26 25 27 27 26 22 20 19 16 23 22 18 12 9 9 11 13 21 18 25 23 24 30 52 53 59 60 60 61
51 52 51 50 41 39 32 31 25 28 24 21 20 16 17 20 17 25 24 27 25 19 23 19 18 18 19 22 14 9 16 25 23 18 14 20 16 24 34 52 54 58 60 61 66
51 51 51 50 42 29 30 32 28 29 5 23 13 16 15 16 19 19 24 27 22 19 23 22 23 21 21 17 14 10 24 24 24 17 16 17 19 23 42 46 49 57 59 62 67
51 50 50 47 45 41 40 29 28 23 15 19 13 11 12 13 14 17 25 25 26 25 22 23 26 24 19 17 16 25 21 22 26 20 16 18 24 25 33 42 52 55 60 63 65
50 49 48 45 33 37 32 28 19 20 20 11 11 11 9 8 10 14 24 20 18 20 22 27 27 24 24 23 21 19 19 18 18 22 19 27 25 31 37 43 51 52 61 64 65
49 49 47 46 43 37 31 23 19 18 15 13 8 11 8 8 8 12 23 21 23 26 26 24 23 25 25 18 19 19 18 19 17 17 21 26 21 36 43 45 53 61 60 59 64
48 44 43 41 44 37 27 22 18 25 19 16 13 11 12 12 10 10 22 24 22 23 22 26 26 29 24 18 18 19 19 22 19 27 20 23 36 37 44 46 55 59 59 61 64
43 41 36 37 39 30 24 26 21 21 19 18 19 17 13 13 10 9 16 25 25 23 25 24 22 23 24 20 24 16 18 15 19 20 24 25 31 33 40 39 51 52 54 57 63
45 39 37 36 31 27 19 21 19 17 17 17 15 15 18 24 19 8 9 20 25 25 26 24 23 21 26 22 19 19 20 20 18 20 15 18 23 40 44 48 49 50 55 58 58
42 37 35 31 24 25 19 18 24 13 14 12 16 15 18 21 25 29 11 15 23 21 21 24 25 21 22 24 26 23 21 21 25 17 25 25 28 45 46 48 50 52 58 60 60
37 42 35 26 17 18 18 17 14 11 12 12 16 22 21 23 21 29 27 20 28 26 27 26 23 19 19 20 25 26 28 23 25 25 19 20 24 44 48 50 55 53 56 56 57
41 40 30 30 26 27 19 22 23 26 14 13 14 19 17 18 23 24 21 25 23 26 52 41 31 21 19 21 29 27 25 26 25 22 21 25 34 41 47 50 55 54 54 53 56
42 39 34 32 23 24 20 22 21 22 23 17 18 21 18 19 22 32 32 31 29 37 27 28 27 28 28 28 27 29 27 27 25 26 25 24 33 40 47 48 55 53 54 55 53
36 32 32 34 35 30 26 17 19 19 24 15 16 19 35 36 35 33 36 36 37 38 23 28 25 32 24 31 31 30 29 31 31 35 30 39 40 50 50 51 53 54 57 59 60
41 40 35 36 31 29 28 27 26 26 28 39 35 31 37 37 37 37 32 33 39 39 38 39 29 26 20 31 34 26 29 30 37 45 43 33 38 49 52 51 52 56 57 57 59

GFSSW_sfc_dewp_036.txt.gz
Dewpoint
56 56 56 56 56 57 57 57 57 57 57 57 57 59 60 60 59 54 24 35 46 59 62 17 33 34 25 21 44 46 38 38 37 39 39 43 50 55 57 58 60 62 63 64 68
55 55 56 56 56 56 57 57 57 57 57 57 58 59 60 60 55 50 54 64 61 59 9 29 29 32 22 20 39 35 35 34 37 39 39 45 49 52 55 57 60 65 65 67 69
55 55 55 55 55 55 56 57 57 57 57 57 57 58 61 59 50 43 66 62 61 50 21 28 35 30 23 24 41 41 34 41 41 43 41 44 47 47 54 55 58 63 65 68 69
54 54 54 55 55 55 55 56 57 57 57 57 57 58 61 55 38 42 65 61 61 37 37 35 30 25 23 24 26 34 38 40 39 41 43 40 45 48 55 50 58 66 67 68 68
54 54 54 54 54 54 55 55 56 56 56 56 57 59 52 28 34 55 63 58 36 36 35 33 26 29 26 25 25 37 35 34 36 36 36 42 44 44 53 59 63 67 68 67 67
53 54 54 54 54 54 55 55 56 56 56 56 57 59 41 11 34 46 29 32 32 36 34 34 26 29 27 27 27 26 24 24 27 34 35 37 41 43 54 60 63 67 67 67 67
53 53 53 53 53 54 54 55 55 55 56 56 57 56 41 7 36 35 27 27 32 34 30 24 22 26 29 26 25 23 19 23 26 27 31 41 41 43 56 60 61 63 64 67 67
52 52 52 53 53 53 54 54 54 55 57 57 58 54 38 30 38 31 32 34 35 34 32 30 25 26 27 27 20 16 17 15 18 28 28 28 25 38 58 59 60 60 61 63 65
52 52 52 52 53 54 53 54 54 55 56 59 53 49 29 40 34 34 36 35 32 31 28 21 24 24 22 19 14 15 10 14 15 25 28 29 27 31 58 58 59 60 61 61 63
52 52 52 53 53 53 53 54 52 55 54 55 50 18 19 28 31 30 37 37 33 25 20 24 23 21 20 16 10 15 13 14 15 20 30 29 23 48 56 57 58 59 61 61 62
51 52 52 53 53 52 51 34 29 28 29 26 21 11 23 30 33 21 34 33 28 21 17 19 16 14 14 21 18 19 18 15 15 15 28 27 28 29 52 55 56 58 60 61 61
51 51 52 53 52 52 46 28 28 28 25 25 25 30 32 32 27 28 30 28 25 22 23 16 12 16 23 23 23 22 18 9 12 20 22 21 27 30 50 53 55 57 59 60 62
51 52 52 52 51 40 32 30 33 28 25 22 23 23 22 28 24 25 26 28 23 21 19 15 14 22 21 21 20 13 7 11 17 19 20 21 20 21 33 44 49 56 60 61 62
51 51 52 51 34 39 30 34 35 29 13 10 18 18 22 26 22 30 27 28 29 23 22 19 20 22 23 18 18 15 14 19 23 21 16 19 16 21 32 53 57 59 59 60 64
51 51 51 50 39 33 27 37 32 18 -4 8 13 17 18 18 19 22 28 27 25 21 19 18 23 23 22 20 16 15 19 25 23 18 15 17 14 19 41 50 54 59 61 65 63
51 50 50 45 41 38 39 33 25 10 1 12 15 13 17 18 17 24 24 26 27 25 25 21 24 23 22 23 16 20 18 21 24 19 16 22 19 22 37 40 43 62 66 65 62
50 50 48 45 16 38 34 22 14 7 8 11 10 11 12 14 17 16 21 22 20 17 18 23 24 27 26 21 21 18 17 14 13 17 16 25 27 27 35 45 52 63 63 65 64
49 50 48 46 43 37 26 20 3 5 11 16 16 13 10 11 14 15 19 18 23 23 23 21 17 25 23 21 17 20 15 15 10 15 18 25 23 33 49 53 63 64 63 57 58
48 43 43 42 47 37 23 16 11 12 22 18 16 13 11 11 11 12 15 16 19 22 18 23 23 28 27 23 21 25 19 19 19 22 19 22 32 38 56 59 57 53 52 53 56
42 43 39 42 42 26 18 19 14 20 18 17 17 16 17 18 9 9 13 16 17 23 21 22 20 24 26 22 23 23 21 17 18 18 18 20 23 32 47 54 54 53 50 54 57
43 31 35 39 28 22 15 15 18 19 18 17 16 14 14 19 11 8 9 12 20 23 22 25 22 21 25 24 19 19 20 19 19 19 15 16 21 31 45 53 53 54 54 56 56
35 29 39 27 18 23 17 20 26 12 13 7 17 14 14 16 20 12 10 13 23 25 21 24 21 20 20 27 28 24 20 20 20 19 24 21 21 35 44 50 52 53 56 58 59
33 37 41 27 20 17 18 17 17 13 12 8 12 14 19 16 18 26 24 22 25 24 23 25 23 21 20 22 27 25 26 25 22 23 25 21 23 38 46 47 48 49 52 58 58
39 33 31 28 25 20 24 20 17 22 17 14 10 16 17 18 26 24 29 27 32 34 54 35 22 22 19 21 26 27 27 25 24 24 23 22 26 31 44 45 48 54 54 57 57
38 34 34 29 27 32 24 23 20 18 21 23 17 14 17 20 27 31 36 35 34 44 30 27 21 23 25 24 26 26 28 27 27 26 25 28 26 30 37 47 50 51 55 54 54
34 30 33 30 33 30 30 26 21 22 18 20 23 17 23 26 27 31 33 36 36 35 27 30 27 27 28 32 30 28 31 30 35 32 33 37 35 39 50 51 53 52 54 56 58
39 39 33 34 31 26 25 25 24 27 27 28 38 36 34 35 37 36 35 32 34 36 39 33 26 22 25 36 27 22 35 39 46 49 44 34 36 49 48 50 51 52 54 55 57

GFSSW_sfc_dewp_039.txt.gz
Dewpoint
56 56 56 56 56 57 57 57 57 57 57 58 58 59 59 60 59 53 20 34 45 63 61 22 32 31 33 26 47 46 39 40 38 40 40 47 49 53 55 56 58 60 61 64 69
55 55 55 55 56 56 57 57 57 58 58 58 58 59 59 61 54 47 57 64 61 60 10 26 29 30 22 25 40 30 39 35 37 40 40 45 48 51 54 55 59 62 65 68 69
55 55 55 55 55 55 57 57 57 57 57 58 58 58 59 59 47 40 69 63 61 48 18 27 34 27 23 25 39 39 34 38 39 39 42 45 49 52 53 54 56 60 65 67 68
54 54 54 55 55 55 55 56 57 57 57 57 58 58 60 55 31 43 67 64 61 38 36 32 29 25 25 24 25 29 36 39 37 41 42 45 48 50 53 50 54 61 65 67 68
54 54 54 54 54 54 55 55 56 56 56 57 58 58 51 20 29 55 65 58 33 34 34 30 27 27 25 25 27 33 31 32 34 37 40 43 46 47 52 55 60 64 66 66 66
53 53 53 54 54 54 55 55 55 56 56 56 57 59 34 9 35 48 29 27 28 34 31 27 24 27 26 25 24 24 23 23 27 31 36 35 39 46 48 61 63 64 65 65 66
53 53 53 53 53 54 55 55 55 55 56 57 57 55 37 14 37 36 26 26 30 33 30 25 23 24 27 25 25 22 21 25 26 28 31 39 40 43 52 60 62 63 64 65 66
52 52 53 53 53 54 54 54 54 56 58 57 57 52 27 30 40 30 29 32 35 34 33 31 24 24 26 26 20 18 19 20 17 24 25 37 27 36 54 58 60 61 63 65 66
52 52 52 53 53 54 54 54 55 56 59 59 52 45 18 38 32 33 35 34 32 31 27 24 26 25 23 21 20 18 20 16 16 27 23 32 27 35 56 56 58 61 62 64 65
52 52 53 53 53 54 53 54 54 56 54 54 48 25 14 25 29 27 37 36 32 25 20 26 25 24 23 19 23 19 15 16 19 18 23 29 29 39 55 56 57 59 61 62 63
51 52 53 53 53 53 51 34 29 30 29 27 21 12 14 28 31 24 35 35 27 25 18 23 16 11 18 21 19 19 19 19 20 16 24 27 30 25 52 56 57 59 61 62 61
51 52 52 53 52 52 46 28 29 29 25 26 26 26 28 30 23 26 32 27 27 23 21 18 13 16 19 20 20 21 19 17 19 21 24 23 24 28 46 53 54 56 60 61 64
51 52 52 52 52 41 34 31 33 30 26 22 23 22 21 26 21 23 29 28 25 22 19 13 13 20 18 20 19 18 15 14 21 22 21 25 24 26 32 51 57 51 59 61 65
51 51 52 51 36 37 31 35 34 30 17 9 13 17 25 25 20 26 27 28 26 21 22 18 19 20 21 21 19 20 17 12 21 20 18 24 16 34 31 50 56 58 58 63 63
50 51 51 50 37 27 32 36 31 25 3 6 11 18 22 20 19 25 29 28 27 24 23 16 21 21 19 22 21 20 19 24 22 22 21 27 20 27 43 42 47 59 61 63 63
50 50 50 45 42 34 36 32 30 13 5 10 14 12 19 19 16 23 25 27 29 23 24 22 22 21 20 21 19 25 22 24 26 21 14 29 24 26 35 42 45 61 63 63 63
50 50 48 45 19 37 34 28 17 7 11 10 11 13 13 16 16 20 24 25 21 25 23 21 21 25 27 20 22 21 23 18 13 15 15 29 28 32 35 45 48 60 63 64 62
50 49 49 46 43 41 30 24 16 11 11 13 17 15 12 13 17 16 23 23 23 24 23 17 16 24 26 25 23 21 23 17 14 16 21 28 25 29 43 55 58 63 65 65 64
48 44 42 40 45 43 29 23 18 14 20 16 16 14 13 10 13 17 18 19 22 25 23 25 20 27 27 22 24 26 24 23 27 27 21 25 33 37 48 52 60 59 61 64 64
44 43 38 42 45 30 25 24 19 15 20 16 15 15 16 16 11 15 19 18 16 23 25 28 24 23 24 22 24 27 26 22 25 26 19 24 28 26 39 46 59 56 57 56 56
43 35 37 39 31 29 21 19 16 17 20 14 15 15 15 16 14 12 14 13 16 20 24 27 27 25 26 24 23 23 23 25 25 25 19 19 23 39 41 47 54 58 52 52 54
36 32 42 30 26 25 22 21 26 12 10 7 14 15 16 16 19 17 14 18 19 23 21 28 27 24 22 26 25 23 26 30 21 32 29 26 21 30 42 47 55 55 56 57 59
39 39 42 31 16 19 21 17 17 11 9 6 10 16 19 17 20 27 23 23 25 24 27 30 30 22 25 25 27 27 27 29 34 36 35 23 24 34 44 47 52 55 54 54 58
42 32 34 31 27 26 26 24 20 19 14 16 15 16 16 18 29 29 28 27 33 27 53 40 35 32 18 26 30 30 27 27 30 28 30 26 29 35 38 46 49 52 54 55 58
37 35 34 30 30 33 31 27 23 22 21 22 25 20 18 22 28 32 35 34 34 44 34 37 36 32 27 24 26 26 26 25 29 32 25 30 31 36 44 49 49 53 54 56 56
36 33 34 33 35 30 32 30 25 25 25 20 25 23 23 25 30 30 34 36 36 37 33 35 37 34 27 26 26 26 28 28 30 29 31 33 36 48 51 52 53 53 55 56 56
40 40 35 36 31 28 27 27 26 27 29 23 27 36 34 28 37 37 37 35 39 40 43 38 37 35 30 32 29 29 31 34 42 45 38 34 38 49 50 51 53 54 54 55 57

GFSSW_sfc_dewp_042.txt.gz
Dewpoint
56 56 56 56 56 57 57 57 58 58 58 58 59 59 59 59 60 52 18 32 45 63 62 22 26 29 45 33 33 41 37 36 32 34 33 42 44 49 50 54 52 57 55 58 68
56 55 56 56 56 57 57 58 58 58 58 58 59 59 59 59 53 35 55 65 63 60 17 25 27 29 31 22 33 34 36 33 35 36 35 39 43 48 50 52 55 59 62 65 67
55 55 55 55 55 56 57 57 57 57 57 58 58 59 59 59 45 32 67 65 63 47 17 27 30 27 22 25 34 37 35 34 34 34 35 37 43 47 47 48 48 55 61 63 65
55 55 55 55 55 55 56 56 57 57 57 58 58 59 59 52 25 44 65 65 60 36 32 29 29 23 25 28 26 32 33 35 31 34 36 38 42 46 47 46 49 56 60 62 63
54 54 54 54 54 55 55 56 56 56 57 57 58 59 50 26 36 48 64 53 31 31 27 27 24 25 27 27 28 31 29 28 29 30 34 38 40 43 46 47 54 58 60 61 61
54 54 54 54 54 55 56 56 56 56 56 57 58 58 33 16 32 42 25 22 27 28 25 24 24 27 26 26 27 25 25 25 28 30 34 34 34 42 43 50 57 59 58 59 60
53 53 53 54 54 55 55 55 55 56 57 58 58 52 29 12 31 36 26 23 29 29 26 24 23 23 26 27 24 23 26 27 25 25 27 33 34 38 39 54 56 57 57 58 61
53 53 53 53 54 54 55 55 54 56 58 58 57 48 17 25 33 33 32 28 31 32 30 27 23 22 23 27 23 26 27 24 20 17 23 32 28 29 45 52 55 55 57 58 61
52 52 53 54 54 54 54 54 55 56 58 59 50 37 11 36 25 29 32 26 27 29 26 24 24 22 19 24 26 27 25 21 20 18 20 32 29 33 42 49 52 56 58 58 60
52 53 53 54 54 54 53 54 54 54 53 51 44 31 14 18 26 28 32 33 27 24 20 22 20 17 20 23 23 24 24 21 21 16 16 22 27 29 43 47 50 56 59 59 59
52 53 53 53 53 53 49 35 31 33 31 20 19 16 8 23 28 28 31 29 27 21 16 21 13 11 20 24 21 22 24 22 18 17 21 25 29 29 41 46 50 56 59 59 60
52 52 52 53 52 52 46 27 29 30 21 19 21 23 23 24 20 25 29 23 23 17 18 15 8 12 18 18 18 21 24 22 17 23 22 21 23 29 40 46 47 50 58 59 61
51 52 52 52 52 43 32 29 30 30 24 15 18 16 15 21 16 20 25 23 20 16 14 9 10 15 14 17 18 22 22 18 17 22 20 22 23 27 32 49 54 52 53 58 62
51 52 52 51 41 27 31 32 30 30 16 10 9 13 18 20 14 21 24 22 20 15 14 10 8 14 16 14 16 16 17 15 14 16 16 22 14 32 34 43 52 52 52 56 60
51 51 51 50 39 23 32 28 30 29 6 5 8 17 17 14 17 21 24 25 21 19 18 10 11 12 17 12 13 17 15 17 20 17 18 21 14 24 33 36 46 55 55 59 63
51 50 50 45 39 25 29 28 32 18 5 9 13 10 14 15 13 23 23 25 24 22 20 17 21 19 15 23 21 23 22 22 20 13 12 24 15 21 25 40 44 55 59 61 62
51 50 48 42 22 31 28 29 17 10 7 7 10 11 8 9 11 18 22 23 19 23 22 16 17 16 22 22 23 23 19 14 14 11 15 26 18 24 31 43 49 50 60 61 63
50 49 48 41 40 37 30 23 19 10 7 10 11 11 12 8 10 13 20 19 20 19 16 15 12 18 22 24 20 21 18 14 18 13 15 28 18 29 39 50 56 56 62 63 63
49 42 40 38 41 40 28 18 13 12 14 13 11 9 11 11 9 12 15 15 18 22 20 15 12 18 23 22 24 24 20 19 20 21 12 18 24 26 41 49 56 58 62 63 64
40 42 35 39 43 29 24 21 17 12 17 14 11 13 13 13 11 13 14 13 13 18 22 23 20 16 24 24 25 25 24 18 17 21 19 19 24 23 29 41 53 56 59 62 61
43 31 33 34 32 25 17 16 16 13 16 13 16 14 15 16 15 12 13 12 12 14 20 19 25 22 27 25 22 24 23 24 21 23 17 19 20 29 34 41 49 55 57 57 53
36 27 34 35 20 21 18 19 25 10 11 10 12 14 14 17 18 18 14 13 12 15 19 22 23 21 18 25 25 25 26 26 21 30 20 25 22 29 39 45 53 54 55 54 57
39 33 33 33 13 15 21 14 14 9 8 7 7 12 17 19 22 20 23 18 18 17 20 25 23 23 22 24 27 25 25 28 32 34 30 20 23 34 38 44 53 56 57 58 56
41 27 25 25 28 22 22 18 15 14 10 8 11 13 13 16 22 25 24 23 28 21 50 39 25 29 13 23 23 29 27 27 28 24 28 22 28 31 42 44 50 55 57 55 59
39 35 35 21 21 29 30 26 18 14 14 19 16 14 14 20 20 24 28 30 32 41 31 29 31 28 22 21 21 24 24 25 28 26 25 25 26 40 46 49 49 53 56 57 58
36 35 34 36 36 32 31 29 25 23 22 15 19 16 18 22 23 30 30 34 30 34 34 33 32 28 22 17 19 21 24 26 26 28 26 25 29 46 50 51 51 54 55 56 57
40 41 36 36 33 29 29 30 27 27 27 20 22 24 27 28 23 33 36 37 41 40 38 38 31 35 22 23 22 22 25 26 27 29 27 29 44 47 49 53 54 54 53 54 56

GFSSW_sfc_dewp_045.txt.gz
Dewpoint
56 56 56 57 57 58 58 58 58 59 59 59 59 59 60 60 59 52 30 37 43 65 58 38 32 46 40 45 41 34 47 44 29 32 34 38 37 41 43 43 49 50 52 58 64
56 56 56 56 57 57 58 58 58 58 58 58 59 59 59 60 52 34 52 65 67 62 29 19 23 27 27 34 29 35 45 37 29 31 31 34 39 40 43 43 51 54 57 61 63
55 55 55 55 56 57 57 57 57 57 58 58 59 59 59 58 46 33 66 63 62 55 15 18 22 27 27 27 31 35 37 29 27 29 31 32 36 39 40 40 45 53 57 59 61
55 55 55 55 55 56 57 57 57 57 57 58 59 59 59 49 33 42 64 61 62 31 22 22 22 25 27 27 30 31 34 30 27 28 29 31 35 36 39 40 44 54 56 58 59
54 55 55 55 55 55 56 57 57 57 57 58 59 59 44 35 35 45 63 53 32 28 23 22 24 27 27 28 30 32 30 28 27 26 28 30 32 35 36 45 47 53 55 57 58
54 54 54 54 55 56 56 56 56 57 57 58 59 59 43 21 36 37 23 21 23 23 20 21 23 27 27 28 30 31 29 26 25 27 28 27 27 33 36 43 51 53 54 55 57
54 54 54 54 54 55 56 56 56 56 57 58 60 49 27 15 22 34 25 19 25 23 21 21 22 23 28 29 31 29 28 26 25 23 23 26 26 29 33 42 51 53 53 55 58
53 53 54 54 54 55 55 55 55 56 59 60 58 44 25 16 21 27 28 22 23 24 25 26 24 21 25 29 28 28 27 23 23 19 20 22 31 44 35 43 48 52 52 54 58
53 53 54 54 55 55 54 54 55 57 58 61 50 40 17 32 13 14 24 21 20 22 24 22 22 20 24 26 27 26 25 33 21 18 15 22 25 32 29 39 44 51 54 54 58
53 54 54 54 54 54 54 54 56 54 54 47 40 27 17 6 18 21 22 25 23 20 20 18 15 17 21 22 22 24 22 28 21 19 14 16 21 23 33 34 40 49 54 55 57
53 53 54 54 54 53 48 33 33 39 32 16 20 12 8 13 22 18 21 22 21 22 16 17 11 12 18 22 22 21 24 23 22 18 18 20 22 26 33 33 37 46 54 56 57
52 53 53 53 53 53 48 27 27 27 21 12 11 13 14 18 16 17 22 20 18 16 14 14 10 9 11 19 21 21 21 21 21 17 19 19 20 25 29 34 34 37 50 55 57
52 53 53 52 52 46 30 28 28 28 21 9 9 8 7 9 11 12 19 19 16 14 11 12 7 10 10 13 20 18 20 21 20 21 19 18 20 27 30 36 43 45 47 55 57
52 52 52 51 43 22 27 31 27 29 17 10 8 6 10 12 7 10 19 19 17 13 11 9 5 9 8 10 16 19 18 17 15 16 14 23 15 30 32 35 41 46 47 53 58
52 52 52 51 36 20 32 26 27 30 12 7 6 15 6 6 9 9 18 18 18 13 16 11 5 7 10 10 10 12 16 15 15 16 18 16 16 27 30 34 36 48 52 55 62
52 51 51 44 40 24 24 26 30 19 10 5 6 4 8 8 4 16 16 19 19 18 18 11 13 8 5 7 12 12 18 19 19 14 14 19 16 16 27 34 32 50 58 60 61
51 51 49 39 25 25 26 26 19 13 10 4 5 5 4 6 6 14 18 18 17 22 22 15 11 11 12 16 19 15 18 16 17 12 12 22 18 20 29 38 40 51 59 60 62
50 50 47 33 31 30 30 23 20 13 10 8 7 6 7 5 7 7 14 14 17 16 12 14 10 11 15 16 19 15 16 15 20 13 15 24 17 22 32 42 46 54 60 62 62
49 42 34 33 31 31 27 18 18 16 9 5 6 7 8 7 6 9 12 13 14 16 20 13 14 10 12 16 18 23 17 15 19 20 16 16 22 27 29 41 46 53 60 61 62
41 29 29 32 34 26 22 22 15 12 12 12 13 9 9 10 10 9 13 12 12 14 19 19 20 12 13 19 20 22 23 16 16 21 20 17 23 25 32 38 45 51 56 62 63
41 29 32 29 25 19 18 19 16 14 14 11 11 11 12 14 12 9 10 11 9 10 16 15 23 17 19 22 19 19 20 22 16 20 18 22 25 31 34 38 44 48 57 58 55
31 24 28 26 16 17 19 22 23 14 12 11 13 16 15 15 17 16 12 12 9 9 12 17 18 19 20 20 19 19 24 22 20 28 23 19 26 23 35 41 44 51 55 53 54
34 29 27 24 13 13 19 19 18 13 11 9 9 10 16 18 21 19 17 15 12 10 16 19 20 21 21 18 22 22 23 26 28 31 32 23 24 30 38 43 47 52 54 57 58
37 23 22 19 19 24 19 20 17 13 10 9 10 11 14 18 21 24 19 21 17 14 52 36 25 27 16 21 20 25 20 20 23 25 26 22 31 39 40 44 51 55 58 58 57
33 29 33 17 16 20 24 21 18 18 15 11 14 11 15 20 19 20 20 22 26 40 27 25 30 26 21 19 20 20 22 21 21 25 24 35 35 44 45 46 48 55 57 56 57
37 32 27 31 32 25 29 25 23 19 20 19 18 12 14 20 23 24 27 26 28 28 30 27 30 29 23 19 17 20 21 23 20 21 24 24 39 49 49 50 51 54 55 55 57
37 37 36 35 30 27 24 25 25 23 25 24 19 15 17 21 25 24 27 35 37 40 36 35 32 31 26 20 19 19 21 24 25 25 26 27 43 46 48 51 53 54 53 53 54

GFSSW_sfc_dewp_048.txt.gz
Dewpoint
57 57 57 57 58 58 58 58 58 59 59 59 59 60 60 60 59 53 30 41 46 71 65 48 47 38 44 37 39 41 43 39 35 41 41 45 44 38 41 42 43 45 50 57 61
56 56 56 57 57 58 58 58 58 58 58 58 59 59 60 60 48 38 53 69 67 67 33 25 21 24 28 29 32 39 43 39 38 28 33 45 45 46 50 46 49 50 55 59 61
56 56 56 56 56 57 57 57 58 58 58 58 59 59 60 58 44 30 66 68 65 60 30 19 19 21 26 30 28 43 41 39 38 26 29 37 45 47 46 45 48 51 56 59 60
55 55 55 55 56 56 57 57 57 57 57 58 59 59 60 50 35 33 68 67 67 40 20 15 21 21 26 28 27 32 37 32 26 26 27 29 36 44 41 43 46 53 56 57 59
55 55 55 55 55 56 56 57 57 57 57 58 59 60 41 37 33 36 69 61 30 25 27 24 24 23 25 26 27 28 33 29 26 25 25 28 29 33 43 44 44 53 55 56 57
54 55 55 55 56 56 56 56 56 56 57 58 59 60 44 26 32 29 25 23 25 24 21 21 21 23 25 26 28 29 30 28 24 25 25 24 26 30 35 43 44 52 53 55 56
54 55 55 55 55 56 56 56 56 56 57 58 60 49 29 19 16 31 25 17 19 20 19 20 21 22 25 26 27 29 27 26 26 24 21 25 31 32 41 47 46 50 52 54 57
54 54 55 55 55 55 55 55 55 56 58 60 62 45 26 18 16 17 28 23 17 20 20 23 25 22 22 25 27 26 26 28 35 36 18 18 32 36 40 49 48 49 51 53 57
54 54 54 55 55 55 54 54 55 56 59 60 52 42 26 36 8 4 18 20 18 19 21 19 20 18 21 22 23 25 24 31 30 32 15 15 32 36 38 43 39 47 51 52 56
54 54 54 54 54 54 53 53 56 54 52 47 41 30 23 8 7 15 17 20 20 19 18 19 14 11 17 19 20 27 34 34 37 31 15 13 19 28 31 32 35 44 52 53 55
53 53 53 54 54 53 47 34 33 40 31 23 22 16 10 9 17 15 15 18 17 18 18 16 9 9 14 19 20 21 35 38 39 37 16 16 20 23 29 27 33 40 54 55 55
53 53 53 53 53 52 48 37 26 24 22 19 19 12 13 14 13 12 13 17 16 13 14 13 12 11 10 13 16 20 21 28 30 23 18 17 18 21 26 29 28 29 48 53 65
53 53 53 53 52 45 31 26 25 23 19 11 5 6 5 7 7 7 14 16 14 12 10 11 9 8 6 10 14 19 20 18 18 20 19 19 18 23 28 29 36 40 42 53 67
53 53 52 52 44 30 18 30 23 25 17 9 3 6 5 3 4 6 12 15 14 12 12 8 9 8 9 7 8 13 13 16 15 17 13 21 18 31 29 34 39 44 44 53 66
52 52 52 51 38 25 31 25 23 25 12 7 4 6 2 6 5 5 8 15 15 14 12 11 7 5 8 7 6 14 12 16 15 14 16 15 14 35 34 40 41 47 51 59 64
52 52 51 43 45 30 20 22 24 18 12 6 6 6 5 4 3 8 6 15 16 14 15 11 10 6 4 5 7 10 10 17 17 14 15 20 16 32 32 39 46 53 57 60 62
51 51 49 41 28 25 21 23 18 14 10 7 3 5 3 3 3 7 13 15 13 18 19 17 11 10 11 5 7 12 14 17 17 14 13 21 15 32 35 35 45 55 57 60 62
50 50 46 35 24 26 25 21 21 12 9 7 4 3 2 2 6 4 13 14 14 13 13 15 12 7 10 10 14 18 15 17 23 18 26 32 29 30 38 39 50 55 58 61 62
49 40 36 35 30 26 24 19 18 17 10 9 7 6 8 5 3 7 9 10 12 15 20 14 13 11 8 10 11 18 17 12 17 17 17 29 33 31 34 40 48 55 59 60 61
45 32 30 28 28 25 22 24 15 13 10 11 10 9 9 7 6 7 10 9 9 12 16 17 18 15 9 10 13 15 19 18 15 26 23 17 30 35 38 42 49 52 56 59 62
40 32 32 26 26 22 19 18 16 14 14 13 13 13 11 10 8 9 9 8 9 10 15 14 19 19 14 15 16 17 18 24 17 20 26 27 37 43 48 47 45 49 56 59 60
36 28 30 22 16 17 19 22 28 14 15 13 13 13 16 13 15 16 11 10 8 9 11 16 15 19 17 15 18 17 19 20 19 32 25 27 29 35 43 40 45 51 56 56 53
39 28 29 19 10 9 16 17 20 18 16 15 10 11 14 17 21 19 18 13 10 9 19 19 18 16 20 18 21 19 17 21 28 35 34 31 29 39 43 44 45 51 54 56 57
42 26 23 21 16 20 22 19 20 19 18 15 14 11 12 14 21 23 21 16 17 14 49 35 27 30 13 23 19 25 19 20 25 28 27 28 41 47 48 47 49 54 58 58 58
38 32 32 17 12 16 23 21 18 18 17 17 16 12 13 17 18 18 19 20 20 40 25 28 36 25 21 18 18 19 22 21 19 22 22 32 42 45 49 46 49 56 57 57 57
38 34 35 29 31 22 25 22 21 19 20 19 19 14 14 19 21 20 18 23 26 25 26 25 34 30 24 20 17 17 24 39 28 19 19 23 42 48 50 46 44 57 58 57 58
33 33 33 34 26 26 23 24 21 22 22 22 22 20 19 18 17 16 22 28 35 38 42 38 33 37 27 21 20 21 19 20 20 23 21 27 41 47 48 50 51 59 55 55 55

GFSSW_sfc_dewp_051.txt.gz
Dewpoint
57 57 57 58 58 58 58 58 58 59 59 59 59 59 60 60 59 55 36 43 48 72 71 41 53 53 48 45 42 40 41 41 40 43 42 41 43 47 43 45 48 54 57 59 61
56 56 56 57 57 58 58 58 58 58 58 58 59 59 60 60 52 39 56 66 71 72 36 29 25 21 23 28 34 39 35 35 38 39 41 43 43 44 40 42 47 58 60 60 61
56 56 56 56 56 57 57 57 58 58 58 58 58 59 60 59 49 32 68 71 70 65 36 30 24 17 21 22 34 39 35 36 35 36 42 45 44 42 43 42 45 56 59 61 61
55 55 55 56 56 56 57 57 57 57 57 58 58 59 60 55 37 33 69 69 69 52 34 22 17 21 23 23 28 38 37 34 34 32 46 46 48 46 45 45 46 57 59 61 62
55 55 55 55 55 56 56 57 57 57 57 57 59 60 51 42 36 45 71 68 50 29 20 23 23 26 23 23 26 30 38 37 35 26 33 47 46 45 49 47 49 57 59 60 60
54 54 54 55 55 56 56 56 56 56 57 57 59 60 51 29 35 35 44 35 24 23 26 28 24 23 22 24 26 28 31 30 32 32 29 30 36 40 49 48 50 53 57 58 60
54 54 55 54 54 55 56 56 56 56 56 57 60 53 38 27 22 30 33 21 23 23 23 22 22 23 23 22 25 24 27 34 34 35 32 29 33 38 47 45 42 50 55 57 60
54 54 54 54 55 55 55 55 55 55 56 58 61 50 36 26 25 16 28 27 20 18 20 20 24 24 24 23 21 24 31 30 36 32 32 32 30 43 43 41 44 46 54 57 64
54 54 54 54 55 55 54 54 54 56 57 59 52 44 36 38 16 14 12 23 21 18 19 18 23 21 20 18 21 32 32 32 32 35 33 33 28 41 42 40 42 48 55 62 65
54 54 54 54 54 54 54 53 53 55 55 46 44 37 32 21 17 12 4 13 21 22 21 20 20 16 13 14 18 28 32 32 32 32 31 32 27 37 39 42 45 51 54 63 65
53 54 54 54 54 54 50 35 37 42 36 28 31 21 19 18 17 21 17 18 21 20 18 23 17 13 12 13 17 20 31 34 33 32 32 30 25 34 34 38 43 50 49 64 65
53 53 54 54 53 52 50 37 30 24 22 22 21 20 22 15 14 14 13 12 20 18 18 18 15 15 14 13 15 16 32 32 33 29 31 31 18 33 33 31 36 50 65 67 67
53 53 53 53 52 50 33 29 27 23 23 18 15 10 13 10 11 11 11 14 18 18 15 14 15 16 13 11 11 12 27 32 32 29 28 27 22 22 35 50 48 52 66 68 67
52 53 52 52 43 32 31 31 24 24 24 17 9 8 5 7 5 9 7 17 16 14 16 13 12 10 11 13 8 10 15 16 14 18 18 22 18 31 48 48 48 49 65 67 68
52 52 52 51 43 32 29 20 22 27 20 12 8 7 6 5 8 7 7 9 15 16 15 15 14 9 12 9 11 9 14 16 20 17 30 16 17 38 47 48 48 49 65 67 68
52 52 51 47 47 40 32 25 26 24 21 11 9 5 5 4 4 7 7 8 19 15 15 16 13 12 11 9 8 11 14 18 19 16 16 21 23 28 42 48 47 49 65 66 66
51 51 49 45 34 26 24 26 24 21 16 9 8 6 6 6 4 7 7 10 15 16 19 19 16 14 14 12 13 9 24 18 21 19 20 28 29 31 39 46 45 51 60 63 65
50 50 49 44 33 29 31 28 24 17 13 11 8 5 5 7 7 5 12 14 18 16 16 20 18 18 12 13 13 15 14 18 17 23 27 27 25 39 41 50 57 59 61 63 65
49 47 44 39 42 37 32 25 24 23 15 9 12 12 11 5 5 7 8 14 17 16 15 17 17 20 13 10 11 12 22 18 14 14 20 29 34 36 50 56 58 60 61 62 65
46 42 34 37 36 29 30 28 23 17 12 13 16 17 17 12 11 10 14 11 11 14 18 17 18 19 18 10 12 11 21 20 21 20 21 30 34 35 48 49 54 58 58 62 62
45 36 34 30 30 33 24 23 19 17 18 17 16 17 16 17 17 13 15 13 10 9 12 17 21 15 23 20 15 16 16 26 27 26 18 27 33 44 50 50 50 50 56 61 61
44 36 35 28 29 29 23 24 27 18 17 17 19 18 18 18 21 21 20 18 11 10 11 15 26 21 20 20 19 17 21 21 26 21 31 29 33 43 49 48 56 54 55 61 62
43 39 34 28 20 16 20 16 18 19 20 19 21 19 18 19 25 27 26 21 16 21 25 36 26 16 16 18 30 28 21 23 29 31 25 29 36 48 51 52 55 53 57 60 60
45 41 36 35 26 24 23 25 19 18 22 22 23 21 20 20 22 27 23 21 21 21 51 35 29 29 15 23 30 29 25 26 30 32 27 33 42 47 47 48 53 58 61 58 60
45 42 43 29 24 20 23 23 22 21 23 26 27 21 19 24 26 25 24 22 25 41 26 25 26 34 26 24 22 21 22 29 25 35 29 37 41 47 48 50 52 55 57 58 59
43 39 36 34 38 36 29 27 21 22 29 23 23 19 21 24 25 25 25 30 33 41 42 32 27 41 25 25 23 22 22 30 32 28 27 34 42 49 50 50 48 50 57 59 58
45 42 42 37 32 31 29 30 22 25 26 24 27 27 25 28 34 34 30 29 31 35 39 44 34 34 29 31 28 26 26 29 37 38 36 32 40 47 45 44 45 56 56 57 57

GFSSW_sfc_dewp_054.txt.gz
Dewpoint
56 57 57 57 58 58 58 58 58 59 58 59 59 59 59 60 58 54 34 38 46 72 72 57 61 52 53 54 47 47 43 43 43 44 43 43 42 46 44 55 57 58 58 59 62
56 56 56 56 57 58 58 58 58 58 58 58 58 59 59 60 52 42 52 67 71 72 40 31 28 37 42 31 33 39 38 36 42 45 42 41 43 46 37 47 59 59 60 61 62
56 56 56 55 56 57 57 57 57 58 58 58 58 59 60 59 47 40 65 67 71 68 39 36 28 26 18 22 25 38 34 35 38 42 43 41 43 45 41 44 52 58 59 60 61
55 55 55 55 55 56 57 57 57 57 57 57 58 59 60 56 34 34 71 71 70 50 41 27 22 23 26 24 25 31 35 37 34 44 40 42 45 46 45 46 57 60 60 61 64
55 55 55 55 55 55 56 56 57 56 57 57 58 59 54 36 41 49 71 68 53 36 25 22 24 26 25 24 23 33 31 36 36 42 43 46 46 46 46 49 60 60 61 63 64
54 54 54 54 55 56 56 56 56 56 56 57 58 60 46 24 33 53 44 46 31 27 23 21 27 26 23 23 24 26 24 24 35 42 45 46 46 46 47 52 60 60 61 63 64
54 54 54 55 54 55 56 56 55 55 56 56 58 56 43 15 23 34 33 27 25 23 22 26 28 23 25 22 24 22 28 31 33 34 40 39 44 43 48 48 57 59 60 63 64
53 53 54 54 55 55 55 55 55 55 56 58 59 51 24 30 30 29 32 28 24 22 23 22 22 24 26 24 20 28 33 29 32 34 33 31 29 39 44 47 51 58 60 63 63
53 53 54 55 55 55 55 54 54 56 57 59 53 41 36 43 23 19 24 27 26 23 19 18 21 20 18 16 14 24 30 31 29 35 35 33 31 36 42 42 47 58 62 63 62
53 54 54 54 54 54 54 53 52 54 55 52 45 24 26 22 21 19 15 10 15 22 21 22 20 17 15 12 10 16 31 31 31 33 32 32 32 32 39 39 46 60 62 62 61
53 53 54 54 54 53 51 36 26 28 32 28 36 27 20 25 22 18 16 21 19 23 19 22 17 15 15 13 12 19 26 31 33 33 32 29 32 30 40 42 46 59 62 63 62
53 53 53 53 53 53 49 26 32 23 20 22 24 25 26 26 22 16 18 15 23 17 19 15 13 17 19 16 13 15 20 31 34 34 30 29 28 41 37 40 43 59 62 63 64
53 53 53 53 52 48 34 28 30 29 20 21 19 17 15 16 16 13 13 13 15 19 17 14 12 18 18 17 14 11 26 31 31 31 31 30 30 42 47 52 48 55 63 64 64
52 52 52 51 39 37 28 29 24 25 21 20 16 12 9 11 7 14 12 13 18 14 17 15 15 13 13 12 10 8 26 32 32 29 18 27 23 41 48 47 63 64 65 65 65
52 52 52 51 44 32 27 34 31 25 5 19 17 12 8 6 10 11 10 11 14 14 15 14 16 13 15 10 13 9 10 13 18 18 15 17 17 36 47 43 49 63 65 67 66
52 51 51 46 45 41 40 26 24 20 18 20 9 5 4 5 6 11 8 10 16 15 17 15 19 14 11 14 13 12 15 15 21 17 14 18 25 28 42 43 46 60 65 67 67
51 50 49 46 27 34 30 25 18 19 19 7 7 4 5 4 4 6 9 10 7 11 13 16 15 18 15 14 13 8 11 11 14 15 15 22 30 35 36 47 46 63 66 67 68
50 50 48 47 45 36 30 21 18 20 15 12 11 10 7 6 6 6 12 8 12 16 16 17 14 18 18 12 10 9 8 12 9 19 21 24 22 38 49 48 58 64 64 66 66
49 45 46 43 45 37 27 20 19 22 19 14 14 15 13 8 8 8 7 10 11 14 11 15 15 22 20 18 12 11 14 14 13 18 18 22 37 51 56 60 58 56 57 60 66
45 44 37 40 40 28 24 26 21 20 18 17 17 17 13 14 13 13 13 10 14 17 14 13 11 12 14 17 14 8 13 14 16 15 11 24 30 44 53 56 57 56 56 60 64
43 32 34 37 30 26 22 22 19 17 17 18 17 17 18 17 20 19 17 18 14 9 17 13 13 10 20 16 11 11 12 21 19 20 15 22 29 44 53 54 53 55 60 61 62
43 35 34 31 23 25 21 21 27 19 21 20 17 15 16 19 18 20 24 24 22 19 9 15 14 12 11 21 23 14 12 15 17 14 27 26 36 47 51 54 52 54 56 54 60
38 38 34 24 16 17 17 17 18 16 18 20 15 19 19 19 12 21 24 22 21 20 19 32 19 15 13 14 16 26 26 22 24 26 24 25 38 49 53 52 48 51 54 54 53
42 40 32 26 23 19 19 16 19 22 16 17 19 20 16 15 18 17 18 22 25 36 55 36 26 15 13 13 26 26 24 28 26 26 28 28 46 51 48 49 49 52 55 53 55
43 38 37 32 24 23 19 17 16 20 21 19 20 23 20 19 16 18 23 22 22 43 38 22 15 36 24 24 22 26 23 24 25 26 25 35 46 49 51 47 48 48 51 56 59
38 36 37 33 33 27 24 14 18 20 24 22 17 17 21 26 19 17 28 25 23 29 34 38 25 33 21 24 25 27 26 27 27 33 29 39 41 48 49 50 51 53 57 58 64
45 41 39 38 29 28 27 26 23 25 26 26 28 25 31 34 35 33 32 29 25 39 29 40 38 34 20 29 28 21 25 30 33 35 33 34 40 46 48 49 50 51 54 57 64

GFSSW_sfc_dewp_057.txt.gz
Dewpoint
57 56 56 56 57 57 57 58 58 58 58 58 59 59 59 60 59 52 33 35 50 73 71 66 66 58 59 55 55 52 46 43 42 43 42 43 41 46 51 57 58 59 59 61 66
56 56 56 56 56 57 57 57 58 58 58 58 58 58 59 60 52 39 50 67 71 73 52 48 46 52 49 49 45 41 41 41 44 44 43 42 41 43 46 57 59 59 62 66 68
55 56 55 55 55 56 57 57 57 57 57 57 58 58 59 60 42 35 68 70 72 71 37 35 31 25 21 21 26 38 34 37 36 41 44 41 42 43 42 51 58 58 62 66 67
55 55 55 55 55 55 56 57 57 57 57 57 57 58 60 55 31 37 72 71 71 52 40 29 24 20 22 23 27 25 27 28 34 41 44 42 43 43 41 42 58 59 62 66 66
55 55 55 54 55 55 55 56 56 56 57 57 57 58 50 29 26 59 71 70 50 36 28 21 21 23 26 24 23 29 26 26 24 29 42 44 44 46 47 55 59 60 60 63 65
54 54 54 54 55 56 56 56 56 56 56 57 57 59 41 12 19 56 48 45 35 26 21 17 18 27 25 23 24 23 24 23 32 45 47 42 46 45 49 60 59 59 60 63 64
53 53 54 54 54 55 55 55 55 55 56 56 57 56 42 11 21 47 37 29 26 22 15 24 27 26 26 24 24 21 31 32 33 40 45 43 42 44 51 59 59 59 61 63 63
53 53 53 54 54 54 55 55 54 55 57 57 58 54 23 22 34 29 32 26 27 22 22 24 26 23 23 25 16 25 32 27 30 35 42 37 31 41 54 59 59 60 61 63 63
53 53 53 54 54 55 54 53 55 55 58 59 53 39 34 39 28 30 30 27 27 24 22 21 20 19 17 14 12 19 20 29 31 34 34 34 30 38 49 58 58 59 62 63 62
52 53 53 54 54 54 53 54 53 55 55 53 47 23 13 18 24 20 23 27 18 16 20 21 19 17 16 11 7 16 23 28 29 32 33 32 29 37 45 52 56 58 62 62 62
53 53 53 53 53 53 51 32 25 24 31 26 29 18 24 24 28 21 20 11 17 21 14 20 16 15 15 15 15 15 17 19 20 25 29 27 30 32 43 43 51 56 61 61 61
52 53 53 53 52 52 48 26 30 25 22 22 23 30 28 26 22 21 19 16 19 16 21 15 12 14 19 19 17 15 13 14 17 26 32 29 36 46 42 42 47 57 61 61 62
52 53 53 52 52 43 29 25 29 29 24 21 21 19 17 21 19 20 15 17 13 17 17 14 13 17 18 16 16 13 14 13 18 31 30 30 29 42 49 52 50 60 61 62 62
52 52 52 51 35 40 26 29 33 28 18 15 18 16 12 14 11 20 15 13 20 9 16 16 18 16 16 13 13 10 16 22 30 28 19 26 19 35 46 48 59 60 61 62 63
52 52 52 51 42 36 25 35 28 19 2 10 16 14 8 5 5 10 16 14 10 14 14 14 16 16 15 12 11 9 17 27 27 19 17 18 17 30 45 46 53 63 63 64 64
52 52 51 45 43 41 40 31 24 18 8 14 15 7 5 6 6 12 8 9 14 12 18 14 19 15 14 14 12 12 11 15 21 17 12 17 23 26 42 43 52 64 64 65 65
51 50 49 46 19 36 33 23 16 16 16 9 9 9 5 5 6 7 7 6 5 6 8 14 14 16 17 15 15 10 8 7 9 12 11 22 28 34 49 60 59 53 53 55 58
50 50 47 47 45 37 27 19 14 14 17 17 13 12 11 7 5 7 9 7 10 13 15 14 11 15 17 14 12 12 5 8 5 9 13 22 21 49 57 59 52 53 54 52 51
49 43 45 44 46 33 24 18 16 19 21 17 15 13 13 13 8 9 7 6 7 13 8 14 13 18 19 16 14 18 12 10 12 21 13 20 46 56 56 53 51 52 54 55 67
44 42 38 43 43 28 22 23 20 22 17 16 17 16 12 13 14 16 8 12 10 14 14 12 10 12 15 18 18 12 15 11 14 15 13 17 35 49 55 50 53 54 54 56 62
43 37 32 41 28 24 20 20 21 19 19 19 20 18 15 14 16 14 17 21 20 17 15 14 12 12 17 15 12 12 14 18 16 17 14 17 28 39 56 55 55 55 54 55 62
41 34 35 34 21 24 19 22 26 18 21 19 21 19 16 15 16 16 21 25 23 24 14 15 13 12 12 16 22 13 11 15 15 11 26 25 26 46 52 53 53 53 55 59 64
33 38 42 25 19 19 19 18 19 14 13 17 19 20 19 13 11 19 22 23 26 33 29 25 16 10 10 14 15 24 23 22 23 23 27 25 26 48 50 53 53 53 55 57 57
39 39 35 25 23 16 20 17 16 20 16 18 17 20 19 18 18 19 19 23 24 33 55 36 22 14 11 12 21 23 25 26 23 23 25 24 32 47 50 51 52 51 52 53 52
40 33 37 30 24 24 20 20 18 16 21 19 19 18 16 18 17 18 26 25 23 40 35 28 15 33 23 24 23 23 23 25 24 23 24 25 40 43 47 50 51 49 50 52 52
34 37 35 35 32 31 30 20 19 18 21 23 18 19 18 16 18 25 30 26 22 26 27 37 31 28 20 27 29 25 24 29 27 31 32 42 43 45 50 49 49 48 47 51 56
42 43 38 36 32 29 26 27 26 28 27 28 30 25 31 32 32 30 31 32 26 37 27 35 32 34 30 31 28 17 24 27 31 35 38 39 40 48 50 51 50 49 50 53 58

GFSSW_sfc_dewp_060.txt.gz
Dewpoint
56 56 56 56 56 57 57 57 57 57 57 58 58 58 59 59 58 53 25 34 57 73 71 68 65 61 62 58 58 53 48 41 41 42 40 43 42 55 56 57 58 59 61 62 66
56 56 56 56 56 57 57 57 57 58 58 58 58 58 58 60 50 34 47 68 72 72 61 57 57 53 52 50 50 44 42 38 41 43 43 42 42 49 55 57 59 61 63 65 67
55 55 55 55 55 56 57 57 57 57 57 57 57 58 58 59 37 34 66 71 70 72 48 36 38 46 39 33 30 41 34 36 36 42 44 43 41 43 54 56 58 60 64 66 66
55 55 54 54 55 55 56 57 57 57 57 57 57 58 59 54 32 38 72 73 71 64 37 31 24 18 19 23 25 27 32 32 30 35 43 43 42 42 52 51 56 63 65 66 66
54 54 54 54 54 55 55 56 56 56 56 57 57 58 48 22 13 64 72 72 63 41 30 24 17 19 23 24 24 24 24 24 25 30 38 44 43 43 43 52 60 64 66 66 66
54 53 54 54 54 55 55 56 56 56 56 56 57 58 37 7 17 62 55 45 36 28 18 17 11 24 25 24 23 22 22 24 33 43 45 43 46 44 47 59 60 64 66 66 67
53 53 53 53 54 54 55 55 55 55 56 56 57 55 35 8 28 49 44 33 29 21 10 20 17 25 26 23 24 21 24 31 30 38 44 44 42 43 53 59 59 60 63 65 66
53 53 53 53 53 54 55 54 54 55 57 58 57 52 14 20 33 36 34 28 26 24 20 24 26 24 23 22 14 21 29 25 26 36 39 38 32 39 58 58 58 59 62 63 63
52 52 53 53 54 54 54 54 54 55 58 59 51 42 23 36 21 28 30 23 26 26 24 21 21 19 16 12 7 15 16 24 30 33 36 37 30 34 57 58 59 59 63 62 62
52 53 53 54 54 53 53 54 53 55 56 53 47 20 13 14 25 26 25 29 25 19 22 21 20 17 16 12 6 12 14 18 22 25 31 33 33 34 48 58 58 60 63 62 62
52 53 53 53 53 53 51 29 26 24 28 25 25 12 22 25 27 23 22 13 12 15 8 21 16 15 15 15 14 15 14 15 16 20 25 27 30 31 39 51 57 59 62 63 62
52 52 53 53 52 52 46 27 25 26 23 24 23 27 30 26 20 20 19 13 18 14 20 16 13 16 21 20 18 16 15 14 15 25 29 31 30 47 44 47 50 58 61 61 62
52 52 52 52 52 41 33 25 32 27 22 20 21 20 19 23 20 17 16 15 13 14 15 14 13 17 18 17 17 14 13 14 13 26 30 27 22 36 48 51 56 61 62 61 62
52 52 52 51 32 40 30 30 33 29 13 12 15 16 15 18 12 21 18 15 17 10 15 14 16 16 16 15 14 11 15 14 21 28 19 25 16 27 45 57 62 63 63 63 63
52 52 52 50 43 33 28 35 30 17 0 9 12 15 11 5 5 14 18 12 12 12 11 10 15 15 15 13 12 10 16 19 26 22 16 19 16 20 46 55 60 62 56 57 61
52 51 50 44 42 40 39 33 23 16 7 9 17 7 6 6 5 11 10 13 16 12 18 12 18 14 13 16 13 17 11 12 18 16 11 16 22 23 42 54 58 55 52 53 55
51 50 49 46 18 36 34 22 17 14 13 10 10 13 7 4 4 7 7 7 8 7 7 10 12 15 16 15 17 10 7 7 8 8 10 23 26 28 50 51 58 54 53 56 54
50 50 47 47 46 39 25 19 13 12 14 17 15 14 13 10 7 7 7 6 12 9 11 5 4 14 16 13 13 10 6 8 1 7 10 24 21 36 57 58 57 54 55 56 54
49 43 42 43 46 34 23 17 18 17 21 17 14 13 13 13 11 9 5 5 7 12 5 13 11 16 17 15 13 17 12 11 11 16 12 18 47 52 56 53 52 52 54 54 52
42 41 40 44 44 27 21 22 16 20 17 14 16 16 14 14 11 14 10 15 11 12 9 9 7 11 14 18 16 15 15 12 14 12 12 17 36 41 54 53 52 52 53 55 66
41 35 36 43 29 23 19 19 20 21 19 19 19 16 18 15 15 13 18 20 22 22 13 12 10 9 17 15 12 12 13 17 16 16 14 14 23 38 54 55 51 52 53 55 61
35 27 37 31 17 23 20 21 27 18 20 17 21 19 18 17 13 14 19 23 23 27 13 20 10 8 8 18 23 16 14 16 14 12 24 22 23 41 50 56 55 54 56 56 60
32 34 42 27 19 19 21 18 19 14 13 13 19 19 18 15 12 15 21 21 23 34 31 17 13 9 9 9 19 23 20 20 20 24 27 22 22 48 50 54 56 55 56 58 62
37 38 35 26 24 18 19 19 17 19 16 14 16 20 18 15 17 16 19 22 25 32 49 36 18 11 8 9 18 27 27 27 24 23 24 24 25 34 48 51 54 54 55 54 56
38 30 38 26 26 23 21 21 19 20 19 19 18 17 16 17 15 17 29 25 22 38 36 24 22 29 22 20 24 24 24 27 26 25 23 25 30 33 43 52 54 53 53 53 53
32 38 38 33 34 30 31 25 21 22 20 19 18 18 17 14 12 18 29 26 22 25 32 35 29 34 21 25 30 26 26 28 29 30 34 37 36 41 46 49 50 51 50 50 52
38 43 38 35 33 28 27 26 26 28 24 22 28 29 24 27 28 30 30 32 27 34 25 31 30 32 29 34 27 21 23 27 33 36 38 35 35 41 45 51 50 50 50 50 51

GFSSW_sfc_dewp_063.txt.gz
Dewpoint
56 56 56 56 57 57 57 57 58 58 58 58 58 58 58 59 59 54 27 37 67 74 70 64 63 65 66 61 59 56 46 34 29 34 32 43 46 53 55 56 56 58 59 61 67
56 55 55 55 56 57 57 57 58 57 58 58 58 58 58 59 49 32 52 70 73 72 62 59 58 59 56 51 51 48 42 30 32 32 32 39 42 50 54 55 57 59 62 65 67
55 55 55 55 55 56 57 57 57 57 57 57 58 58 59 58 35 34 70 73 72 65 55 50 52 53 41 38 39 44 32 27 27 31 32 36 41 48 50 55 55 58 61 65 66
55 54 54 54 55 55 56 56 57 57 57 57 57 58 59 50 31 36 72 72 71 50 48 33 44 22 19 21 26 31 31 32 28 23 29 39 41 42 48 47 55 59 62 64 65
54 54 54 54 54 54 55 56 56 56 56 57 57 58 44 14 8 62 73 72 66 41 30 25 19 18 16 23 25 24 23 23 22 34 37 42 40 41 45 50 57 62 63 63 64
54 54 54 53 54 55 55 55 55 56 56 57 57 58 28 7 32 60 61 62 52 35 27 21 11 17 23 25 23 23 21 21 28 41 44 41 43 43 46 57 61 63 62 62 64
53 53 53 53 53 54 55 55 55 55 56 57 57 53 27 8 41 50 44 38 34 27 13 16 10 20 23 22 23 20 20 22 31 37 43 44 42 43 53 58 61 62 62 63 65
53 53 53 53 53 54 54 54 54 56 57 59 57 51 12 16 30 37 41 32 26 26 15 22 26 23 22 23 15 16 25 22 26 33 42 41 33 36 55 57 60 62 63 65 66
52 52 53 53 54 54 53 54 55 55 58 58 49 34 9 35 16 24 32 25 25 25 25 22 23 21 19 16 16 18 14 21 24 27 34 32 22 31 54 56 58 61 63 64 64
52 53 53 54 54 53 53 54 53 55 55 53 47 26 16 8 22 25 29 27 24 19 21 22 22 21 19 16 20 14 12 13 19 23 20 19 23 27 44 55 57 59 62 63 63
53 53 53 53 53 52 51 32 26 27 26 27 26 19 19 25 26 24 21 24 15 16 12 20 16 17 18 20 17 16 17 18 19 19 20 25 30 32 43 52 57 59 62 62 62
52 53 53 53 52 52 45 28 27 26 23 25 24 23 25 26 20 20 19 16 19 16 20 19 17 19 18 19 17 18 17 16 17 24 24 27 28 47 51 52 52 59 62 62 63
52 53 52 52 51 41 35 28 31 28 25 22 22 19 18 23 18 18 18 17 16 17 17 15 13 18 16 16 17 16 17 18 15 21 29 26 24 40 54 58 56 59 62 63 63
52 52 52 51 35 38 31 33 31 30 18 11 11 15 17 20 13 19 18 17 15 14 18 15 16 16 16 16 17 16 17 15 15 19 13 26 10 36 56 59 60 61 61 62 63
52 52 51 50 40 27 29 33 29 25 5 9 9 16 15 9 5 12 19 16 16 14 17 13 16 17 17 14 17 15 15 19 22 25 21 19 15 28 49 54 59 61 61 62 63
52 51 50 44 42 34 35 32 28 18 8 6 14 7 8 10 6 9 15 17 18 16 16 13 15 15 12 16 16 16 15 18 22 18 12 22 22 21 39 49 57 60 61 62 63
51 50 48 46 20 37 36 27 20 14 14 8 11 13 13 6 6 8 12 15 13 18 18 15 12 14 16 13 16 14 16 16 11 9 9 28 25 27 43 50 53 59 58 55 56
50 50 48 46 45 38 28 23 22 17 14 15 16 14 13 13 6 6 12 11 12 14 15 13 9 11 14 14 14 17 18 14 14 9 9 27 20 20 51 58 60 57 60 56 55
49 42 42 42 46 41 25 21 19 22 18 15 12 13 15 14 12 10 10 10 11 16 14 15 11 14 16 16 17 20 19 16 21 23 15 17 32 43 53 56 57 59 59 58 56
45 41 38 44 45 30 20 24 21 17 18 13 14 17 16 17 14 16 12 17 10 13 17 19 12 11 14 17 18 20 20 17 20 23 18 19 29 25 46 52 57 57 57 57 57
40 32 39 45 33 24 14 21 21 20 21 15 18 13 16 16 16 14 16 20 24 19 16 16 18 13 18 19 17 17 18 21 20 22 14 14 19 41 48 54 56 57 57 56 54
33 20 39 38 19 25 20 23 28 16 19 17 19 16 12 13 18 15 17 21 25 25 18 19 19 16 10 17 19 19 22 27 16 28 27 24 14 30 41 49 57 56 57 56 55
29 31 41 32 17 20 22 18 19 15 16 15 17 20 19 19 22 17 18 20 24 32 30 24 23 15 18 15 22 22 21 24 31 33 34 22 18 43 48 50 57 57 57 57 57
36 38 36 33 28 22 22 23 21 19 17 14 12 18 21 20 23 20 18 20 24 30 48 38 28 26 11 18 21 27 24 24 29 27 30 24 28 35 40 49 52 59 58 58 59
36 32 39 29 28 28 26 25 23 23 22 21 20 16 19 24 20 20 27 23 20 41 39 34 33 30 25 22 23 23 25 26 28 30 25 29 31 37 43 47 51 55 59 57 56
36 40 40 34 37 33 33 31 26 26 25 23 23 20 20 25 25 22 28 30 26 28 34 37 38 37 28 27 30 23 23 26 27 28 31 35 34 45 47 49 49 52 56 57 57
33 42 40 37 35 31 29 28 27 28 29 23 22 26 22 21 23 31 32 35 34 33 35 38 37 37 24 35 27 23 25 24 32 39 41 32 44 52 52 53 52 52 52 54 55

GFSSW_sfc_dewp_066.txt.gz
Dewpoint
56 56 56 57 57 58 58 58 58 58 58 58 58 58 59 59 59 53 27 39 62 73 70 59 61 62 62 54 55 51 36 27 26 27 30 37 40 47 50 52 55 55 56 55 64
56 55 55 56 57 57 57 57 57 57 58 58 58 58 59 59 47 30 60 72 73 74 56 56 54 59 51 44 44 43 31 26 25 27 28 29 37 42 49 50 54 56 61 60 64
55 55 55 55 55 56 56 57 57 57 57 57 58 58 59 58 37 34 72 73 72 70 52 47 46 49 37 30 33 34 29 25 25 26 27 30 32 39 46 48 50 54 60 61 62
55 55 55 55 54 55 56 56 56 56 57 57 58 59 59 49 25 41 73 73 73 54 49 37 42 34 27 27 26 29 27 23 22 23 32 33 34 37 43 43 49 52 59 60 60
54 54 54 54 54 54 55 56 56 56 56 57 58 59 46 13 9 63 74 72 62 44 39 30 30 27 28 26 26 26 25 23 21 25 37 38 36 37 40 42 49 55 58 59 58
54 54 54 54 55 55 55 55 55 56 56 57 58 58 33 8 32 57 57 58 49 40 30 29 24 17 21 25 25 26 24 23 23 31 41 38 37 41 47 48 52 56 57 58 58
53 54 54 54 54 55 55 54 55 56 57 57 58 51 21 9 31 48 52 51 44 35 24 17 14 16 22 24 23 22 23 25 27 28 29 39 34 38 43 52 54 56 57 58 61
53 54 54 54 54 54 54 54 55 56 58 59 58 44 10 14 22 36 37 34 32 32 19 20 22 22 22 23 21 21 25 22 26 27 29 27 23 27 45 51 54 56 56 59 62
53 53 54 54 54 54 53 53 55 56 58 58 48 29 9 36 19 17 27 22 25 24 26 22 23 21 20 17 22 24 19 21 19 23 25 22 21 28 44 49 54 58 59 60 63
53 53 53 53 53 53 53 54 55 54 55 50 43 31 18 7 18 22 26 26 19 21 22 22 21 18 16 14 14 19 19 18 18 20 22 21 19 28 38 46 52 56 61 61 61
53 53 53 53 53 52 48 34 31 34 28 18 23 17 10 17 23 21 22 26 24 19 15 21 16 15 15 17 18 18 19 18 19 17 19 23 21 31 41 43 50 55 59 61 61
52 53 53 53 52 52 45 26 25 25 22 18 18 20 21 22 18 18 21 20 19 14 13 17 14 14 17 18 17 18 18 16 16 17 20 21 23 40 48 47 46 53 57 59 60
52 53 52 52 51 42 28 29 27 25 25 15 17 12 10 18 13 11 19 17 16 14 12 13 10 16 16 16 17 16 15 15 13 16 19 22 21 36 45 53 51 49 54 58 60
52 52 52 50 39 26 27 30 21 28 16 9 8 11 15 13 10 10 14 17 15 13 13 13 11 9 12 12 12 13 12 13 14 14 14 21 15 33 41 50 54 52 53 57 60
52 52 52 50 35 22 26 21 23 29 6 5 6 16 14 12 6 10 12 13 16 14 15 15 13 11 9 8 12 14 15 16 19 17 18 18 13 26 46 42 51 55 57 57 60
51 51 51 40 36 29 26 23 29 16 7 3 9 8 10 12 8 11 14 15 14 14 16 14 13 13 10 11 14 14 16 18 20 14 15 19 16 16 21 30 42 57 58 58 60
50 50 49 38 17 29 28 22 18 11 9 1 4 9 9 9 9 8 13 15 12 17 20 16 14 11 12 12 14 15 16 14 14 10 11 24 16 21 21 36 47 51 58 60 61
49 49 46 39 39 36 24 21 19 12 8 11 10 9 9 11 10 8 9 11 14 15 12 16 14 14 13 13 14 17 16 14 19 11 11 25 15 18 24 38 53 54 57 58 58
49 30 35 39 42 40 19 17 18 16 12 7 7 8 8 13 13 11 11 8 10 14 17 14 14 10 10 10 10 16 18 14 18 17 10 9 16 25 24 36 48 54 57 58 54
34 31 31 41 42 31 12 18 17 18 16 14 9 10 11 13 15 15 12 10 8 10 14 16 15 9 10 13 17 17 17 16 14 20 18 13 19 18 31 34 50 53 57 60 59
34 22 40 41 35 17 8 13 14 17 18 14 15 15 14 15 15 14 13 21 20 11 14 12 16 13 14 16 13 16 15 18 14 20 15 14 15 24 26 35 46 52 54 59 59
28 15 39 35 17 7 5 13 25 15 16 16 16 14 14 12 16 17 16 21 26 25 14 14 14 15 12 12 18 16 17 20 15 25 19 19 14 16 20 36 49 50 55 58 57
19 22 38 35 12 9 8 11 14 13 14 14 13 14 13 16 19 19 18 20 24 25 26 25 16 16 16 13 17 15 14 19 22 30 26 19 16 29 39 43 49 54 57 59 54
29 28 35 29 26 26 17 14 10 14 13 13 15 15 18 19 19 22 16 17 21 29 49 37 27 27 10 18 16 19 14 16 22 19 19 20 21 37 43 44 48 52 58 59 57
31 31 41 30 23 22 25 26 24 21 22 20 20 16 15 19 18 18 19 17 19 40 38 36 34 28 22 21 17 17 13 14 20 22 23 26 24 44 48 49 50 52 57 59 59
37 39 39 37 37 35 32 31 29 26 27 23 21 18 19 20 21 19 18 23 21 25 31 36 32 34 27 21 23 19 21 22 23 23 27 29 35 48 50 52 52 53 52 55 60
30 40 40 39 35 33 30 30 28 29 30 25 23 23 24 24 20 22 26 33 34 31 27 30 32 31 25 26 24 21 24 24 26 31 34 27 46 50 52 53 58 58 57 56 54

GFSSW_sfc_dewp_069.txt.gz
Dewpoint
56 56 57 57 57 57 57 58 58 58 58 58 59 59 59 60 59 52 27 42 57 73 73 60 59 56 56 53 47 46 42 26 23 26 27 28 33 41 44 49 51 50 51 55 60
56 56 56 57 57 57 57 57 57 57 58 58 58 58 59 59 41 30 59 73 71 73 59 52 52 51 50 40 37 36 31 25 25 25 25 26 28 35 43 45 51 53 53 58 59
55 56 56 55 56 56 56 56 57 57 57 57 58 59 59 57 38 33 72 74 71 72 49 49 40 46 40 33 30 31 29 27 25 26 25 27 28 31 38 41 48 52 54 58 59
55 55 55 55 55 55 56 56 56 56 57 57 58 59 59 44 25 48 74 74 72 59 48 45 37 40 35 30 29 27 29 28 25 26 25 31 29 30 34 38 44 51 56 57 59
55 54 54 54 55 55 56 56 56 56 56 57 58 59 43 29 14 62 74 73 60 56 43 40 35 36 32 28 29 28 28 27 25 26 32 33 31 33 35 38 45 51 56 56 58
54 54 55 55 55 55 55 55 55 55 56 57 58 59 43 15 32 57 55 58 46 41 37 32 30 30 26 25 26 28 28 27 26 26 32 31 29 33 42 43 48 53 55 55 57
54 54 55 54 54 55 55 54 55 55 57 58 59 50 24 13 18 46 50 47 42 37 29 27 26 23 24 26 25 24 24 26 24 25 27 27 24 38 40 45 50 52 53 56 57
54 54 54 54 54 54 54 53 54 55 58 60 60 45 23 10 18 37 46 43 41 34 27 19 20 21 22 25 24 22 21 21 22 26 24 25 23 29 37 46 50 51 52 55 58
53 54 54 54 54 53 53 53 54 57 58 59 49 38 15 34 11 20 34 34 34 27 28 22 21 19 17 16 15 19 19 18 21 23 22 24 24 25 32 42 49 52 53 55 59
53 53 53 53 53 52 52 53 55 53 53 48 40 27 19 10 7 8 15 21 21 20 21 23 18 16 15 12 11 13 17 19 19 19 19 21 22 21 30 35 44 51 54 55 58
53 53 53 53 52 51 48 31 30 39 33 18 19 17 8 8 17 18 14 15 18 17 17 19 14 13 14 15 15 14 16 19 21 19 19 19 24 24 30 31 38 51 55 56 56
52 53 53 53 52 51 46 23 25 22 21 17 14 12 18 17 15 13 16 18 20 17 16 13 12 14 11 14 16 16 15 15 15 15 16 19 21 23 29 36 37 47 52 54 56
52 52 52 52 51 44 19 25 27 21 21 12 10 10 7 9 11 12 15 17 18 18 14 12 9 11 10 14 13 13 15 16 15 14 13 19 23 24 27 42 44 43 48 53 55
52 52 52 51 41 21 23 29 20 25 17 7 6 10 11 7 10 11 10 16 17 17 16 13 12 10 10 12 8 12 12 11 10 13 11 16 15 27 26 33 42 43 44 50 55
51 51 51 50 39 21 19 17 19 28 10 6 1 10 10 9 9 10 9 13 17 17 17 15 12 12 12 8 6 10 10 13 15 15 15 13 17 21 27 29 33 39 48 49 55
51 51 51 35 35 26 21 19 23 17 12 6 4 7 8 11 11 10 9 10 15 17 18 17 15 13 12 11 4 9 12 16 15 13 11 17 15 19 23 30 27 42 48 53 56
50 49 48 38 18 19 22 19 17 13 13 10 3 3 4 7 13 13 13 13 12 17 19 17 15 13 13 12 11 13 13 13 14 13 10 16 16 22 20 20 28 34 52 56 58
49 48 46 38 29 29 23 16 20 16 14 9 5 4 4 4 6 11 15 14 15 15 14 15 15 15 15 14 14 13 14 12 19 14 13 22 19 18 20 19 30 47 50 58 57
48 26 24 30 36 33 21 13 17 20 15 11 9 6 8 5 7 9 11 11 14 17 19 16 15 14 14 14 14 15 15 12 15 18 13 15 17 20 21 20 25 46 52 56 57
38 28 24 36 38 31 15 19 17 15 15 13 13 12 9 7 9 11 12 10 7 7 13 17 18 13 13 13 12 12 12 14 13 21 20 15 19 17 26 25 33 45 50 56 55
39 18 38 37 38 24 9 12 15 12 17 17 14 12 11 12 14 13 11 10 8 7 11 11 17 16 14 14 12 12 12 15 13 15 14 15 15 29 25 27 33 46 50 57 55
24 16 35 32 25 16 9 10 21 12 13 15 16 14 16 15 15 15 13 16 20 15 11 14 13 17 14 13 13 13 17 17 15 24 18 19 15 16 21 33 40 44 51 57 58
24 15 33 29 20 16 15 7 8 12 15 14 15 15 14 15 19 16 19 20 23 24 23 18 15 14 17 12 13 14 15 19 20 23 26 20 21 30 33 38 47 48 54 58 57
27 20 29 30 24 25 23 16 12 8 10 13 15 15 15 16 19 21 19 16 20 26 51 41 23 22 10 19 16 18 13 15 18 21 20 17 20 34 42 45 48 51 58 59 56
30 24 37 31 24 22 22 23 23 20 18 21 19 15 16 20 18 18 16 18 18 37 31 29 30 24 20 14 20 16 11 11 15 19 18 26 41 48 48 49 50 53 57 59 58
31 34 37 35 38 35 32 29 28 27 27 25 24 18 18 21 21 19 17 22 23 23 26 31 33 33 24 15 16 14 13 15 14 14 17 17 39 39 49 51 52 52 52 55 58
25 27 36 36 34 33 28 28 28 29 30 27 25 22 21 21 20 16 17 24 28 30 28 31 32 34 24 19 17 17 16 14 17 17 18 33 46 47 50 55 56 56 57 57 55

GFSSW_sfc_dewp_072.txt.gz
Dewpoint
56 56 57 57 57 57 57 57 58 58 58 58 58 59 59 60 59 50 35 41 55 72 71 55 59 56 53 52 50 42 38 33 21 23 24 24 30 37 38 46 48 49 50 56 59
56 56 56 56 56 57 57 57 57 57 58 58 58 58 59 60 40 22 52 73 70 72 51 51 50 51 47 46 38 33 33 27 23 24 23 24 25 29 36 50 50 51 56 57 58
56 56 56 56 55 56 56 56 57 57 57 57 58 59 59 58 29 21 74 74 71 70 41 48 47 40 42 40 33 29 28 28 24 24 23 22 28 29 33 46 54 52 55 56 58
55 55 55 54 54 55 56 56 56 56 57 57 58 59 59 42 25 46 73 73 72 52 43 45 44 38 36 35 29 27 28 28 27 24 24 29 27 27 32 37 47 54 55 57 58
55 54 54 54 55 55 56 56 56 56 56 57 58 59 42 22 25 59 74 71 59 54 46 45 41 37 33 31 27 27 26 28 26 25 25 29 30 33 29 38 41 54 54 56 57
54 55 55 55 55 55 55 55 55 55 56 57 58 59 42 21 37 54 53 56 44 45 44 40 39 34 30 27 25 24 24 26 27 27 26 29 26 32 41 40 44 54 54 55 57
54 54 55 55 55 54 54 54 54 55 56 57 59 51 28 18 12 45 48 45 39 38 33 32 35 30 29 26 24 24 22 21 24 25 24 26 24 29 39 41 45 51 53 55 58
54 54 54 54 54 54 54 53 54 55 56 58 60 47 24 16 13 15 42 43 39 37 33 29 22 19 20 21 20 20 21 17 19 23 24 24 23 33 37 40 46 48 51 54 56
53 53 54 54 54 53 53 53 54 55 57 59 49 39 27 34 12 10 31 39 37 35 30 26 20 19 18 15 14 14 12 17 19 19 23 22 22 24 26 39 44 48 51 53 56
53 53 53 53 53 53 52 53 54 53 51 46 40 29 22 16 10 9 18 33 33 30 24 22 20 17 14 13 11 13 11 14 20 19 22 18 19 22 24 29 36 47 51 53 56
52 53 53 53 52 52 47 36 29 36 32 24 21 18 7 12 10 8 7 13 22 21 20 19 17 15 13 15 14 13 13 13 17 20 20 20 21 19 24 27 29 45 53 54 56
52 52 52 52 52 51 47 27 24 21 17 16 18 21 18 15 9 11 14 11 15 16 17 15 15 16 14 13 12 14 16 16 15 14 15 15 17 19 22 27 31 36 51 52 54
52 52 52 52 50 45 25 19 26 17 16 15 11 7 14 12 14 13 13 14 13 15 16 16 14 11 10 11 9 13 13 13 13 15 14 15 17 21 22 26 33 33 47 52 55
52 51 51 51 40 27 22 24 18 17 18 14 11 9 5 9 11 10 11 15 16 17 19 17 14 11 9 10 10 13 10 10 11 13 10 13 11 31 25 25 34 36 36 48 54
51 51 51 50 34 28 22 18 17 20 14 12 9 11 5 4 14 11 8 10 15 16 18 17 15 13 12 11 10 10 8 9 11 13 15 14 11 22 27 29 36 36 38 42 54
51 50 50 33 39 36 24 17 19 17 15 12 9 3 2 4 7 15 11 11 11 13 17 17 16 13 13 12 11 10 6 9 13 13 13 18 12 18 24 30 28 44 43 44 55
50 49 47 39 21 19 20 19 14 15 17 12 9 8 4 6 6 9 13 13 11 16 19 17 15 15 15 14 14 11 7 11 14 12 11 18 12 23 29 29 32 43 46 52 54
49 48 45 38 31 30 25 18 19 16 16 15 10 8 6 3 5 6 11 12 12 11 12 15 13 15 16 15 15 13 12 12 19 12 15 26 17 20 23 20 32 38 53 54 55
47 35 24 31 36 31 23 17 19 20 16 15 16 13 11 5 5 6 7 11 12 14 19 15 13 13 14 15 15 16 17 11 13 14 11 15 25 22 21 21 22 43 50 54 56
38 33 29 25 33 28 20 20 18 18 15 15 17 15 13 10 8 8 10 9 11 12 17 18 20 13 13 15 15 15 14 13 15 22 21 16 24 20 35 31 33 43 47 54 57
39 24 33 31 33 28 18 17 17 15 17 15 17 16 15 13 12 14 18 12 13 7 10 11 21 17 17 19 15 15 14 15 11 17 15 18 19 37 38 35 40 44 48 54 55
29 20 33 31 27 26 21 18 23 14 14 14 16 17 17 15 17 19 18 22 24 23 9 10 9 17 12 15 17 14 17 16 15 26 22 25 20 21 28 29 35 37 52 56 54
29 25 18 26 17 20 22 17 11 11 12 13 15 17 18 17 19 18 17 18 22 22 30 30 17 15 17 14 17 13 13 15 24 30 29 24 20 35 43 43 46 50 54 60 58
27 21 20 30 22 23 23 23 20 15 11 12 15 17 17 18 19 18 15 16 19 19 52 39 27 33 13 20 21 24 12 13 18 26 24 16 41 50 52 53 52 57 60 60 60
32 23 26 34 30 30 29 22 21 22 23 12 19 15 16 19 18 17 15 16 17 39 25 30 37 30 19 13 13 18 19 15 15 18 19 24 46 50 48 50 55 58 62 59 56
32 27 32 31 35 34 33 29 23 24 31 29 28 22 22 22 20 20 18 21 22 26 30 34 36 33 26 21 21 16 17 20 17 12 13 18 44 46 49 52 54 55 58 58 59
31 29 24 30 30 31 31 32 24 28 29 30 31 27 26 21 27 23 16 20 22 33 36 40 37 36 30 33 32 24 20 30 19 21 28 30 48 53 54 56 58 58 57 56 55

GFSSW_sfc_dewp_075.txt.gz
Dewpoint
56 56 57 57 57 57 57 57 57 58 58 58 58 58 59 60 59 55 44 40 54 71 72 55 57 58 58 54 52 52 47 37 27 24 24 37 38 47 53 48 50 54 56 60 61
56 56 56 56 56 56 57 57 57 57 57 58 58 58 59 60 51 31 46 69 72 72 54 47 49 51 50 46 43 40 33 33 29 24 23 24 30 43 52 51 52 56 58 60 61
55 56 56 56 56 56 56 56 56 56 57 57 58 58 59 59 41 36 73 72 71 69 42 36 46 46 43 38 39 38 28 28 28 27 24 24 29 44 52 51 51 56 57 59 60
55 55 54 54 54 55 56 56 56 56 56 57 58 59 60 52 21 49 73 73 71 59 45 34 41 43 42 36 36 33 27 28 28 27 27 29 29 35 42 48 53 56 57 58 60
54 54 54 55 55 55 55 56 55 55 55 56 57 59 49 29 27 61 74 72 63 56 40 39 44 43 40 35 31 26 26 24 26 27 28 28 30 34 41 50 54 56 57 58 59
54 55 55 55 55 55 55 55 55 55 55 56 58 59 52 24 30 62 57 60 53 48 42 40 45 41 39 32 29 25 22 23 23 24 27 27 29 37 44 53 54 56 57 57 59
54 54 54 55 55 54 54 54 54 54 55 56 57 53 39 22 19 54 51 51 51 42 38 40 39 35 34 29 28 23 19 21 23 21 24 26 26 35 41 51 53 55 56 57 59
53 54 54 54 54 54 53 53 53 54 55 57 59 51 38 23 17 17 45 47 44 38 36 35 32 27 21 20 18 18 18 17 19 20 20 24 23 34 41 42 53 53 54 57 60
53 53 53 53 53 53 53 52 53 56 57 58 54 45 28 38 23 20 20 40 42 39 38 36 29 23 19 18 17 16 14 15 14 16 19 25 24 29 37 45 48 52 53 56 59
52 53 53 53 52 52 52 52 51 54 53 49 43 35 31 19 22 16 11 28 37 37 34 33 24 21 19 17 13 15 14 13 13 17 21 23 22 22 28 43 48 50 54 56 60
52 52 52 52 52 51 48 40 27 37 36 30 31 24 16 18 18 14 11 19 27 35 30 29 20 19 18 16 14 14 13 14 18 18 17 18 26 23 22 27 41 51 53 57 61
52 52 52 51 51 49 48 40 21 25 20 16 15 15 16 18 19 19 11 8 18 22 25 21 19 18 19 18 15 14 14 18 19 18 15 15 16 18 22 22 30 51 53 56 62
52 52 52 51 49 47 29 24 22 19 17 15 15 15 13 10 13 18 11 13 11 15 16 17 17 17 16 16 13 10 12 16 16 14 15 17 20 22 21 25 31 52 52 54 61
52 52 51 50 40 31 28 23 19 17 18 17 16 15 15 11 7 8 16 14 14 11 14 14 17 17 16 14 10 10 16 15 13 13 13 17 14 20 25 21 34 36 53 53 63
51 51 51 49 40 36 30 30 22 20 17 16 12 13 13 10 8 7 11 13 12 14 15 16 17 18 17 15 12 13 14 12 13 11 15 16 15 18 27 24 35 36 45 54 64
51 51 50 40 43 39 33 28 22 19 18 15 13 13 11 10 8 7 7 15 11 9 14 16 17 17 16 16 15 15 13 13 11 9 13 17 18 15 19 25 40 39 43 55 65
51 49 48 40 29 20 32 27 20 17 18 13 13 13 15 12 7 5 4 9 10 8 9 12 14 15 17 16 17 15 25 11 13 15 15 14 16 16 27 37 43 41 48 56 65
50 48 46 42 41 38 34 26 21 18 17 16 15 15 17 14 9 6 7 8 12 11 13 10 11 15 15 17 19 16 15 14 11 18 16 18 19 18 28 31 44 44 52 56 64
48 38 36 36 39 37 32 22 21 23 19 16 16 16 18 16 15 12 12 9 11 11 11 11 13 17 16 15 15 20 15 16 14 14 14 14 19 27 31 38 45 52 54 55 63
41 37 37 33 37 34 30 26 21 19 18 17 16 18 18 16 15 18 20 19 22 15 17 12 15 16 15 14 15 15 20 14 17 16 17 20 25 29 35 36 52 53 54 57 60
43 37 33 33 36 36 27 23 20 18 16 16 16 17 16 18 18 16 20 20 22 23 23 24 15 17 15 14 15 19 16 15 16 19 15 18 22 32 33 34 45 50 55 57 58
32 32 37 36 34 33 29 27 28 17 15 15 16 17 19 19 19 19 17 20 23 21 20 29 26 15 13 14 17 17 17 17 19 17 24 21 20 49 33 38 47 50 47 54 58
33 33 33 31 25 20 22 21 21 20 14 13 13 16 18 21 22 23 21 18 18 20 28 30 30 26 19 15 12 14 16 22 25 24 16 21 28 51 52 52 55 56 53 55 55
32 30 33 35 34 30 26 25 23 21 23 23 18 18 19 19 22 26 21 18 17 17 51 40 31 33 28 27 24 19 22 22 23 24 16 20 38 50 51 52 56 60 59 63 56
36 35 34 31 29 32 34 34 28 26 24 32 35 23 21 21 23 21 20 20 20 31 32 34 31 35 30 26 21 23 22 22 19 22 25 23 46 46 47 49 62 61 58 62 63
35 31 29 26 31 30 33 35 32 26 31 32 32 32 31 32 29 27 21 24 24 25 29 40 37 41 36 29 31 27 31 28 34 39 34 39 45 46 49 52 57 55 59 65 60
39 37 34 31 25 25 31 37 35 34 34 32 31 31 33 32 34 35 31 31 24 24 36 41 38 38 34 36 32 29 46 45 48 47 49 48 53 55 56 57 58 59 60 62 63

GFSSW_sfc_dewp_078.txt.gz
Dewpoint
55 55 56 57 57 57 57 57 57 57 57 58 58 58 58 59 59 55 33 36 47 71 71 57 55 56 56 58 59 54 49 47 45 26 28 44 43 48 51 53 55 57 58 59 64
55 55 55 56 56 56 57 57 57 57 57 57 57 58 58 60 54 40 49 67 68 72 53 47 43 48 52 50 43 44 43 37 37 27 22 39 44 49 49 50 58 59 59 60 68
54 55 55 55 55 56 56 56 56 56 56 57 57 58 58 59 34 26 72 72 72 69 46 38 36 42 45 44 41 38 35 34 27 31 29 26 45 51 49 49 56 59 59 60 62
54 54 54 54 55 55 56 56 56 56 56 56 57 58 59 53 2 47 72 71 72 57 47 36 35 42 43 42 42 31 29 26 24 24 26 27 38 51 48 48 58 60 60 60 61
54 54 54 54 55 55 55 55 55 55 55 56 57 58 47 23 26 56 73 70 60 54 47 38 40 44 42 42 38 30 27 25 22 22 23 27 27 35 49 51 58 59 60 60 61
54 54 54 54 55 54 54 54 54 54 55 56 57 58 48 28 23 66 61 60 54 50 45 40 42 46 42 39 32 30 23 19 20 21 24 24 26 37 50 55 57 58 59 60 61
54 54 54 54 54 54 54 54 54 54 55 55 56 54 44 17 20 57 57 53 53 48 41 40 40 42 36 32 29 19 17 17 18 20 20 23 20 33 51 56 56 57 58 59 61
53 53 53 53 53 53 53 53 53 54 55 57 57 53 30 28 26 24 49 50 49 47 41 39 38 33 29 24 18 16 17 15 17 18 17 21 20 27 53 55 55 56 57 58 60
53 53 53 53 53 53 52 52 53 56 58 60 52 45 27 39 33 28 18 30 47 44 40 38 36 28 20 18 16 17 14 15 15 16 17 19 18 27 53 54 54 55 57 58 59
53 53 53 53 52 52 51 52 53 54 53 51 45 30 22 16 23 23 20 33 42 42 40 38 30 22 20 17 14 15 14 14 15 15 16 17 21 25 47 53 54 55 56 58 60
53 53 53 52 52 51 49 40 26 24 23 21 23 29 25 24 23 23 21 19 36 38 35 35 27 22 20 19 18 17 15 15 15 16 17 15 18 20 30 51 52 53 55 58 60
53 52 52 52 50 50 47 34 32 22 18 19 18 16 16 16 14 15 20 13 23 25 31 29 26 27 21 21 19 18 16 15 15 19 15 13 15 18 19 29 48 52 55 58 62
53 52 52 51 50 40 27 25 27 22 14 15 15 15 15 15 14 13 16 18 12 19 21 25 26 25 22 19 18 16 15 14 14 16 16 18 16 17 19 24 44 52 57 60 64
52 52 51 50 33 38 28 29 28 27 16 17 16 17 16 16 14 13 11 16 15 9 15 16 18 17 17 17 16 13 15 14 15 18 12 14 11 17 16 21 42 51 57 60 63
52 51 51 50 39 36 24 29 31 20 13 20 17 18 15 13 14 13 14 10 12 13 13 11 13 13 15 16 17 15 16 14 13 13 13 11 13 17 21 21 25 50 55 61 63
52 51 50 44 43 41 38 35 21 16 15 19 17 16 16 16 13 13 9 9 12 13 13 13 15 14 15 17 19 18 15 17 15 10 6 7 15 9 17 18 24 38 53 60 63
51 50 48 42 35 31 36 26 16 14 18 14 17 17 17 17 18 14 10 8 8 11 11 11 10 15 16 16 17 19 12 11 10 9 9 9 15 15 19 22 21 34 53 61 64
50 49 47 44 43 40 31 20 15 17 18 19 17 16 17 17 18 18 13 8 7 10 12 11 9 10 10 15 13 16 12 13 8 9 9 19 16 18 21 21 27 36 54 62 65
48 39 36 38 43 37 26 18 18 21 20 18 17 16 16 16 18 18 19 17 10 13 10 9 9 9 10 10 15 14 16 14 9 16 13 16 16 24 34 43 48 52 61 63 65
44 39 37 37 39 33 24 24 18 20 18 17 16 17 15 14 16 17 18 20 20 23 25 25 18 14 12 16 14 15 16 17 14 15 10 17 19 22 32 44 51 54 62 64 66
39 34 35 35 35 30 23 22 21 22 21 18 14 14 13 15 16 17 17 18 19 22 23 26 24 23 24 17 14 17 17 16 13 16 12 14 18 30 37 35 45 53 60 63 65
34 29 32 33 28 30 27 28 31 23 22 21 16 14 15 19 18 18 19 21 20 24 25 29 24 21 20 21 21 20 17 16 15 13 21 20 19 45 51 55 51 54 59 62 65
32 31 32 28 21 20 20 20 26 27 25 23 18 25 18 19 16 20 21 18 19 25 27 28 28 22 26 20 20 16 15 16 19 18 16 15 17 49 55 57 56 60 61 62 64
32 27 31 31 29 29 31 30 31 33 28 31 33 30 30 21 23 18 18 20 19 22 54 39 29 29 28 30 28 26 24 25 22 20 16 16 21 47 54 53 55 57 60 62 63
35 32 27 25 24 24 27 29 31 33 31 31 30 31 31 29 28 27 26 28 29 34 29 24 29 32 35 35 31 31 29 37 27 33 21 21 34 46 52 52 52 55 58 59 57
33 31 32 28 26 23 28 31 31 35 34 29 30 32 30 31 35 35 35 31 25 24 25 34 27 36 33 37 46 48 45 44 46 46 45 44 44 52 52 53 53 54 55 56 59
38 35 33 32 23 21 23 24 28 29 35 34 33 34 34 35 40 39 39 34 31 25 23 34 33 31 28 36 36 43 49 48 51 51 49 49 52 56 57 58 59 60 58 63 65

GFSSW_sfc_dewp_081.txt.gz
Dewpoint
55 54 55 55 56 56 56 57 57 57 57 57 58 58 58 59 59 56 32 34 48 72 69 63 60 54 55 58 61 54 51 48 47 43 26 43 44 47 51 55 57 58 58 60 65
54 54 54 54 56 56 56 56 56 57 57 57 57 57 58 59 54 42 50 67 70 72 57 54 49 55 54 56 54 52 48 43 42 35 26 41 44 46 51 54 59 58 62 63 65
54 55 55 54 54 56 56 56 56 56 56 56 57 57 58 59 28 9 70 73 71 69 45 41 36 36 45 45 42 38 35 35 28 26 27 28 42 51 51 55 58 58 62 63 65
54 54 54 55 55 55 55 55 55 56 56 56 57 57 58 54 -2 36 72 73 72 58 44 36 33 35 43 42 42 37 37 31 25 23 23 25 45 50 49 46 58 61 64 65 65
53 53 53 54 55 55 55 55 55 55 55 56 56 57 47 20 15 45 72 69 56 50 40 35 34 39 41 42 40 36 31 24 21 20 21 24 45 49 49 58 59 60 65 65 65
54 54 54 54 55 54 54 54 54 54 55 55 56 57 44 22 16 62 58 54 50 46 43 41 35 43 43 42 34 33 27 20 19 21 23 20 22 42 52 60 59 59 60 63 65
54 54 54 54 54 54 54 54 54 54 55 55 56 53 39 6 16 60 56 48 51 45 39 42 38 40 41 36 33 23 17 17 20 21 20 19 15 23 52 59 59 59 59 60 62
54 54 54 54 54 54 54 53 54 55 57 58 56 53 15 21 30 29 53 51 51 50 44 42 40 37 36 32 18 17 17 15 19 17 18 17 15 17 55 58 58 59 59 60 61
54 53 53 53 54 53 53 52 55 55 58 58 51 37 12 36 32 32 30 37 45 47 45 43 38 34 29 18 17 17 14 15 16 18 20 19 15 20 54 56 57 57 58 59 61
54 53 53 53 53 52 52 53 54 55 55 54 46 27 19 15 23 22 23 24 29 42 44 40 33 28 21 18 18 16 14 14 16 17 16 16 16 21 53 55 56 56 57 58 59
54 53 53 53 52 51 50 32 25 21 22 18 17 21 20 22 23 18 20 19 35 40 36 38 32 30 27 20 20 18 17 16 17 17 19 15 18 20 53 54 54 55 57 58 58
54 53 53 52 51 51 42 23 26 26 22 20 19 18 19 22 17 17 18 17 31 31 36 33 31 34 33 24 21 20 18 17 18 18 17 17 15 17 48 53 54 55 56 57 59
54 53 53 52 50 41 35 25 28 27 16 16 16 15 15 16 16 15 16 17 16 20 28 31 29 33 28 26 21 19 18 17 17 18 17 15 16 15 25 42 53 54 56 57 59
53 53 52 50 40 38 33 27 32 29 15 15 17 16 16 17 14 17 16 15 15 13 16 20 22 26 24 21 21 18 19 18 17 16 13 13 10 14 14 19 36 51 54 56 60
53 53 51 50 39 37 35 37 35 20 8 16 19 18 18 15 15 17 17 14 11 12 14 15 15 17 18 18 18 17 19 18 18 16 12 15 10 14 20 15 22 49 53 56 60
53 52 51 45 42 41 40 37 21 15 11 18 18 18 17 18 18 16 13 14 15 12 13 11 14 13 11 11 18 19 21 17 15 10 8 9 8 10 11 13 15 48 54 57 62
52 50 49 44 36 35 37 22 15 14 17 16 18 17 17 17 17 19 18 11 8 8 9 14 11 13 15 16 20 18 14 14 14 11 11 9 13 13 14 17 20 23 52 58 62
50 49 46 45 44 40 27 16 13 17 18 19 17 17 16 16 16 18 18 17 10 10 12 11 8 12 13 13 11 16 14 14 9 10 12 15 13 16 20 22 29 34 39 57 62
49 39 37 36 43 38 21 14 15 19 20 17 17 16 17 15 16 17 17 19 20 18 12 9 11 13 13 11 12 12 15 15 12 14 12 14 15 21 23 31 53 51 47 56 61
42 38 35 40 41 28 18 22 18 19 18 19 18 18 15 15 14 16 17 18 18 18 24 22 20 20 18 16 16 12 15 12 14 15 10 15 16 18 18 31 51 57 50 57 62
33 30 31 38 34 29 19 21 22 22 24 22 20 19 18 14 16 16 17 19 19 19 23 24 23 22 26 20 19 18 16 15 15 16 13 13 17 23 33 44 42 56 61 62 64
32 28 32 33 29 29 27 28 32 24 28 25 22 21 17 16 14 18 17 20 19 21 25 26 24 22 22 23 21 17 15 16 20 21 18 17 17 35 52 56 54 58 63 65 66
29 30 32 30 24 20 24 26 24 31 31 27 28 32 27 18 19 19 21 20 23 23 31 31 24 23 25 29 26 24 18 17 17 18 17 17 18 47 56 55 59 60 62 65 67
31 26 27 29 27 27 24 25 29 33 33 31 32 32 31 29 28 21 29 31 34 31 54 40 28 26 24 27 30 31 29 20 18 19 19 18 18 48 50 52 52 56 62 64 63
33 32 27 24 25 25 25 27 29 28 35 33 30 32 31 28 33 35 35 36 34 40 28 29 27 29 34 35 40 35 38 29 37 32 29 40 47 54 54 53 53 55 59 58 59
34 31 32 30 27 21 26 26 26 26 32 33 32 32 33 33 36 35 37 36 33 32 30 29 26 35 31 33 40 46 47 47 48 45 49 51 51 57 58 59 58 57 60 62 58
37 34 33 33 24 23 23 24 25 25 30 34 35 35 35 36 38 39 39 38 36 34 28 28 30 29 24 29 38 37 48 49 50 50 51 48 51 56 56 57 58 60 61 63 61

GFSSW_sfc_dewp_084.txt.gz
Dewpoint
55 54 55 55 56 57 57 57 57 57 57 57 57 57 58 58 58 54 28 33 46 71 70 66 57 55 61 61 63 59 52 49 46 44 31 34 44 50 54 57 58 59 60 61 65
54 54 55 55 56 56 56 56 57 57 57 57 57 57 58 59 53 40 50 68 71 70 57 51 50 53 53 54 59 53 50 46 43 40 26 25 44 48 54 56 59 60 64 65 66
54 55 55 55 55 56 56 56 56 56 56 57 57 57 58 58 21 2 71 71 70 71 53 51 44 53 49 50 49 48 40 38 36 32 27 23 41 49 53 54 57 59 63 65 66
55 55 55 55 56 56 56 56 56 56 56 56 57 57 58 53 -2 30 73 73 72 65 44 34 31 29 39 42 42 36 38 38 28 31 22 22 42 48 53 53 56 60 63 64 65
55 55 55 56 56 56 56 56 56 56 56 56 56 57 46 15 13 47 71 72 65 52 39 34 30 36 38 42 42 39 38 29 24 21 22 23 37 48 51 53 60 62 62 64 64
55 55 55 55 55 55 56 55 55 55 55 55 56 57 38 10 12 53 55 51 48 44 41 36 31 34 36 42 39 37 31 24 19 21 23 21 24 46 47 59 61 62 62 63 64
55 55 55 55 55 55 55 55 55 55 56 56 56 52 36 8 19 58 53 45 48 42 36 41 37 39 41 38 32 29 17 17 19 23 17 20 17 35 40 58 59 62 63 64 64
55 55 55 55 55 55 54 54 55 56 58 59 57 51 11 16 29 30 41 42 49 49 42 41 40 35 37 33 19 17 17 19 19 18 18 16 14 24 57 58 57 60 62 63 64
55 55 55 54 54 54 53 53 55 56 58 58 50 33 11 33 26 29 37 29 35 48 47 44 38 35 32 23 22 18 18 16 15 18 20 17 15 21 51 58 58 58 59 60 62
55 55 54 54 53 53 52 53 53 55 57 55 46 28 23 17 22 24 23 26 23 35 42 42 35 31 22 24 26 21 15 18 15 16 16 17 15 18 27 56 58 58 59 60 60
55 55 54 54 53 52 50 28 23 21 23 17 17 20 17 20 23 22 20 19 24 39 35 39 33 29 31 27 23 20 17 17 19 18 18 19 18 19 29 55 56 57 58 59 60
55 55 54 53 52 52 41 25 25 25 23 23 23 21 19 19 18 19 19 16 31 27 36 33 32 34 33 28 24 21 18 19 20 22 18 17 17 18 33 54 55 56 57 57 59
55 55 54 53 51 42 37 26 28 30 18 17 16 15 15 18 17 18 17 18 19 25 32 25 28 33 32 29 25 23 19 20 19 22 18 18 17 18 21 46 54 55 56 57 58
55 54 53 51 43 39 36 32 36 30 14 13 16 16 19 17 15 18 17 16 18 13 17 24 31 29 29 27 26 24 24 21 20 18 15 18 14 18 19 26 47 54 55 56 57
55 54 52 51 41 38 37 38 36 20 3 14 19 20 19 16 17 19 20 16 14 12 14 14 17 21 24 23 23 22 22 20 20 18 15 18 12 16 19 16 21 32 53 55 56
54 53 51 46 43 43 41 38 21 13 5 16 19 17 17 18 19 18 20 17 18 14 14 12 15 15 17 18 20 21 20 17 16 11 12 14 13 15 13 12 17 32 40 52 56
53 50 49 45 37 40 39 21 13 10 17 17 17 17 17 17 16 17 18 17 9 7 9 11 11 13 14 15 18 17 15 14 13 13 14 15 12 15 16 17 18 20 46 52 55
50 50 47 46 44 41 25 16 11 16 18 19 17 17 16 15 15 17 18 19 18 13 10 8 7 10 14 12 11 16 14 14 11 11 13 20 14 18 21 21 23 27 32 49 55
49 38 37 36 42 38 20 17 16 18 20 17 18 17 16 16 17 17 17 18 18 19 18 12 11 15 14 13 11 14 14 14 10 14 12 15 17 21 23 22 34 50 55 46 50
37 35 32 41 41 24 15 22 18 19 19 20 20 20 16 17 15 14 16 18 18 21 21 21 21 21 23 17 20 12 15 12 15 24 19 18 19 19 23 23 41 47 51 48 58
33 28 32 39 34 29 19 19 21 23 23 22 21 20 19 18 15 14 17 18 19 22 24 31 26 22 25 21 19 21 16 17 17 18 18 18 20 24 33 52 56 57 56 61 62
30 26 32 33 28 28 26 28 32 26 30 27 25 21 21 18 16 15 15 19 23 32 24 30 24 22 22 25 27 20 19 16 19 20 19 19 19 53 54 55 54 58 63 65 66
29 29 32 31 26 23 26 26 25 30 31 31 29 33 29 24 26 24 26 32 32 34 26 30 22 23 22 26 32 32 29 19 21 23 20 19 20 53 53 52 55 58 60 63 65
32 25 27 28 27 25 22 23 27 31 33 34 31 32 31 30 30 25 34 35 36 35 52 39 32 31 22 28 32 33 34 36 19 19 19 19 25 50 53 53 55 60 60 62 63
33 32 28 24 25 24 25 25 27 27 29 34 32 32 31 32 33 33 36 36 37 45 35 29 24 31 33 32 36 38 45 46 36 25 20 28 43 51 53 55 58 60 59 60 61
33 31 32 30 28 22 28 24 25 25 26 32 33 33 32 33 34 33 36 37 35 34 33 29 26 35 31 32 35 41 41 41 48 49 51 51 50 56 57 59 59 60 60 59 59
36 34 32 34 26 25 22 26 25 25 27 31 34 35 33 34 35 35 36 36 36 36 34 28 28 27 25 32 35 39 46 47 49 50 50 46 52 56 55 56 59 58 59 60 61

GFSSW_sfc_dewp_087.txt.gz
Dewpoint
55 55 56 57 57 58 58 58 58 58 58 58 58 58 58 59 58 55 31 36 45 72 73 63 61 61 63 60 63 62 51 45 41 37 31 28 29 48 52 55 56 56 58 59 66
55 56 56 57 57 58 58 58 58 58 58 57 58 58 58 59 50 34 49 66 70 72 62 55 53 57 57 54 57 55 51 44 43 38 30 26 27 46 52 54 57 59 62 64 66
56 56 57 57 57 57 57 57 58 57 57 57 57 58 58 57 25 2 70 70 70 64 54 48 47 50 48 51 54 54 44 45 40 38 29 24 23 46 49 53 54 57 62 63 65
56 56 56 56 57 57 57 57 57 57 57 57 57 57 58 51 11 32 73 72 70 59 50 41 47 38 32 36 44 43 45 42 38 27 22 23 31 43 49 45 53 58 63 63 64
57 56 56 57 57 57 57 57 56 56 56 56 56 57 45 13 9 59 73 72 66 58 41 34 30 29 27 35 41 41 39 39 37 26 21 24 23 35 47 48 56 61 63 63 63
57 56 56 56 56 56 56 56 56 56 56 56 56 56 35 20 12 56 59 58 53 48 40 35 30 30 29 30 36 38 36 34 24 21 23 24 23 33 39 53 59 61 62 62 63
57 56 56 56 56 56 55 55 55 56 57 58 57 51 28 21 39 41 49 43 46 41 33 38 36 34 39 37 37 31 28 28 25 25 23 22 19 31 33 54 58 60 61 62 63
57 56 56 56 56 55 55 54 55 56 58 59 57 49 24 18 22 27 30 31 40 38 34 38 39 36 34 34 26 22 19 22 22 20 18 18 19 26 31 48 54 59 61 62 63
57 56 56 55 55 55 54 54 55 56 58 58 47 29 18 35 21 27 36 21 25 44 47 42 40 36 33 27 29 26 23 22 21 19 18 18 18 23 32 29 45 58 61 61 62
57 56 56 55 54 54 53 54 52 55 54 54 46 30 25 16 19 20 23 25 21 26 41 38 38 33 31 30 19 22 22 18 21 21 20 19 19 21 23 25 42 55 60 61 61
57 56 55 55 54 53 50 27 21 22 24 20 19 19 17 19 20 20 20 19 19 29 19 36 26 26 30 31 27 27 26 25 24 22 21 21 23 25 25 27 46 55 58 60 61
57 56 55 54 53 52 41 22 23 25 23 23 23 22 22 20 17 18 20 18 24 18 34 30 25 31 33 33 32 30 28 27 27 23 23 25 23 23 23 31 43 51 57 58 60
56 56 55 54 52 44 36 28 34 28 21 18 17 16 16 17 16 17 17 18 20 23 22 17 18 29 32 31 31 31 31 30 28 28 23 22 21 25 24 25 38 51 55 58 59
56 55 54 52 45 41 36 35 37 32 17 13 17 17 18 19 17 18 17 18 16 16 19 21 23 25 28 26 30 28 29 30 28 27 24 19 14 26 26 24 29 36 52 56 58
55 55 53 51 44 39 38 39 35 26 6 16 18 21 19 18 18 18 19 17 17 16 17 14 19 25 24 23 25 20 22 21 21 24 21 17 16 22 27 23 26 24 36 52 56
55 54 52 46 46 43 40 39 26 16 6 17 19 19 18 18 17 19 20 18 16 14 16 15 15 16 18 24 24 22 22 21 20 16 14 19 17 17 20 24 23 25 27 38 53
53 51 49 46 37 42 39 25 17 8 19 18 18 20 18 17 16 17 20 21 16 18 18 17 12 11 13 14 19 20 17 12 14 14 14 21 16 22 24 24 26 26 29 34 41
51 49 47 46 44 42 30 22 15 16 17 19 21 19 16 17 16 17 18 18 20 21 19 16 13 12 13 13 16 18 16 13 15 12 13 23 15 19 27 27 28 35 46 51 52
48 37 37 37 40 40 27 21 20 19 19 22 22 20 20 18 19 17 17 18 19 26 27 22 18 22 13 13 15 20 18 14 16 18 12 14 21 23 27 29 46 54 57 59 58
39 35 35 38 42 27 21 24 19 18 19 22 22 21 21 24 18 17 18 17 21 27 31 26 24 25 24 18 15 17 18 14 19 19 16 16 22 20 31 41 52 54 58 64 63
34 32 35 34 38 32 22 23 23 25 24 25 23 23 23 23 21 18 17 22 27 31 33 27 27 25 27 24 22 17 15 18 19 22 16 17 19 32 41 54 55 57 63 66 64
32 29 33 34 31 29 27 27 31 27 31 29 27 24 25 24 27 20 20 30 31 34 33 30 27 25 24 26 28 27 27 27 18 26 22 21 20 52 53 55 58 61 62 65 66
31 30 34 33 26 27 27 25 26 29 30 32 31 32 31 29 30 30 29 32 34 34 34 35 28 22 23 25 31 33 34 41 38 30 27 18 21 53 54 57 60 61 63 65 65
34 29 31 31 29 27 26 25 26 30 30 33 33 33 33 32 33 33 31 32 33 34 51 41 33 31 21 27 30 31 33 44 39 32 24 22 25 50 54 57 58 59 62 64 64
35 32 31 27 28 27 25 25 26 27 29 34 34 33 33 33 33 34 33 33 32 40 38 36 34 31 29 31 31 32 32 41 40 45 39 33 28 52 54 58 58 59 59 61 61
36 34 33 32 31 25 28 27 25 26 26 32 32 31 34 35 34 34 34 37 36 34 37 38 34 35 31 27 29 32 36 38 41 44 43 48 49 55 56 59 59 59 59 59 60
37 36 35 34 29 28 27 26 25 26 26 28 31 28 32 34 33 32 34 37 39 39 38 38 35 34 28 28 29 29 45 46 44 46 50 47 51 57 57 58 57 58 59 59 59

GFSSW_sfc_dewp_090.txt.gz
Dewpoint
57 57 58 58 59 59 59 59 59 59 59 59 59 59 59 59 58 52 33 39 46 68 72 60 58 59 61 57 57 58 45 37 34 33 32 29 26 35 48 46 52 53 54 56 63
57 57 58 58 58 58 58 58 58 58 58 58 58 58 59 59 42 27 55 66 68 71 56 53 51 55 54 49 49 51 40 37 37 36 35 31 29 30 46 49 53 54 59 61 64
58 58 58 58 58 58 58 58 58 58 58 58 58 58 59 57 31 20 68 70 69 72 53 44 45 50 42 37 38 41 41 36 36 36 35 29 29 30 38 43 50 55 59 62 62
58 58 58 58 58 58 58 58 58 58 58 58 57 57 58 47 12 41 71 72 73 53 45 43 42 40 32 24 26 32 31 29 34 35 32 27 29 29 31 34 46 50 59 61 60
58 58 58 58 58 58 58 57 57 57 57 57 57 57 50 24 18 51 72 70 61 47 41 38 36 33 23 19 23 25 24 25 30 32 31 27 26 28 29 30 49 53 60 60 59
58 58 58 58 57 57 57 57 56 56 56 58 58 57 38 21 17 45 54 55 49 47 34 34 28 28 26 23 23 22 24 26 27 29 28 24 24 25 28 37 50 56 59 59 58
58 58 58 57 57 57 56 56 56 56 57 59 58 50 28 17 35 44 47 38 36 32 25 29 32 32 29 27 30 31 27 24 21 19 19 22 19 18 23 35 40 53 56 58 59
58 58 57 57 57 56 56 55 55 56 58 58 58 43 21 22 16 19 19 17 22 26 28 23 28 34 30 29 28 25 24 20 17 20 17 18 15 14 21 29 31 46 52 58 60
58 57 57 57 56 55 54 54 55 55 57 58 49 33 19 32 20 23 26 20 18 32 37 35 31 28 25 23 15 19 20 18 20 20 17 16 16 17 23 23 24 28 53 56 60
57 57 57 56 56 54 53 54 54 53 54 48 42 32 22 18 19 18 20 23 19 25 33 36 32 28 25 20 16 14 15 19 21 20 21 19 18 15 18 20 23 25 48 56 58
57 56 56 56 54 53 50 27 26 24 22 20 20 20 18 20 19 18 19 20 19 20 18 29 24 21 19 22 22 17 17 21 22 23 24 22 20 21 21 20 20 31 47 56 57
55 56 56 55 53 52 45 22 28 30 23 20 19 20 20 19 17 17 19 17 18 13 15 20 24 19 15 19 22 21 22 21 22 24 24 23 24 22 21 22 22 27 42 52 56
55 55 55 54 52 46 30 31 36 33 23 16 17 17 17 17 17 17 18 18 19 18 12 15 12 15 18 21 19 20 22 22 22 23 26 27 26 22 20 23 22 24 37 49 55
54 55 55 52 47 42 32 35 37 34 17 16 17 18 18 18 18 18 18 19 18 17 17 16 15 12 12 15 16 16 16 20 25 24 21 24 21 26 21 22 22 21 29 45 54
55 55 54 52 45 38 39 38 34 29 13 17 16 19 18 17 17 18 20 19 18 17 18 14 15 15 17 13 13 16 15 18 22 20 20 20 19 21 22 23 23 19 20 28 46
55 54 52 47 44 41 38 36 30 19 13 15 15 16 13 14 15 17 19 20 16 17 16 16 15 15 14 14 15 17 17 18 18 13 13 19 17 19 19 23 22 21 21 27 31
53 51 49 44 35 38 37 29 18 12 18 17 16 16 15 13 14 15 19 19 19 23 23 22 16 13 13 13 15 17 17 14 14 11 10 16 15 22 22 21 27 29 34 42 44
51 50 47 42 40 39 35 22 20 15 16 21 20 16 14 15 14 15 16 17 20 25 21 20 19 16 20 17 15 15 16 12 16 10 11 21 19 19 24 24 37 44 48 50 54
49 40 37 38 41 38 26 19 21 18 22 22 20 18 18 18 16 14 15 16 20 27 28 24 21 21 22 22 15 15 17 14 14 15 11 13 19 20 22 22 27 39 45 49 55
42 36 36 36 41 34 21 24 21 24 25 24 20 21 20 20 17 17 15 17 21 25 29 26 26 21 22 22 21 15 16 14 13 17 16 14 18 17 25 26 31 39 48 57 61
38 32 34 32 36 30 17 23 25 29 29 26 24 22 23 23 22 19 15 18 26 26 28 27 27 24 24 22 23 23 19 20 11 14 20 17 15 26 31 34 46 48 59 62 64
34 29 33 34 30 28 25 26 32 28 32 30 29 26 25 25 24 22 21 23 28 29 26 29 28 24 22 21 26 29 31 31 28 27 21 17 15 38 45 48 53 56 62 64 67
33 32 35 33 24 25 27 23 28 27 31 31 29 30 31 28 28 27 27 26 27 27 29 33 28 25 22 20 26 30 31 31 36 34 37 25 20 48 50 53 59 60 62 64 65
35 28 31 33 32 30 28 25 25 29 29 33 33 32 31 30 31 31 29 27 29 28 50 40 31 31 22 25 25 27 27 29 39 30 31 33 36 45 51 55 58 59 63 62 63
38 33 33 27 29 30 29 26 23 25 29 33 33 31 32 32 29 29 29 30 31 41 34 35 36 31 28 27 24 24 25 24 32 36 40 42 41 48 54 58 58 59 61 61 61
37 34 35 33 33 30 28 27 23 23 27 28 32 31 31 34 34 32 32 34 32 33 35 37 36 34 30 26 23 22 24 24 34 36 38 36 38 52 58 59 58 59 59 59 59
40 39 36 35 31 28 26 27 25 27 26 27 30 31 29 31 34 32 31 32 33 37 39 40 37 35 29 27 25 25 25 38 42 44 45 41 52 55 57 56 58 59 57 58 59

GFSSW_sfc_dewp_093.txt.gz
Dewpoint
59 59 59 59 59 59 59 59 59 59 59 59 59 59 59 59 58 53 39 45 47 70 71 57 57 56 54 53 53 50 46 38 33 31 30 29 26 29 42 41 49 50 52 57 60
59 59 59 59 59 59 59 59 59 59 59 59 59 59 59 59 45 32 55 70 70 72 57 52 50 49 46 46 45 46 42 38 35 34 33 32 28 27 33 40 49 50 57 58 60
59 59 59 59 59 59 59 59 58 58 58 58 58 59 59 57 36 30 67 69 71 72 48 46 41 42 40 38 35 36 37 37 36 35 34 33 29 29 28 31 39 49 57 59 60
59 59 59 59 59 59 58 58 58 58 58 58 58 58 59 44 21 48 68 70 70 59 48 40 35 38 35 26 23 23 22 24 26 25 29 33 32 28 29 30 31 40 57 60 60
59 59 59 59 59 59 58 58 57 57 57 57 57 59 52 33 24 54 71 69 55 60 38 39 36 35 31 23 18 17 18 16 17 19 23 30 29 26 27 28 30 40 57 59 59
59 59 58 58 58 58 58 57 57 57 57 57 58 58 39 18 20 38 48 52 47 48 37 35 32 29 28 25 24 21 19 18 17 15 17 20 23 24 27 28 34 46 54 56 58
58 58 58 58 58 58 57 56 56 56 57 58 60 49 30 19 26 35 43 43 42 40 32 29 29 28 27 25 25 25 25 23 20 18 14 15 16 20 23 25 26 44 51 54 57
57 58 57 57 57 57 56 55 56 56 58 59 59 44 26 21 17 18 25 32 28 19 20 25 20 22 27 26 23 22 21 18 18 17 17 15 16 12 14 16 26 32 44 52 55
56 57 57 57 57 56 55 55 56 56 58 57 51 41 20 29 18 19 20 16 14 19 26 25 25 17 18 21 20 18 12 13 16 18 19 19 16 16 13 16 23 26 27 45 53
56 56 56 56 56 55 54 54 55 53 55 46 40 31 23 17 19 19 18 21 17 17 27 29 27 21 18 17 15 16 14 12 15 18 20 19 19 17 17 15 17 17 24 35 50
57 56 55 56 55 54 51 37 29 33 25 19 19 20 17 19 19 18 18 18 18 19 17 21 22 20 19 20 20 19 18 18 17 15 21 21 22 22 19 18 18 20 23 29 49
57 56 55 55 54 53 49 26 29 29 25 18 18 18 18 18 17 17 19 17 18 15 14 14 14 18 19 17 13 13 16 18 20 18 18 18 22 21 22 24 19 19 23 31 46
56 56 55 54 53 48 29 29 32 31 26 18 16 16 15 16 16 16 17 18 18 18 15 14 10 12 13 12 14 15 17 17 16 18 18 20 23 25 23 23 19 20 23 29 45
56 55 54 52 48 39 32 34 32 30 25 18 16 16 15 16 17 17 17 18 15 15 16 14 11 12 12 11 9 13 13 13 13 15 15 21 16 26 25 24 21 21 21 25 44
56 55 53 51 46 36 39 35 30 30 20 16 14 16 14 13 14 17 19 18 17 16 15 15 12 12 14 12 12 13 11 12 14 14 17 20 18 22 24 24 23 21 22 22 39
55 54 52 48 45 38 35 32 30 23 18 14 12 13 11 12 12 13 16 21 19 19 20 18 19 16 14 11 11 12 13 16 16 13 13 19 14 16 18 23 23 22 23 30 35
54 52 49 42 34 32 32 31 23 16 18 16 14 13 10 12 10 13 15 18 18 24 23 19 18 15 14 14 15 12 12 12 14 12 11 16 12 17 19 20 23 26 35 42 41
52 51 48 39 38 35 34 26 25 18 14 17 16 13 12 13 12 12 14 15 19 22 22 19 18 20 19 20 21 19 15 13 17 11 10 17 15 16 19 22 28 34 39 40 42
51 41 35 36 38 37 28 22 22 21 19 17 16 17 16 16 13 14 15 14 17 24 26 22 21 22 20 21 20 19 15 11 12 15 10 10 18 24 22 23 24 27 35 41 50
43 35 31 32 37 34 24 26 21 20 20 20 19 19 17 18 17 16 15 16 16 23 25 25 24 23 22 21 20 25 22 14 13 18 16 13 20 18 30 27 26 25 32 51 56
43 29 34 30 32 30 22 23 21 24 24 23 22 21 21 22 19 19 16 16 22 25 25 22 25 27 25 21 20 22 22 29 28 27 27 16 16 29 31 40 37 41 50 57 60
35 28 34 32 28 28 21 24 29 21 27 24 26 24 23 24 25 23 19 23 24 25 24 26 25 25 23 23 26 21 40 41 27 39 39 34 28 43 45 35 46 51 59 62 65
34 29 32 30 25 24 26 20 21 22 24 27 27 27 28 28 28 26 26 25 25 26 29 30 25 22 22 20 33 32 34 41 33 31 35 34 38 43 47 49 55 58 62 64 65
35 28 30 30 28 27 26 25 22 25 24 25 29 29 29 29 31 30 28 26 26 28 49 39 29 30 23 26 26 26 28 27 27 26 35 36 37 42 47 49 54 59 61 62 64
38 33 33 25 28 29 28 25 21 21 26 27 29 28 29 31 30 28 28 29 28 42 32 31 33 33 30 27 24 23 21 20 22 27 38 37 43 43 49 50 55 58 61 60 60
36 35 35 29 33 30 29 26 22 20 22 23 28 27 29 31 30 31 32 32 30 29 30 33 35 35 32 27 24 23 21 20 21 21 30 30 33 47 55 55 57 58 58 58 61
41 38 35 35 30 29 24 25 24 25 24 23 23 26 28 26 33 33 30 29 28 30 35 38 37 36 32 28 26 25 23 27 27 33 33 36 48 53 52 54 58 59 59 59 59

GFSSW_sfc_dewp_096.txt.gz
Dewpoint
59 60 60 60 60 60 60 60 60 59 60 59 59 59 60 60 59 53 42 48 48 68 65 41 50 56 53 51 51 50 46 41 42 50 39 31 27 28 33 42 43 48 53 57 59
60 60 60 60 60 60 59 59 59 59 59 59 59 59 59 60 44 31 52 71 69 69 46 42 49 50 47 43 42 42 41 39 36 47 36 33 31 28 28 31 46 51 56 58 59
59 59 60 60 59 59 59 59 59 59 59 59 59 59 59 58 37 24 65 71 70 66 38 42 44 42 40 36 33 35 33 32 29 28 28 28 28 30 27 28 41 52 56 58 59
59 59 59 59 59 59 59 59 59 58 58 58 58 59 60 48 24 37 69 70 71 50 49 43 40 34 33 32 27 21 20 19 17 15 14 17 23 29 31 28 28 53 57 58 58
57 58 59 59 59 59 59 59 58 58 58 58 58 59 52 33 23 52 71 67 50 53 51 41 35 32 30 30 26 20 16 16 16 15 14 17 19 26 29 28 28 49 57 58 58
56 57 58 58 58 58 58 58 57 57 57 57 58 59 40 22 22 50 48 44 36 47 46 35 33 33 30 26 25 23 21 18 18 18 19 15 11 12 21 26 27 45 56 57 57
56 57 57 57 58 57 57 57 57 57 57 58 59 51 36 28 20 28 37 43 37 39 37 33 32 28 27 25 23 22 21 23 23 20 18 18 14 13 15 20 23 28 48 55 58
57 57 57 57 57 57 57 56 56 57 58 58 60 45 34 21 19 17 27 34 37 37 34 28 25 23 18 20 23 21 19 17 18 16 16 16 17 16 13 11 17 22 40 50 57
57 57 57 56 56 56 55 55 56 58 57 58 50 42 30 36 15 15 15 14 18 25 24 16 18 19 19 15 12 16 16 17 16 13 15 18 20 21 17 15 17 20 29 40 53
57 57 56 56 56 55 54 55 58 54 52 46 42 35 30 17 17 17 17 17 18 15 16 18 26 23 19 16 12 15 14 15 17 17 15 15 19 20 20 18 19 18 26 29 32
56 56 56 55 55 54 51 43 32 35 34 24 21 21 17 17 18 18 17 17 17 18 16 19 21 22 21 20 19 17 17 17 17 16 17 18 19 21 22 20 20 23 27 27 30
56 56 56 55 55 53 50 27 28 28 24 19 16 16 17 17 17 17 18 16 18 16 16 15 14 14 15 16 17 17 16 14 13 14 16 18 19 19 19 21 22 21 26 25 25
56 56 55 55 53 50 33 29 30 28 26 24 15 15 14 14 14 15 16 17 17 17 16 16 14 13 11 11 11 11 10 12 13 15 15 16 17 23 20 23 25 25 27 24 29
55 55 55 53 48 37 34 32 29 27 24 19 14 15 14 15 15 16 16 15 14 12 14 14 13 9 10 11 11 11 9 8 8 11 9 14 13 28 21 22 24 21 21 21 27
55 55 54 53 47 37 35 32 28 28 22 16 14 15 12 12 13 14 18 17 15 16 16 14 12 13 14 12 12 12 10 11 11 12 12 12 11 21 25 26 27 25 25 24 31
55 54 53 47 47 37 30 29 30 25 19 14 11 12 11 11 12 13 12 19 20 19 21 20 19 17 17 16 14 12 12 12 12 11 14 16 12 16 18 25 23 25 26 33 42
54 53 52 44 35 30 30 31 26 21 20 16 14 13 11 10 11 10 14 16 18 21 23 22 19 17 16 16 18 19 19 16 15 11 12 16 13 23 22 18 24 32 40 40 38
53 52 50 41 37 33 32 29 27 21 17 16 15 13 12 14 12 12 13 13 18 19 20 21 19 19 22 21 19 21 20 17 18 10 10 19 19 19 27 28 25 34 39 39 38
51 40 41 39 37 35 31 25 24 22 19 17 13 15 16 15 15 12 16 14 16 21 24 22 20 20 19 21 20 20 19 21 20 16 12 10 17 27 39 31 32 32 38 41 47
48 41 34 32 30 32 28 27 21 21 19 17 18 20 18 17 17 16 17 16 14 21 25 24 22 20 20 24 22 19 22 23 23 26 23 26 29 41 46 46 47 47 52 53 53
47 35 34 32 27 28 25 24 23 21 23 21 21 22 20 20 21 19 18 17 21 23 24 22 25 25 23 22 21 24 30 33 31 29 30 30 26 42 41 43 46 47 51 53 49
37 32 34 32 25 28 27 25 30 19 22 24 23 23 21 21 23 24 22 20 23 23 23 27 24 23 21 20 22 25 33 33 27 28 28 33 27 43 43 42 47 50 54 54 54
39 34 32 29 23 25 27 23 20 19 20 22 25 26 26 26 28 27 26 26 24 25 30 30 26 22 21 21 26 26 26 32 37 33 31 39 40 40 46 46 50 51 53 54 63
40 32 32 32 29 28 26 24 24 22 23 22 23 27 28 28 29 30 28 26 25 26 50 39 30 31 26 29 28 28 25 23 27 28 30 38 39 38 45 45 48 51 52 58 62
42 35 34 30 26 32 32 28 24 21 23 25 27 26 26 29 29 30 29 28 29 43 32 30 30 30 29 28 27 27 24 22 21 22 24 24 34 45 50 49 49 55 60 60 60
42 37 35 33 33 31 32 27 23 22 22 21 23 22 27 30 32 28 29 33 33 30 29 28 31 34 32 30 28 26 25 24 22 22 20 29 47 53 54 55 55 59 58 60 60
44 42 38 38 31 29 29 28 24 26 25 23 21 21 23 26 27 30 30 31 29 28 30 32 33 36 32 31 29 27 40 37 39 38 43 36 49 50 49 54 57 58 59 58 58

GFSSW_sfc_dewp_099.txt.gz
Dewpoint
59 59 60 60 60 60 60 60 60 60 60 60 60 59 59 60 59 55 48 49 48 69 65 44 40 45 53 55 52 49 46 45 47 46 44 41 40 37 43 45 51 55 56 57 59
58 58 59 58 59 60 60 59 59 59 59 59 59 59 59 60 50 35 48 67 70 69 40 36 40 46 51 49 45 41 40 41 45 47 46 44 43 32 31 44 54 57 57 58 59
57 57 59 58 59 59 59 59 59 59 59 59 59 59 59 59 43 30 71 70 70 66 32 33 39 47 45 42 38 34 32 33 26 25 42 25 16 19 26 32 55 56 57 58 59
57 57 58 58 58 59 59 59 59 59 58 58 58 58 59 53 30 37 68 71 70 53 39 35 40 41 38 33 33 31 28 23 18 16 15 15 16 18 22 31 46 57 58 58 59
58 57 57 58 58 58 58 58 58 58 58 58 58 59 56 42 28 57 69 68 57 50 43 49 47 38 34 30 30 28 26 23 22 20 19 18 18 17 17 25 35 58 58 58 59
58 58 58 58 58 57 58 58 58 57 58 57 58 59 47 28 37 51 48 49 43 48 47 48 43 35 33 31 27 25 23 22 22 22 24 22 21 20 17 19 43 57 58 58 59
58 57 57 57 57 57 57 57 57 57 57 58 58 54 40 33 32 49 46 44 39 38 40 40 36 32 30 26 26 23 21 22 21 20 18 19 18 18 20 18 22 57 57 58 59
57 57 57 57 57 57 57 56 56 57 58 59 60 51 38 33 29 23 29 36 40 37 35 37 23 17 21 22 19 15 15 16 17 19 19 18 15 22 19 17 20 34 57 58 59
57 57 57 57 56 56 55 55 56 58 59 60 52 46 38 37 18 14 13 14 16 30 33 25 19 16 20 18 17 16 11 12 16 20 19 19 18 23 21 21 19 17 48 57 58
56 56 56 56 56 55 55 55 57 57 53 49 43 40 39 26 19 19 18 18 19 18 17 21 18 21 25 21 17 17 14 14 15 18 17 15 16 20 23 20 23 24 23 48 57
55 55 56 56 55 55 52 47 33 39 35 34 29 34 22 19 20 19 19 18 18 18 17 20 16 23 25 24 20 19 18 18 18 17 14 14 17 21 22 21 21 23 28 25 33
55 55 55 55 54 54 52 30 30 28 26 26 23 19 16 18 16 18 18 17 19 16 19 18 15 16 17 16 16 16 17 16 18 18 12 15 17 18 20 23 21 25 25 29 28
55 55 55 55 53 52 40 31 31 27 25 25 23 14 16 15 14 18 17 18 18 19 18 18 18 17 13 13 13 12 12 12 11 13 13 13 16 20 19 18 19 26 26 28 29
55 55 55 53 47 44 37 32 30 27 27 25 18 16 14 15 14 18 19 22 17 13 16 16 16 15 14 14 13 11 16 11 10 11 11 15 9 16 21 21 23 24 23 27 28
54 55 54 53 48 45 32 29 28 30 27 20 15 18 13 13 14 17 19 21 17 17 18 18 17 18 18 17 18 16 15 12 12 11 10 11 13 13 19 19 27 28 28 28 30
54 54 54 50 48 47 43 30 32 29 26 15 13 12 13 13 12 16 16 18 20 20 19 21 23 21 19 20 21 19 19 22 22 14 10 13 16 15 19 27 32 37 39 54 57
53 53 52 48 39 37 34 34 31 27 30 17 16 15 14 12 14 15 22 18 19 19 22 23 23 21 21 21 23 22 19 20 20 18 16 14 15 30 43 45 45 46 51 53 55
53 52 52 47 41 39 35 35 31 27 20 18 15 13 14 17 18 17 15 16 21 21 22 24 23 22 21 19 21 22 21 21 18 20 20 19 14 39 43 45 46 50 50 52 54
52 47 46 45 44 41 37 31 29 26 19 18 18 19 19 17 19 19 17 18 19 25 24 23 23 23 21 22 24 23 23 22 18 22 20 26 33 42 40 40 45 48 49 51 52
50 47 44 38 39 36 35 32 28 20 21 20 20 21 23 21 21 20 21 18 18 25 26 25 21 24 25 23 22 23 31 29 32 26 25 30 32 39 40 41 45 45 51 54 54
50 43 38 32 32 36 30 29 26 22 24 24 21 23 24 24 23 22 22 23 23 23 25 26 30 27 25 23 21 19 31 32 30 30 26 28 32 41 43 44 45 46 51 54 55
46 40 38 36 36 35 31 31 30 23 21 26 28 27 26 25 26 27 26 27 25 25 27 34 25 27 25 24 23 24 34 33 29 27 27 28 30 43 45 46 48 49 52 56 55
45 42 41 36 30 29 31 26 26 23 22 24 24 28 29 30 31 30 30 28 28 28 30 36 29 25 27 28 28 28 28 27 35 36 30 33 35 41 45 48 50 52 55 53 56
45 41 41 41 37 34 34 32 27 25 23 28 26 25 27 30 31 33 29 29 28 29 51 40 31 31 26 28 29 28 28 27 26 24 23 31 30 43 46 52 51 53 58 56 61
48 43 41 37 35 35 34 34 30 26 26 27 32 28 28 30 32 31 32 31 32 47 36 32 30 32 29 26 29 29 28 27 27 34 30 38 41 45 50 53 55 57 59 55 55
44 44 42 38 39 35 34 35 30 26 27 27 29 23 27 30 31 31 32 34 36 35 32 30 29 32 30 31 31 30 30 38 38 42 43 44 47 53 53 56 58 58 59 55 58
50 48 45 41 37 36 33 32 29 29 30 28 25 27 26 26 28 27 26 30 30 31 30 31 30 32 30 36 33 31 41 40 45 47 48 45 48 50 48 50 55 55 55 58 59

GFSSW_sfc_dewp_102.txt.gz
Dewpoint
57 57 57 58 58 60 60 60 59 59 59 59 59 59 59 60 59 56 39 42 50 69 63 45 47 41 44 53 56 54 46 46 48 47 44 40 39 40 44 53 52 55 57 58 61
58 57 57 58 59 59 59 59 59 59 59 59 59 59 59 60 53 41 49 66 68 70 36 39 36 42 46 52 51 47 42 42 47 48 46 45 43 43 37 50 57 57 58 59 64
59 58 58 58 58 59 59 59 59 59 59 59 58 58 59 59 42 31 68 69 71 64 36 33 34 43 46 48 45 39 37 36 34 41 46 45 42 28 22 51 56 56 57 58 63
58 58 58 58 58 58 59 59 59 59 59 58 58 58 59 55 9 39 68 71 71 52 39 36 36 37 40 39 38 31 31 32 24 22 23 32 18 19 22 20 57 57 58 58 59
58 58 58 58 58 58 58 58 58 58 58 58 58 58 56 41 28 48 68 67 54 46 42 42 49 48 39 35 32 30 27 25 24 23 23 22 22 24 23 24 57 58 58 58 58
58 58 58 58 58 58 58 58 58 58 57 57 58 59 45 27 28 56 50 50 45 45 48 46 48 45 35 32 28 28 21 18 20 21 23 21 20 23 21 24 56 57 57 58 58
57 57 57 58 58 57 57 57 57 57 57 58 58 55 45 33 34 51 46 39 38 42 43 42 43 28 23 22 24 19 16 16 15 18 19 20 18 19 21 22 47 57 57 58 59
56 56 56 56 57 57 57 56 56 57 58 58 59 55 32 37 35 44 45 45 42 37 39 40 40 22 17 21 19 17 16 13 15 15 15 19 18 20 21 20 53 56 57 59 59
55 55 55 56 56 56 56 55 56 58 58 60 52 47 37 46 21 16 31 29 25 39 37 34 33 19 20 22 21 19 15 15 15 16 17 21 18 21 21 21 29 56 57 58 59
55 55 56 56 56 55 55 55 57 57 55 53 47 39 37 32 19 18 16 14 15 19 21 21 21 17 21 22 19 17 16 15 16 17 19 17 15 17 21 22 22 37 57 58 58
55 55 55 55 55 54 53 42 27 28 33 38 35 35 32 22 21 19 21 22 22 19 18 20 14 14 15 22 23 22 20 19 20 20 19 16 17 17 20 21 21 23 47 57 58
55 55 55 55 54 54 51 28 28 27 25 26 26 25 25 23 16 18 19 16 20 15 22 17 15 16 19 21 25 24 22 18 16 16 13 12 13 17 19 20 20 21 24 43 57
55 54 55 54 53 46 41 30 31 26 23 24 25 21 16 16 15 16 17 18 18 18 17 16 16 19 18 16 15 14 13 13 12 14 11 16 13 14 14 18 19 23 26 28 32
54 54 54 53 41 46 41 33 30 28 26 27 23 16 14 15 14 17 18 17 20 16 15 17 17 19 18 18 18 14 16 15 13 12 9 13 8 12 16 20 36 48 51 55 56
53 54 54 53 45 40 41 42 36 29 22 27 17 18 14 13 17 18 19 18 16 15 20 17 19 19 20 20 19 17 18 17 18 16 11 12 10 17 37 41 43 46 51 54 57
53 53 53 50 47 44 45 39 31 27 24 19 14 13 13 12 14 21 21 19 21 22 21 19 24 23 22 21 23 23 21 21 22 18 16 14 14 30 42 43 44 46 51 54 56
52 52 53 50 29 39 38 34 27 23 25 16 16 14 14 14 14 14 14 16 14 16 17 22 26 23 21 20 22 22 20 19 18 18 17 18 19 38 43 45 46 46 51 54 56
52 52 52 50 48 42 37 31 25 27 19 20 18 17 16 16 16 15 17 13 22 23 24 22 20 22 22 25 21 21 24 19 16 19 20 23 21 37 41 45 45 47 46 54 56
52 48 45 46 48 42 33 26 26 23 22 19 17 18 21 20 17 18 17 17 24 25 21 21 22 24 25 24 24 21 19 23 24 30 24 26 30 39 41 41 44 45 49 52 56
48 47 45 43 43 34 29 30 25 23 23 22 19 22 22 22 21 21 21 24 24 25 25 25 21 26 27 25 25 22 23 26 28 24 24 26 29 37 37 40 44 45 48 53 55
46 40 38 37 33 28 24 26 26 25 25 23 24 22 23 24 23 23 24 25 24 25 28 33 26 25 26 24 23 24 22 31 29 28 25 26 27 39 40 44 44 47 52 53 54
46 36 40 35 29 30 27 29 34 25 21 21 27 27 26 27 27 26 27 28 27 26 28 28 25 25 24 26 28 24 30 31 28 26 28 26 26 43 45 46 47 51 56 54 55
43 42 42 34 25 24 28 30 29 28 24 24 24 25 27 26 26 29 29 29 30 29 28 31 26 24 26 26 28 29 28 28 31 32 29 29 31 43 50 51 50 52 56 53 58
44 39 39 37 34 35 31 31 29 31 25 24 23 26 24 25 28 27 29 31 32 31 53 39 28 27 24 25 29 26 26 29 29 25 27 31 34 43 49 52 54 56 56 56 56
46 43 38 34 36 35 35 31 29 28 28 26 24 25 25 24 28 29 30 32 32 47 33 28 25 28 28 29 27 27 28 35 36 39 37 41 41 47 50 52 56 58 58 53 54
40 44 43 40 38 36 37 30 32 31 29 28 27 25 23 24 26 24 26 28 29 30 29 29 24 30 26 27 28 30 40 41 43 43 45 45 46 50 51 50 53 55 54 55 58
48 46 44 41 37 35 34 34 33 32 30 28 26 25 25 27 25 24 25 25 27 25 25 26 25 26 22 26 30 32 41 41 46 46 48 44 46 51 49 50 52 53 55 56 59

GFSSW_sfc_dewp_105.txt.gz
Dewpoint
58 58 58 58 59 59 59 59 59 59 59 59 59 59 59 59 59 56 34 35 50 70 68 58 50 44 43 50 57 54 49 46 47 47 41 40 42 43 43 51 54 57 58 60 66
58 58 58 58 58 59 59 59 59 59 59 59 59 59 59 59 54 43 50 66 68 71 36 39 38 43 45 50 53 51 45 43 45 48 46 46 46 46 44 50 54 57 60 64 66
58 59 58 58 58 59 59 59 59 59 58 58 58 59 59 59 35 17 71 68 70 66 34 35 34 44 45 49 48 44 43 41 38 37 44 45 44 43 30 50 56 56 58 64 65
58 58 58 58 58 58 58 59 59 59 58 58 58 58 59 55 5 37 71 71 71 49 33 32 30 34 37 39 40 35 34 33 31 24 24 35 37 20 22 31 43 58 59 63 63
57 56 56 57 57 58 58 58 58 58 58 58 58 58 55 36 25 49 70 70 52 40 36 38 45 44 44 39 34 31 28 25 24 22 22 23 22 23 23 37 57 58 60 62 63
55 55 56 56 56 57 57 57 57 57 57 57 58 58 43 17 21 54 48 43 40 45 44 43 49 48 40 30 27 27 22 18 18 18 18 21 18 20 20 37 57 57 57 61 63
57 56 56 57 57 57 57 57 57 57 57 57 58 55 44 19 34 52 39 35 41 42 44 46 44 37 28 16 25 21 17 17 16 17 17 21 16 17 21 24 45 56 57 58 61
57 56 56 56 57 57 57 56 56 57 57 58 59 54 25 32 36 44 45 44 43 40 39 38 39 33 17 19 22 19 17 14 16 19 16 17 16 21 22 21 41 56 57 58 58
56 56 56 56 56 56 55 56 58 58 58 59 51 45 34 47 32 32 43 39 39 41 39 36 33 28 20 20 20 21 13 16 17 20 21 23 18 21 19 21 53 56 57 58 58
56 55 55 55 55 55 55 55 59 57 56 54 48 37 35 31 27 17 31 37 16 19 21 28 22 21 19 19 16 19 18 17 17 20 21 20 16 17 18 19 29 55 57 58 58
55 55 55 55 55 54 52 37 28 26 33 30 37 36 32 32 25 18 19 17 18 17 16 20 14 13 13 18 18 23 21 21 22 23 23 17 13 15 17 26 48 43 55 57 58
55 54 54 54 54 54 48 28 28 28 25 26 27 27 27 26 21 16 19 16 21 14 19 16 14 15 18 19 19 21 22 22 22 20 17 11 13 15 22 41 48 52 54 54 55
54 54 54 54 54 46 43 32 33 37 23 23 25 24 21 23 18 15 16 18 16 18 16 14 15 19 19 18 18 17 18 16 13 16 16 16 17 18 36 40 43 48 54 56 58
54 53 53 53 39 44 40 40 40 28 26 26 23 22 15 15 15 17 18 17 18 14 17 16 18 20 23 23 18 20 18 17 18 18 16 14 12 17 37 39 41 45 52 56 59
54 53 53 53 45 35 38 40 38 29 20 27 19 18 14 13 16 16 20 18 16 17 17 18 19 20 20 20 21 19 21 20 23 19 16 17 14 24 41 37 42 44 51 54 57
52 52 53 50 47 44 43 38 30 26 22 18 15 13 13 13 13 18 19 18 21 22 21 19 24 22 23 22 25 23 23 23 22 19 17 18 16 19 38 39 44 44 50 54 56
51 51 52 50 30 43 39 33 26 23 24 18 15 17 14 14 14 15 17 16 14 22 15 22 24 23 23 23 25 22 21 20 19 20 19 20 21 29 40 45 45 46 48 54 56
50 52 52 50 48 44 35 30 24 27 21 20 19 18 16 18 16 17 14 15 24 22 23 21 18 22 24 26 22 23 22 20 22 21 23 25 22 32 42 45 45 47 49 55 55
51 47 46 45 50 41 30 24 24 25 21 20 18 21 22 22 20 21 20 23 24 25 19 20 20 26 27 24 23 21 20 20 25 27 23 25 27 33 41 42 45 45 49 52 55
48 46 42 44 43 30 26 28 26 26 23 22 21 23 21 21 22 23 22 24 24 25 24 23 20 26 27 23 24 26 25 28 27 23 24 25 27 30 36 40 43 47 51 52 54
45 39 38 40 32 27 22 24 26 27 26 23 21 24 24 24 25 25 25 27 25 25 28 30 24 23 26 24 25 26 28 30 28 28 25 25 27 36 42 44 44 46 53 53 53
41 35 38 36 29 29 25 28 33 27 25 22 25 27 25 28 27 26 28 28 30 26 27 32 25 24 24 27 29 26 29 29 27 26 27 26 27 43 49 48 47 48 54 54 55
40 41 44 36 31 27 30 31 31 30 27 23 23 27 27 24 23 29 29 30 30 30 28 32 25 23 25 25 26 27 27 28 30 30 28 29 29 44 50 52 54 54 56 55 58
42 38 40 38 34 36 32 30 29 31 28 25 24 26 25 25 27 27 29 32 34 37 49 39 27 25 23 24 27 27 26 26 32 27 28 30 32 39 48 49 54 56 57 55 55
44 41 41 36 37 37 36 31 30 30 31 28 27 24 26 24 24 25 27 27 27 43 32 26 25 27 27 27 28 27 27 30 37 34 36 36 41 42 48 49 50 56 55 55 56
36 44 43 42 39 35 35 33 33 33 31 29 26 27 24 23 23 23 25 28 24 30 26 27 25 28 24 24 25 27 28 37 41 42 43 44 45 49 50 50 50 53 54 55 56
47 44 44 42 38 35 35 36 35 34 33 30 27 25 26 24 25 24 24 23 23 24 23 24 24 23 21 24 30 28 33 39 41 45 45 43 44 48 50 50 50 51 53 54 55

GFSSW_sfc_dewp_108.txt.gz
Dewpoint
59 59 58 59 59 59 59 59 59 59 59 58 58 59 59 59 59 56 35 35 47 67 67 62 54 49 45 49 57 56 51 46 45 48 43 43 42 44 45 51 56 58 60 61 67
58 58 58 58 59 59 59 59 59 59 58 58 58 59 59 59 54 43 51 65 69 70 52 45 40 41 42 48 54 52 48 44 45 47 45 42 41 40 45 46 53 56 63 65 68
56 56 56 57 57 57 58 59 59 58 58 58 58 58 59 59 36 6 69 66 70 66 38 35 37 45 44 49 49 48 45 44 40 39 37 38 34 38 40 37 52 54 62 65 67
56 56 56 56 57 57 57 58 58 57 57 57 57 58 59 55 14 33 71 70 69 53 31 29 31 33 36 39 41 38 39 37 31 27 23 22 31 22 31 26 49 56 63 65 66
58 57 57 57 57 57 58 58 57 57 57 56 57 58 54 30 21 57 71 70 56 39 31 34 36 39 44 41 36 32 28 25 23 22 21 23 22 23 22 23 27 54 63 64 65
58 57 57 57 57 57 58 58 58 56 56 56 57 58 41 11 19 57 54 42 40 37 38 43 47 48 40 30 24 26 23 19 20 21 21 19 17 20 23 49 55 58 61 63 64
57 56 56 56 56 57 57 57 57 57 57 57 58 55 38 7 36 52 42 34 39 43 44 45 48 38 30 21 22 20 19 19 18 18 17 19 17 18 22 22 27 57 60 62 63
57 56 56 55 56 56 56 56 57 58 57 58 58 53 19 27 38 45 42 40 41 40 39 39 40 35 25 22 21 20 16 14 17 19 20 18 17 21 20 20 33 56 57 61 63
57 56 55 55 55 56 56 56 59 59 59 59 52 43 32 47 36 34 38 35 41 39 40 36 32 28 22 19 17 20 15 18 18 23 23 21 19 22 39 38 39 53 57 58 61
56 56 54 54 55 55 55 55 59 57 57 56 50 35 33 29 31 20 38 34 26 18 20 23 21 25 19 16 11 16 18 18 19 22 22 20 17 20 46 50 52 53 55 58 58
56 56 54 54 54 54 52 38 29 26 30 30 33 36 34 30 28 19 21 28 19 16 14 20 14 14 15 16 17 21 22 20 21 23 24 20 17 32 38 47 51 54 55 55 56
56 56 54 53 54 54 47 32 33 31 26 26 26 28 29 26 22 20 18 16 18 14 19 15 13 15 16 17 17 19 20 19 20 20 21 14 18 37 38 43 48 52 54 56 58
56 55 53 53 53 44 42 36 38 34 26 24 24 24 22 23 20 18 16 18 17 15 16 14 14 20 20 21 21 19 20 18 16 15 18 17 22 32 40 42 44 47 53 55 56
55 54 53 52 37 42 36 40 39 31 25 22 23 21 16 18 15 18 18 18 20 16 17 16 17 23 21 23 19 30 19 16 17 18 16 17 15 23 39 38 42 43 49 53 56
55 53 52 53 43 35 34 40 38 28 20 25 19 19 14 13 15 17 20 17 15 15 16 14 21 21 20 22 24 21 24 23 24 18 18 18 16 20 38 35 39 43 46 52 55
54 52 52 50 47 44 43 40 30 25 20 19 15 14 13 13 13 17 19 17 20 17 19 17 23 22 22 25 24 24 23 23 22 20 17 20 20 22 34 39 42 44 47 52 55
52 50 52 50 33 43 41 32 25 22 25 19 16 18 16 16 14 17 19 15 14 21 15 22 24 23 24 21 22 23 21 19 20 20 19 22 22 24 38 44 46 45 48 51 55
50 51 51 50 49 47 33 29 29 25 22 20 19 19 21 22 20 20 16 17 24 21 22 20 17 24 25 24 20 23 20 19 20 21 23 26 22 31 40 44 45 46 49 51 53
50 46 44 44 50 42 28 23 22 25 22 21 19 20 21 22 21 22 22 23 24 23 19 19 19 25 28 25 24 25 23 21 24 27 24 25 27 32 43 45 44 45 50 52 52
47 44 39 41 44 28 24 26 26 27 26 22 21 22 22 22 23 23 23 24 24 24 25 22 21 25 27 25 27 25 28 28 27 23 23 26 27 27 34 38 44 44 47 54 54
41 37 38 41 32 27 23 23 26 27 28 23 22 23 25 26 26 25 26 26 27 26 27 29 26 23 26 25 26 26 25 28 28 27 25 24 26 33 40 46 46 46 48 53 55
39 35 38 36 30 28 25 27 32 28 28 22 26 26 23 26 25 26 27 29 31 28 27 29 24 23 23 28 29 28 29 27 26 26 28 27 27 40 49 51 52 52 54 57 57
40 40 43 37 31 29 31 30 31 29 28 24 23 24 25 23 22 27 30 31 34 31 28 27 25 24 25 26 27 28 29 28 30 30 28 29 30 38 49 50 52 55 57 57 56
41 36 40 38 36 34 33 30 30 33 29 31 26 25 25 25 29 27 26 30 31 39 46 38 27 25 25 26 27 26 27 27 27 28 30 30 32 34 40 48 49 50 56 56 56
41 39 41 38 38 37 36 32 32 32 33 31 28 24 24 27 25 24 26 24 27 39 31 27 26 27 26 26 28 27 25 26 31 33 34 35 34 40 45 48 49 52 55 54 54
38 43 43 42 40 37 35 36 34 33 33 29 25 25 25 22 21 22 23 23 22 26 29 27 24 27 25 26 24 25 27 30 29 39 39 43 43 48 50 51 51 51 52 52 54
45 43 43 41 38 35 34 37 36 36 34 32 30 26 26 25 25 24 24 23 23 23 22 24 24 23 20 23 27 21 28 32 41 44 43 41 44 49 49 49 50 51 52 53 54

GFSSW_sfc_dewp_111.txt.gz
Dewpoint
57 57 57 57 57 57 57 57 58 58 58 58 57 57 58 58 58 55 33 36 42 68 68 60 49 48 57 58 57 58 50 43 39 37 34 33 30 33 35 40 53 56 57 60 67
57 57 57 57 58 58 58 58 57 57 57 57 57 58 58 58 51 40 51 61 68 70 52 42 42 44 47 46 54 54 49 42 43 37 31 29 29 29 33 28 44 55 62 66 67
58 58 58 57 57 58 58 58 57 57 57 57 57 58 58 58 37 5 68 65 69 64 47 36 39 39 44 50 52 52 45 44 34 33 30 24 25 28 29 24 23 34 60 66 66
58 58 58 57 57 57 58 58 57 57 57 57 56 57 58 54 21 24 71 69 70 50 36 34 40 40 41 42 45 42 41 40 29 23 22 22 23 20 23 23 23 28 60 65 65
58 58 58 57 57 57 57 57 57 57 56 56 56 57 55 26 13 59 70 68 59 42 30 28 32 37 40 40 36 34 31 22 24 22 22 23 21 21 20 22 28 38 59 64 65
58 58 57 57 57 57 57 57 57 56 56 56 56 58 40 9 25 57 53 47 42 35 32 37 35 44 40 34 24 25 23 20 21 22 23 19 18 19 22 25 28 52 57 61 64
58 58 57 57 56 57 57 57 57 57 57 57 58 55 32 7 40 49 42 34 39 39 35 40 49 40 31 29 21 21 19 21 18 18 19 20 17 21 44 35 37 52 60 62 64
57 57 57 56 56 56 57 56 59 58 57 58 58 52 21 26 45 41 38 39 38 38 37 40 43 34 29 22 22 20 19 16 20 21 20 21 19 30 48 47 47 53 57 61 64
57 57 57 56 55 55 55 56 59 59 59 59 50 42 30 46 36 35 36 33 41 39 39 35 32 29 26 22 18 22 15 17 18 23 23 21 21 35 47 52 53 53 57 59 61
57 57 56 55 54 55 55 55 58 58 57 55 50 36 33 28 31 24 39 32 23 22 23 26 27 30 25 21 14 15 15 16 20 20 21 23 35 40 44 49 53 55 57 58 59
57 56 56 54 54 54 50 39 32 29 29 23 29 35 33 28 27 22 35 34 19 20 17 21 16 17 17 20 17 17 19 20 20 22 22 27 35 38 43 43 47 50 55 57 59
56 56 55 53 53 54 46 35 35 34 28 27 26 26 27 27 19 18 22 18 18 17 18 18 17 18 17 17 17 19 20 21 22 20 21 21 34 36 39 42 44 46 50 54 57
56 56 54 53 53 44 41 37 39 32 27 26 23 23 21 23 18 17 17 18 17 17 17 17 16 21 20 20 20 21 21 21 19 20 19 20 22 35 38 39 42 43 46 49 55
55 55 53 52 45 43 37 40 39 33 27 21 22 21 21 20 15 19 18 19 18 15 18 17 17 21 21 21 20 20 22 21 19 20 18 20 17 26 37 37 40 42 44 46 50
55 55 52 53 46 36 33 42 36 31 21 22 18 20 15 14 14 15 19 17 17 16 20 17 20 20 20 22 22 19 24 23 23 22 21 21 18 25 37 36 38 42 46 47 51
55 53 52 50 47 43 43 41 33 28 19 17 16 16 13 13 13 15 17 20 20 18 20 19 23 23 22 23 23 25 24 26 25 21 18 24 22 20 31 37 40 42 46 50 51
54 51 51 49 38 45 44 36 26 24 26 19 18 18 19 21 17 17 18 22 17 18 22 24 23 23 25 22 23 23 20 15 18 17 14 26 24 26 35 40 42 43 46 51 51
52 51 50 48 48 49 37 33 26 24 20 21 20 21 22 22 23 21 19 23 26 22 24 21 20 24 26 24 23 24 23 18 16 16 16 30 24 30 40 43 44 45 47 52 53
50 46 44 42 48 41 32 23 27 25 25 23 19 21 23 23 23 23 25 23 24 25 23 22 20 25 25 26 25 27 28 25 26 29 25 26 30 32 41 44 44 44 46 50 55
47 43 41 42 44 32 28 28 28 27 27 23 20 22 23 25 24 25 24 25 23 24 27 27 25 25 26 26 29 28 30 25 28 24 22 24 29 25 34 36 46 48 48 52 57
42 39 40 41 36 33 27 27 27 28 28 24 21 24 24 25 26 26 27 27 30 27 29 27 28 26 27 27 27 28 26 30 28 29 21 22 24 36 37 45 50 51 53 56 57
42 30 41 39 35 31 30 29 33 29 30 24 25 25 23 25 26 28 28 31 33 29 27 30 27 26 26 28 29 29 30 28 24 26 29 28 25 33 42 48 52 53 54 55 57
44 41 43 38 31 33 34 31 31 31 30 29 24 25 25 26 27 28 30 31 33 32 31 32 30 25 27 27 29 28 29 30 31 32 28 26 24 36 42 47 50 51 51 53 55
43 37 43 41 39 35 35 32 31 33 30 32 28 26 28 28 31 30 27 28 29 35 46 41 32 31 24 28 29 29 27 27 27 23 22 26 29 34 39 44 49 51 52 53 56
42 41 43 40 39 38 36 34 32 31 33 31 29 25 26 29 28 27 25 25 26 41 33 32 30 31 25 28 27 26 24 24 24 26 28 26 32 38 46 50 50 51 53 53 54
43 45 44 43 42 38 37 36 33 33 34 29 28 28 26 28 28 28 26 28 27 29 30 31 29 32 26 24 24 23 24 24 24 25 28 32 39 47 50 51 48 51 52 53 54
46 45 44 43 41 38 36 37 35 36 35 33 34 30 27 29 32 28 28 28 30 30 30 30 30 29 23 24 23 23 25 25 29 37 40 40 42 48 48 48 50 52 54 55 55

GFSSW_sfc_dewp_114.txt.gz
Dewpoint
59 59 58 58 59 59 59 58 58 57 57 57 57 57 57 58 58 53 30 39 43 66 67 52 42 48 56 54 56 56 36 30 31 33 33 30 28 28 29 29 36 45 51 57 63
59 59 59 59 59 59 59 58 58 57 57 57 57 57 57 58 47 30 51 63 69 72 46 40 35 40 45 41 47 46 31 28 35 33 29 29 28 27 27 25 23 37 59 60 63
59 59 59 59 58 58 58 58 58 57 57 57 57 57 57 57 38 19 65 66 70 68 38 35 34 34 32 41 43 41 31 33 31 27 26 25 25 23 24 24 22 25 49 62 63
59 59 59 59 58 58 58 58 58 57 57 57 57 57 58 51 21 29 69 68 70 44 36 32 31 32 31 36 40 38 33 32 27 24 24 23 20 19 19 20 22 25 32 61 62
59 59 59 59 58 58 57 57 58 57 56 56 56 56 54 30 18 52 70 68 55 35 32 29 29 29 30 32 34 31 26 24 21 22 22 21 20 19 19 32 25 36 41 57 60
58 58 58 58 58 57 57 58 57 57 56 56 56 58 43 11 29 45 44 48 45 33 29 27 26 34 36 32 27 24 23 21 20 20 21 19 16 20 34 39 34 46 48 53 57
58 58 58 58 57 57 57 57 58 58 57 57 58 54 30 21 38 42 36 34 34 31 26 30 42 42 33 27 24 22 20 18 18 18 18 20 19 27 39 41 39 47 53 56 58
58 58 57 57 57 56 56 57 59 58 58 58 59 50 19 26 41 39 32 33 34 35 34 39 42 36 29 26 23 19 19 16 18 18 18 20 22 32 41 43 44 48 54 58 60
57 57 57 57 56 55 56 56 59 58 58 59 53 43 25 43 34 35 31 30 36 38 36 35 35 29 26 23 16 18 15 15 16 19 20 19 21 33 41 45 48 50 54 56 59
57 57 57 56 55 55 55 56 59 59 56 52 47 38 31 26 26 30 35 31 22 28 31 31 28 25 20 17 15 16 15 15 17 18 18 22 25 33 39 39 44 48 53 56 57
57 57 56 56 54 54 50 43 36 35 27 24 27 32 29 25 24 24 30 30 20 19 19 20 16 18 18 20 19 19 18 17 19 20 21 25 29 32 37 36 39 42 47 51 56
56 56 56 55 53 54 47 30 34 34 28 24 24 24 23 23 18 17 28 20 19 18 18 18 18 20 19 20 20 20 19 21 21 20 21 25 27 34 35 36 37 38 42 45 49
56 56 55 53 53 46 36 34 36 34 29 24 23 20 18 20 16 16 18 18 18 18 16 17 20 21 21 21 21 21 21 21 20 21 21 21 22 33 34 35 37 38 40 42 47
55 55 54 52 47 40 35 37 39 36 26 20 18 19 20 19 16 18 18 18 17 16 16 17 20 20 21 20 20 21 19 19 19 20 17 22 14 30 32 33 37 39 40 40 46
55 55 53 52 47 31 36 40 36 32 20 20 18 21 16 16 16 16 18 18 16 16 19 20 19 19 21 20 21 21 21 21 21 20 20 19 17 29 33 33 36 38 42 45 47
54 54 53 50 47 38 40 40 34 28 20 17 16 14 13 13 13 16 16 19 20 17 18 18 21 21 21 21 22 24 23 23 24 18 16 23 19 18 24 31 33 35 41 47 48
53 52 51 47 39 43 43 36 27 21 23 17 17 17 15 17 17 15 18 19 17 21 21 22 21 23 24 23 24 23 20 17 17 16 15 27 20 21 31 34 36 39 42 47 50
52 51 51 46 44 45 37 29 27 24 21 21 19 19 17 19 21 16 18 20 23 19 18 19 21 23 25 24 25 24 22 20 19 14 16 26 22 30 35 37 40 41 42 45 49
51 41 44 42 46 40 32 22 23 25 23 21 20 19 21 21 22 20 21 19 23 25 23 21 21 24 25 26 26 27 29 24 24 27 22 22 25 27 32 36 39 40 44 47 51
47 38 40 42 45 35 28 26 27 26 25 23 22 22 22 22 22 22 24 24 24 25 28 28 25 24 26 26 28 27 28 25 25 25 21 18 24 24 33 31 36 39 45 50 54
43 30 40 41 38 32 21 24 27 28 27 25 23 23 23 24 23 23 24 27 28 27 29 27 28 27 27 28 26 26 26 28 24 26 22 18 21 31 31 34 40 41 45 50 50
42 21 41 41 30 32 24 30 34 28 28 23 25 24 25 25 26 26 26 28 30 29 27 30 26 26 25 29 28 27 28 29 24 27 26 25 23 29 31 38 40 45 48 51 52
38 34 41 40 20 23 32 29 30 29 28 26 23 25 25 26 28 27 29 30 30 29 30 31 27 25 27 27 29 27 28 30 30 30 29 23 21 30 30 32 42 47 50 51 52
43 29 38 40 39 34 31 29 29 32 29 30 27 26 26 27 29 30 28 27 30 30 47 39 29 31 21 26 29 28 25 28 28 26 24 20 22 24 29 40 46 49 51 51 53
43 37 44 36 37 38 37 33 28 28 32 30 29 25 27 29 28 27 26 26 26 40 32 30 31 29 27 24 22 22 23 22 23 24 23 23 23 29 40 47 49 49 51 52 53
40 42 43 38 43 41 37 35 30 30 33 30 30 27 27 30 29 28 26 28 28 31 31 30 30 29 27 22 21 21 21 21 20 21 22 21 27 42 46 47 48 50 51 52 54
45 46 42 37 33 34 32 35 33 35 34 33 33 31 29 30 32 30 28 30 31 32 32 32 28 29 24 21 22 21 21 21 23 26 29 34 40 45 45 48 50 51 52 52 53

GFSSW_sfc_dewp_117.txt.gz
Dewpoint
60 60 60 60 60 59 59 58 58 58 58 58 58 57 57 58 58 51 29 42 44 67 70 48 40 41 46 47 45 43 32 27 25 29 28 28 29 30 27 26 29 39 45 55 58
60 60 60 60 60 59 59 58 58 58 58 58 57 57 57 58 48 32 54 67 68 68 50 41 33 35 38 35 36 36 32 25 26 26 24 24 25 26 26 26 24 29 52 57 57
60 60 60 60 60 59 59 59 59 59 58 57 57 57 57 57 40 28 64 68 67 66 38 35 30 30 30 28 33 34 29 28 26 23 21 19 20 19 19 23 23 23 41 57 57
59 59 59 59 59 59 59 58 58 58 57 57 57 57 57 53 26 44 66 67 69 49 39 30 28 26 23 28 32 32 29 24 22 18 17 16 17 16 18 24 22 26 25 56 58
59 59 59 59 59 59 58 58 58 58 57 57 57 57 55 39 24 53 70 66 49 48 31 27 25 24 24 25 28 27 24 20 18 17 17 18 17 17 24 27 27 37 37 54 58
59 59 59 58 58 58 58 58 58 58 58 57 57 57 50 22 35 46 41 41 38 32 30 24 21 23 29 30 26 22 18 16 17 18 20 18 15 21 28 29 32 42 44 50 56
58 58 58 58 58 58 57 57 58 59 58 57 57 55 36 23 37 38 40 40 35 28 24 24 26 32 33 26 24 19 18 17 17 17 18 18 19 25 30 33 35 42 49 51 53
57 58 58 58 58 57 56 57 59 57 58 58 59 50 25 29 36 34 32 31 32 31 30 28 39 37 30 24 21 19 17 15 18 16 16 18 24 28 30 37 41 45 51 55 58
57 57 57 57 57 56 55 56 59 58 58 59 55 49 22 41 33 31 28 30 31 31 31 30 31 27 23 21 19 17 14 15 16 17 15 16 22 29 30 37 43 48 50 52 58
56 56 57 57 56 55 55 55 58 57 57 51 46 38 28 26 23 29 29 30 30 30 29 29 27 22 21 18 15 17 14 13 16 17 16 17 22 28 28 31 38 45 50 54 56
55 56 56 56 56 55 51 45 42 41 34 25 25 31 24 25 24 22 29 28 21 24 23 24 19 18 18 20 18 16 16 16 17 18 17 19 23 26 28 26 31 39 44 49 53
55 55 56 56 55 54 50 28 31 32 29 22 22 24 25 21 17 19 23 24 21 19 18 17 17 21 18 17 17 17 18 19 20 19 20 20 23 29 29 29 30 34 40 43 46
55 55 55 55 54 48 33 31 35 34 31 21 18 19 20 18 17 16 21 21 18 18 16 18 21 20 18 19 19 19 20 22 20 20 20 21 22 29 32 31 33 35 37 42 46
54 54 54 53 48 34 34 34 35 34 28 19 17 17 18 17 15 17 18 18 16 18 16 17 19 19 19 19 19 20 21 19 19 20 17 23 18 32 31 30 32 35 36 40 43
54 54 54 53 48 33 33 35 35 33 25 19 15 17 16 17 17 17 17 17 19 16 17 19 18 18 19 21 20 21 21 20 21 21 20 19 16 29 31 29 34 36 39 42 44
53 53 53 48 48 36 37 36 34 26 21 18 15 14 14 15 14 16 16 18 19 17 17 18 19 18 20 21 20 21 22 23 23 20 18 21 19 21 25 30 34 35 38 42 45
52 52 52 47 39 37 38 35 28 21 24 17 14 13 13 13 13 15 17 18 17 20 22 19 18 20 21 21 23 24 22 19 19 17 18 27 22 20 30 31 32 36 37 40 43
51 51 50 44 42 39 38 31 28 22 21 20 17 15 15 16 17 18 18 17 19 20 17 19 20 23 23 22 25 23 24 20 23 15 15 27 21 30 31 33 35 36 39 39 44
50 34 35 40 40 41 33 25 22 23 22 19 17 18 17 18 19 20 19 17 19 21 23 22 22 24 22 23 24 27 25 24 20 19 17 19 25 28 31 31 34 35 36 41 47
48 33 25 38 39 37 27 26 22 24 23 22 21 19 20 21 19 20 22 21 21 22 24 25 26 24 24 25 26 27 27 20 24 24 22 18 21 22 34 32 33 35 36 40 47
48 24 38 36 36 30 21 18 20 23 25 22 21 21 22 21 22 21 22 24 23 24 26 23 28 26 28 27 26 28 26 28 23 22 21 21 21 28 29 32 34 36 38 44 46
39 21 36 33 29 24 20 20 32 22 25 22 24 23 23 22 24 23 22 26 27 26 26 28 26 26 26 29 28 27 26 24 24 28 25 24 19 30 31 31 32 34 43 46 49
36 26 27 27 19 17 22 23 22 22 23 23 21 22 24 25 27 26 25 29 28 26 31 30 28 23 25 25 28 29 28 27 29 29 29 24 22 24 28 30 32 42 48 50 51
39 25 32 30 24 31 27 27 24 26 26 27 26 24 25 25 27 29 26 28 28 26 50 37 27 28 21 27 25 28 28 26 26 25 25 22 25 26 27 28 39 46 49 50 52
38 32 39 32 29 30 29 28 24 24 27 28 28 25 25 27 26 27 26 27 26 39 29 29 31 30 26 23 22 22 19 18 21 24 24 23 22 26 30 42 45 46 49 49 51
34 39 39 29 37 39 34 29 26 22 28 28 28 26 25 29 30 29 27 29 29 30 31 31 32 31 26 21 21 20 17 18 19 20 20 19 22 30 44 44 45 47 48 49 51
40 38 33 33 30 27 25 30 28 29 30 30 31 30 29 29 29 30 28 29 30 32 34 34 33 32 24 21 19 21 21 19 20 21 20 22 34 42 44 46 47 48 48 50 51

GFSSW_sfc_dewp_120.txt.gz
Dewpoint
60 61 61 60 60 60 59 59 59 59 58 58 58 58 58 58 59 48 27 41 45 68 69 44 48 39 38 41 42 36 35 31 25 28 27 25 25 29 28 26 29 41 46 55 55
60 60 60 60 60 60 60 59 59 59 59 58 58 58 58 58 49 36 54 69 69 70 46 43 34 32 33 35 33 33 32 26 23 23 21 20 20 23 21 24 26 44 55 55 55
60 60 60 60 60 60 59 59 59 59 59 58 58 58 58 57 44 31 67 69 69 64 35 37 32 26 26 27 27 31 30 27 24 21 18 16 16 17 18 23 22 23 55 55 55
59 59 60 60 60 59 59 59 58 58 58 57 58 58 57 51 32 42 66 68 69 40 37 36 29 25 23 23 28 28 29 24 20 17 15 14 14 14 21 25 20 29 52 55 55
58 58 59 59 59 59 59 58 58 58 58 58 57 58 53 40 35 56 68 64 38 39 40 31 25 23 22 23 25 25 24 21 17 16 15 16 15 17 25 24 29 35 37 55 55
57 57 58 58 59 59 58 58 58 60 58 57 58 58 46 38 41 52 39 35 27 34 36 26 23 21 21 25 27 24 18 15 15 18 17 17 16 22 27 28 32 41 43 52 56
57 57 57 58 58 58 58 57 58 60 58 57 58 54 46 28 35 37 34 32 33 33 27 23 21 24 30 29 24 20 17 18 16 16 18 17 19 27 28 34 37 42 47 49 55
56 56 56 57 57 58 57 57 57 58 58 58 58 49 34 28 34 35 36 34 33 30 27 27 23 32 35 32 20 19 18 15 17 15 16 17 26 27 30 38 42 44 49 53 54
56 56 56 56 57 57 56 56 58 58 58 59 55 49 31 45 32 29 29 28 28 29 29 28 32 32 27 20 19 19 14 17 17 16 15 16 26 28 31 36 43 46 47 53 57
55 55 55 55 56 56 55 55 57 57 56 52 47 43 32 21 27 28 26 28 28 29 27 25 25 25 22 19 17 18 13 13 15 17 16 15 21 28 25 32 39 45 51 53 56
55 55 55 55 55 55 51 46 42 44 42 36 29 34 25 24 21 25 27 28 25 25 27 27 24 21 21 20 19 17 16 15 16 18 18 17 22 25 25 25 34 41 48 51 53
54 54 54 54 54 54 51 31 30 32 28 29 22 26 25 23 18 19 25 26 24 19 20 19 17 20 20 17 16 16 17 17 19 19 20 18 20 24 28 27 30 36 40 44 49
54 54 53 53 53 51 34 30 32 33 30 29 18 21 23 20 17 18 21 24 19 19 18 17 20 20 17 17 19 17 17 21 21 21 20 20 21 23 30 30 32 34 41 43 48
53 53 53 53 48 40 34 31 32 32 29 22 16 18 19 18 16 17 18 20 17 17 18 16 19 18 18 19 19 21 22 20 19 19 17 20 17 31 32 31 32 34 37 41 44
53 53 53 53 46 38 34 34 32 32 27 20 15 17 16 17 17 16 17 18 18 17 17 17 17 18 18 19 21 19 20 20 19 19 20 19 16 26 34 31 33 36 39 41 43
53 52 52 45 48 43 34 35 34 27 21 17 16 14 14 15 15 16 16 17 18 18 18 17 19 18 18 21 20 20 19 22 22 20 20 23 17 28 29 31 33 37 38 41 43
52 51 50 43 40 36 34 36 29 23 25 19 15 12 13 14 13 15 16 17 16 20 21 19 17 17 19 19 20 22 23 21 19 19 19 24 19 30 31 32 35 37 37 39 40
50 50 48 43 38 37 35 33 28 24 22 18 14 12 12 13 14 14 16 16 18 18 17 19 18 19 23 21 24 25 22 23 24 19 18 26 22 27 31 35 36 35 36 37 41
49 33 37 39 41 35 33 26 26 23 21 19 17 15 15 14 15 17 19 16 17 20 22 19 22 23 23 22 23 25 27 24 25 21 16 15 28 33 32 32 35 35 36 36 38
45 36 30 27 32 32 28 27 22 20 23 21 19 18 17 16 17 19 20 19 17 21 23 24 24 24 23 23 24 24 25 23 21 27 23 18 22 29 34 33 35 34 35 37 44
45 36 29 30 30 29 24 19 17 16 22 22 18 17 19 18 20 19 19 20 20 21 23 23 23 24 27 26 26 25 27 27 24 24 21 19 23 35 35 36 35 35 35 40 42
39 27 34 33 24 23 19 19 27 22 23 20 19 22 23 21 21 22 21 25 24 23 24 26 24 24 24 25 27 26 27 27 25 28 26 25 24 29 31 29 30 31 46 51 50
37 29 24 26 16 18 21 16 21 19 16 20 18 19 20 23 26 24 24 28 28 27 30 31 27 25 26 21 24 26 28 30 27 29 30 25 24 27 32 28 31 45 48 50 50
40 28 25 22 21 20 27 26 22 21 19 24 23 23 22 23 26 26 25 27 28 27 52 40 30 30 21 25 25 27 27 28 27 26 25 21 26 29 30 32 35 44 47 49 51
44 27 34 33 32 28 23 22 23 23 26 22 25 23 24 26 25 25 26 25 27 43 32 29 30 27 23 24 23 22 19 20 22 21 21 21 22 29 39 43 43 46 50 49 49
39 38 36 36 30 37 37 30 27 22 23 26 26 24 24 26 27 27 26 28 28 31 30 30 33 30 27 26 23 19 17 18 17 17 17 18 21 30 45 46 46 47 47 50 51
41 41 37 33 23 25 24 24 24 25 24 26 27 30 25 32 33 32 28 30 30 32 33 35 33 34 30 28 23 19 20 19 21 20 20 21 26 43 44 44 44 45 45 46 53

GFSSW_sfc_dewp_123.txt.gz
Dewpoint
60 60 60 60 59 59 59 59 60 59 59 59 58 59 59 59 59 53 34 38 45 68 66 52 45 47 45 37 39 41 35 35 23 24 22 20 21 25 31 48 50 54 54 56 59
59 59 59 59 59 59 60 60 60 60 59 59 59 59 58 59 50 38 50 69 68 70 39 42 42 38 32 33 36 36 33 28 23 21 19 19 20 22 22 51 54 55 55 56 59
58 58 58 59 59 59 60 60 59 59 59 59 59 58 58 57 49 34 66 69 69 65 30 32 35 33 25 25 26 28 30 28 21 21 16 15 16 18 25 27 54 53 54 55 57
57 58 58 58 58 59 59 59 59 59 59 59 58 58 58 54 39 40 68 69 69 46 33 33 36 30 25 23 24 28 26 26 18 16 16 16 15 24 25 25 52 54 54 55 56
57 57 57 58 58 59 59 58 58 59 59 58 58 58 54 42 39 56 69 67 47 37 31 40 36 27 24 22 23 26 23 18 15 17 16 17 19 27 27 30 50 54 54 55 56
57 57 57 57 58 58 58 58 58 59 59 58 58 58 51 41 47 58 43 40 28 32 37 38 30 24 22 22 25 27 20 16 16 20 23 20 18 27 34 36 43 54 54 54 56
56 56 56 57 57 58 58 58 58 60 58 58 58 55 47 39 47 49 36 30 28 25 36 33 25 21 22 28 33 22 17 18 18 19 20 19 27 28 34 42 44 47 51 55 57
56 56 56 56 56 57 57 57 57 60 59 58 59 51 47 42 38 35 33 31 31 31 33 28 28 22 25 35 32 21 18 18 17 16 18 19 31 29 42 44 45 46 52 58 60
55 55 55 55 55 56 55 56 57 60 59 59 55 52 43 44 33 33 35 33 32 30 30 27 29 32 33 29 25 20 18 18 18 19 18 21 27 31 42 46 47 51 55 57 58
55 54 54 54 54 54 54 56 58 57 58 55 50 45 45 26 30 29 29 28 29 29 29 28 24 24 25 24 21 19 17 18 19 17 17 18 27 26 39 45 47 53 56 57 58
54 54 54 54 54 53 52 49 45 45 43 40 38 41 37 31 27 29 28 26 29 28 27 28 25 25 24 24 19 17 16 17 19 20 18 19 28 26 32 42 48 51 52 54 57
54 54 54 54 53 52 52 44 32 31 31 32 34 34 26 23 19 21 27 26 27 21 25 25 24 22 22 21 19 17 17 18 22 21 20 20 21 27 27 38 46 49 51 52 55
53 53 53 53 52 52 45 34 31 32 31 30 29 27 25 22 20 19 24 26 26 23 21 20 19 23 22 18 19 19 19 22 24 22 22 24 23 29 31 33 38 44 47 51 54
52 53 52 52 47 43 41 34 33 34 31 29 24 18 21 22 18 20 22 25 22 19 20 18 20 20 19 19 22 20 21 21 22 22 19 23 18 31 30 32 37 42 45 50 54
52 52 52 51 46 45 40 34 34 33 30 25 18 19 20 18 18 18 19 19 20 18 22 19 22 19 21 21 22 25 21 20 21 20 20 20 19 32 31 31 36 40 42 46 50
51 51 51 47 47 47 46 40 38 32 28 19 16 15 16 17 17 18 18 20 20 19 20 18 22 21 21 21 23 22 22 23 22 22 20 21 23 31 32 32 38 40 42 46 51
50 50 50 43 34 26 35 37 34 29 25 18 15 15 14 15 15 16 17 18 18 19 21 21 17 18 20 22 23 19 23 24 24 25 24 27 28 29 36 37 38 40 42 43 51
49 50 50 44 40 35 39 37 34 29 24 20 16 13 13 15 15 16 19 18 20 19 18 19 22 19 23 23 27 25 33 24 26 24 22 24 22 34 37 38 40 41 40 41 49
49 40 38 42 42 41 39 34 33 31 22 21 19 21 15 13 15 16 17 17 18 19 20 20 25 24 24 24 24 26 24 27 23 30 22 21 31 35 36 36 37 38 39 42 48
46 42 40 29 38 38 36 32 28 24 19 24 23 23 21 19 16 18 23 23 21 22 25 27 24 25 25 24 27 25 25 24 26 23 22 25 32 33 35 38 39 36 37 45 46
46 42 37 31 34 38 31 28 23 19 23 26 25 23 21 22 22 21 22 21 20 23 24 27 27 26 26 27 26 28 25 28 26 27 24 23 30 39 37 36 34 37 49 49 49
43 39 36 36 35 34 28 27 29 20 25 27 27 23 23 26 28 25 25 30 27 26 25 36 26 31 26 28 27 27 27 29 30 29 27 29 27 34 34 32 39 50 51 51 50
39 38 35 36 31 24 26 22 20 21 23 24 24 21 21 24 29 30 29 29 28 33 34 32 31 28 26 27 26 28 29 31 32 33 29 28 28 33 33 34 48 49 51 51 50
41 41 38 34 31 26 24 25 26 21 21 21 29 28 28 28 27 31 29 28 29 30 51 39 30 32 27 28 25 26 26 30 29 28 28 29 28 26 41 44 48 51 52 51 50
45 43 41 37 36 35 39 28 27 24 25 31 29 25 26 29 31 29 28 30 29 46 33 31 31 34 27 24 22 24 23 21 20 25 24 23 23 29 47 48 48 49 51 51 50
43 40 40 38 38 33 34 37 30 27 31 31 29 25 28 32 33 34 34 35 32 35 32 29 31 40 29 27 27 26 25 23 19 19 19 19 20 47 46 46 46 46 47 47 54
44 42 41 41 33 27 29 32 24 25 27 25 30 32 36 36 37 35 32 33 36 35 35 35 34 39 34 33 31 27 27 24 23 24 23 30 44 46 45 46 50 53 54 53 53

GFSSW_sfc_dewp_126.txt.gz
Dewpoint
57 58 58 59 58 58 58 59 59 59 60 60 60 59 59 59 58 54 25 33 43 68 67 49 46 46 47 46 42 43 38 38 36 37 27 18 19 43 48 52 53 55 58 61 63
57 58 58 59 59 58 58 59 59 59 59 59 59 59 59 59 52 41 52 64 67 70 38 37 44 44 41 34 35 37 36 36 27 21 16 16 17 44 46 49 54 54 58 61 66
58 58 58 57 58 59 58 59 59 59 59 59 59 59 59 58 50 40 65 69 69 66 32 31 31 34 32 27 25 29 31 31 21 16 16 15 20 39 53 53 54 55 58 60 66
57 57 57 57 57 58 58 59 58 58 59 59 58 58 59 55 38 43 71 69 70 43 34 31 36 35 28 24 25 23 26 26 18 17 16 16 20 24 45 53 55 56 58 59 63
56 57 56 57 57 57 58 58 58 58 60 59 58 58 54 40 31 59 69 68 48 37 30 33 42 38 27 24 23 26 22 19 18 16 15 25 26 27 35 53 55 56 58 59 60
56 56 56 56 57 57 57 58 58 58 59 58 58 59 49 39 52 58 47 44 32 35 33 34 38 31 25 23 27 30 22 18 17 20 19 22 28 27 48 54 54 55 56 58 58
56 56 56 56 56 56 57 57 57 58 59 58 59 56 50 34 52 49 36 31 28 31 36 39 39 28 23 21 33 33 21 18 19 19 19 27 27 31 49 54 53 53 55 57 58
55 55 55 55 55 56 56 55 57 58 59 59 59 54 42 48 48 40 36 31 30 26 31 36 34 25 24 29 33 30 19 17 19 19 20 27 31 42 45 48 52 53 54 56 60
55 55 55 55 55 55 54 55 57 60 59 59 55 51 42 47 36 35 33 32 31 29 31 31 29 30 30 29 24 24 21 18 18 17 18 28 30 43 46 53 55 56 58 60 63
54 54 54 54 54 54 53 56 59 59 58 56 51 44 42 30 32 33 33 34 32 32 30 29 24 22 23 24 21 20 16 18 17 17 19 27 30 41 47 52 54 56 57 59 61
54 53 53 53 53 53 51 50 36 40 45 31 37 40 40 41 31 31 29 28 30 30 26 31 24 22 23 24 24 22 19 21 23 22 18 26 30 41 47 53 54 55 56 57 59
53 53 53 53 53 52 51 40 29 30 29 37 40 39 37 33 20 27 28 25 32 26 26 24 24 26 27 25 21 18 17 18 24 25 20 24 26 36 47 51 52 53 55 56 58
53 53 53 52 51 51 44 41 35 40 32 30 29 28 29 22 19 19 26 26 28 26 23 20 19 25 26 20 19 21 20 22 25 23 21 22 23 28 39 47 51 53 54 56 57
52 52 52 51 38 43 43 39 39 33 29 28 28 27 24 22 21 23 26 26 27 23 24 20 21 20 23 21 20 19 22 20 19 20 18 21 17 28 37 45 49 50 52 54 56
51 51 51 51 41 41 40 42 39 33 26 33 24 22 21 21 21 21 24 24 22 20 20 18 21 20 20 23 23 22 24 22 25 18 18 21 17 22 34 40 45 48 51 52 54
51 51 51 47 45 44 41 34 36 28 22 24 16 18 19 19 19 20 19 24 22 21 20 19 20 20 20 23 21 24 22 24 27 21 19 20 19 29 30 38 42 45 50 52 54
49 49 49 45 15 29 31 37 30 27 29 18 14 15 17 16 18 17 17 17 15 27 17 20 21 19 21 20 24 20 22 21 23 24 21 24 26 29 32 40 41 44 48 51 52
48 50 49 46 43 36 38 33 33 30 28 24 16 15 14 14 15 16 16 16 18 18 17 16 16 21 24 21 22 24 21 22 24 22 24 24 26 34 39 41 42 43 46 51 52
48 42 40 44 45 39 35 30 30 31 23 21 16 13 13 13 14 16 17 15 17 17 15 19 23 25 23 23 22 24 21 25 22 27 20 24 33 35 38 39 39 40 49 50 49
44 43 41 32 42 37 30 31 28 25 20 22 23 20 21 18 15 15 16 18 17 19 21 23 22 24 26 24 25 22 24 20 24 20 19 24 30 33 35 36 38 40 46 47 49
43 35 37 34 37 31 26 27 25 24 22 26 25 23 22 23 25 22 18 22 21 24 23 24 22 21 25 24 23 26 24 26 25 23 22 24 29 38 37 38 37 40 46 48 49
40 29 37 33 26 30 26 26 30 21 21 21 22 24 21 21 25 24 28 30 29 24 23 33 25 25 22 28 28 27 24 27 26 23 26 27 25 33 35 35 46 48 49 49 49
36 37 38 34 27 26 23 22 22 20 22 19 23 26 20 21 19 31 31 30 31 31 30 31 28 24 23 24 23 24 28 30 30 30 26 25 26 33 34 47 50 50 50 50 50
40 38 38 31 31 32 22 20 19 26 22 21 23 26 25 24 25 25 29 30 30 31 52 39 29 27 24 24 25 26 24 26 29 27 27 28 26 29 44 47 49 50 49 50 55
43 43 40 35 33 34 37 35 30 28 26 23 23 21 21 26 25 26 30 29 29 46 31 28 24 29 28 26 25 25 26 27 23 23 24 21 25 36 46 47 48 49 50 53 54
40 37 37 38 37 27 30 30 33 25 24 23 25 22 33 33 33 33 32 30 29 32 27 27 24 32 27 29 29 29 29 29 25 23 20 21 22 47 47 46 45 46 47 53 54
41 42 38 38 34 28 26 30 27 28 32 34 35 35 34 35 35 34 34 31 37 29 30 28 31 32 29 33 29 28 28 29 27 28 24 22 35 45 44 49 51 52 52 53 53